[[{"header":{"parameterUnit":"m.s-1","parameterCategory":1,"la1":30.6,"la2":29.2853,"lo1":-89.7004,"lo2":-87.6739,"dy":0.0162,"dx":0.0183,"nx":112,"ny":82,"refTime":"2024-07-10T06:00:00:Z","depth":0,"parameterNumber":2,"parameterNumberName":"U-component_of_WINDS"},"data":[0.0,0.0,0.0,0.0,0.0,0.0,0.0,0.0,0.0,0.0,0.0,0.0,0.0,0.0,0.0,0.0,0.0,0.0,0.0,0.0,0.0,0.0,0.0,0.0,0.0,0.0,0.0,0.0,0.0,0.0,0.0,0.0,0.0,0.0,0.0,0.0,0.0,0.0,0.0,0.0,0.0,0.0,0.0,0.0,0.0,0.0,0.0,0.0,0.0,0.0,0.0,0.0,0.0,0.0,0.0,0.0,0.0,0.0,0.0,0.0,0.0,0.0,0.0,0.0,0.0,0.0,0.0,0.0,0.0,0.0,0.0,0.0,0.0,0.0,0.0,0.0,0.0,0.0,0.0,0.0,0.0,0.0,0.0,0.0,0.0,0.0,0.0,0.0,0.0,0.0,0.0,-0.5952,-0.6895,-0.7599,-0.7919,-0.7972,-0.7518,-0.6538,0.0,0.0,0.0,0.0,0.0,0.0,0.0,0.0,0.0,0.0,0.0,0.0,0.0,0.0,0.0,0.0,0.0,0.0,0.0,0.0,0.0,0.0,0.0,0.0,0.0,0.0,0.0,0.0,0.0,0.0,0.0,0.0,0.0,0.0,0.0,0.0,0.0,0.0,0.0,0.0,0.0,0.0,0.0,0.0,0.0,0.0,0.0,0.0,0.0,0.0,0.0,0.0,0.0,0.0,0.0,0.0,0.0,0.0,0.0,0.0,0.0,0.0,0.0,0.0,0.0,0.0,0.0,0.0,0.0,0.0,0.0,0.0,0.0,0.0,0.0,0.0,0.0,0.0,0.0,0.0,0.0,0.0,0.0,0.0,0.0,0.0,0.0,0.0,0.0,0.0,0.0,0.0,0.0,0.0,0.0,0.0,0.0,0.0,0.0,0.0,0.0,0.0,0.0,0.0,-0.4954,-0.6169,-0.694,-0.7289,-0.7241,-0.7241,-0.6862,-0.5879,0.0,0.0,0.0,0.0,0.0,0.0,0.0,0.0,0.0,0.0,0.0,0.0,0.0,0.0,0.0,0.0,0.0,0.0,0.0,0.0,0.0,0.0,0.0,0.0,0.0,0.0,0.0,0.0,0.0,0.0,0.0,0.0,0.0,0.0,0.0,0.0,0.0,0.0,0.0,0.0,0.0,0.0,0.0,0.0,0.0,0.0,0.0,0.0,0.0,0.0,0.0,0.0,0.0,0.0,0.0,0.0,0.0,0.0,0.0,0.0,0.0,0.0,0.0,0.0,0.0,0.0,0.0,0.0,0.0,0.0,0.0,0.0,0.0,0.0,0.0,0.0,0.0,0.0,0.0,0.0,0.0,0.0,0.0,0.0,0.0,0.0,0.0,0.0,0.0,0.0,0.0,0.0,0.0,0.0,0.0,0.0,0.0,0.0,0.0,0.0,0.0,0.0,0.0,-0.4354,-0.4911,-0.6158,-0.6268,-0.6322,-0.6593,-0.6593,-0.6365,-0.5755,-0.5612,0.0,0.0,0.0,0.0,0.0,0.0,0.0,0.0,0.0,0.0,0.0,0.0,0.0,0.0,0.0,0.0,0.0,0.0,0.0,0.0,0.0,0.0,0.0,0.0,0.0,0.0,0.0,0.0,0.0,0.0,0.0,0.0,0.0,0.0,0.0,0.0,0.0,0.0,0.0,0.0,0.0,0.0,0.0,0.0,0.0,0.0,0.0,0.0,0.0,0.0,0.0,0.0,0.0,0.0,0.0,0.0,0.0,0.0,0.0,0.0,0.0,0.0,0.0,0.0,0.0,0.0,0.0,0.0,0.0,0.0,0.0,0.0,0.0,0.0,0.0,0.0,0.0,0.0,0.0,0.0,0.0,0.0,0.0,0.0,0.0,0.0,0.0,0.0,0.0,0.0,0.0,0.0,0.0,0.0,0.0,0.0,0.0,0.0,0.0,0.0,0.0,0.0,-0.478,-0.4931,-0.5864,-0.5567,-0.5458,-0.5941,-0.5863,-0.5675,-0.5326,-0.4798,0.0,0.0,0.0,0.0,0.0,0.0,0.0,0.0,0.0,0.0,0.0,0.0,0.0,0.0,0.0,0.0,0.0,0.0,0.0,0.0,0.0,0.0,0.0,0.0,0.0,0.0,0.0,0.0,0.0,0.0,0.0,0.0,0.0,0.0,0.0,0.0,0.0,0.0,0.0,0.0,0.0,0.0,0.0,0.0,0.0,0.0,0.0,0.0,0.0,0.0,0.0,0.0,0.0,0.0,0.0,0.0,0.0,0.0,0.0,0.0,0.0,0.0,0.0,0.0,0.0,0.0,0.0,0.0,0.0,0.0,0.0,0.0,0.0,0.0,0.0,0.0,0.0,0.0,0.0,0.0,0.0,0.0,0.0,0.0,0.0,0.0,0.0,0.0,0.0,0.0,0.0,0.0,0.0,0.0,0.0,0.0,0.0,0.0,0.0,0.0,0.0,0.0,-0.4402,-0.4918,-0.5311,-0.5297,-0.5297,-0.5352,-0.4893,-0.4484,-0.414,-0.3444,0.0,0.0,0.0,0.0,0.0,0.0,0.0,0.0,0.0,0.0,0.0,0.0,0.0,0.0,0.0,0.0,0.0,0.0,0.0,0.0,0.0,0.0,0.0,0.0,0.0,0.0,0.0,0.0,0.0,0.0,0.0,0.0,0.0,0.0,0.0,0.0,0.0,0.0,0.0,0.0,0.0,0.0,0.0,0.0,0.0,0.0,0.0,0.0,0.0,0.0,0.0,0.0,0.0,0.0,0.0,0.0,0.0,0.0,0.0,0.0,0.0,0.0,0.0,0.0,0.0,0.0,0.0,0.0,0.0,0.0,0.0,0.0,0.0,0.0,0.0,0.0,0.0,0.0,0.0,0.0,0.0,0.0,0.0,0.0,0.0,0.0,0.0,0.0,0.0,0.0,0.0,0.0,0.0,0.0,0.0,0.0,0.0,0.0,0.0,0.0,0.0,0.0,-0.4256,-0.4698,0.0,-0.5297,-0.5297,-0.5297,-0.5064,-0.4633,-0.4053,0.0,0.0,0.0,0.0,0.0,0.0,0.0,0.0,0.0,0.0,0.0,0.0,0.0,0.0,0.0,0.0,0.0,0.0,0.0,0.0,0.0,0.0,0.0,0.0,0.0,0.0,0.0,0.0,0.0,0.0,0.0,0.0,0.0,0.0,0.0,0.0,0.0,0.0,0.0,0.0,0.0,0.0,0.0,0.0,0.0,0.0,0.0,0.0,0.0,0.0,0.0,0.0,0.0,0.0,0.0,0.0,0.0,0.0,0.0,0.0,0.0,0.0,0.0,0.0,0.0,0.0,0.0,0.0,0.0,0.0,0.0,0.0,0.0,0.0,0.0,0.0,0.0,0.0,0.0,0.0,0.0,0.0,0.0,0.0,0.0,0.0,0.0,0.0,0.0,0.0,0.0,0.0,0.0,0.0,0.0,0.0,0.0,0.0,0.0,0.0,0.0,0.0,-0.4187,-0.4533,-0.4961,0.0,-0.5407,-0.5297,-0.5297,-0.5027,-0.4568,-0.3927,0.0,0.0,0.0,0.0,0.0,0.0,0.0,0.0,0.0,0.0,0.0,0.0,0.0,0.0,0.0,0.0,0.0,0.0,0.0,0.0,0.0,0.0,0.0,0.0,0.0,0.0,0.0,0.0,0.0,0.0,0.0,0.0,0.0,0.0,0.0,0.0,0.0,0.0,0.0,0.0,0.0,0.0,0.0,0.0,0.0,0.0,0.0,0.0,0.0,0.0,0.0,0.0,0.0,0.0,0.0,0.0,0.0,0.0,0.0,0.0,0.0,0.0,0.0,0.0,0.0,0.0,0.0,0.0,0.0,0.0,0.0,0.0,0.0,0.0,0.0,0.0,0.0,0.0,0.0,0.0,0.0,0.0,0.0,0.0,0.0,0.0,0.0,0.0,0.0,0.0,0.0,0.0,0.0,0.0,0.0,0.0,0.0,0.0,0.0,0.0,0.0,0.0,-0.4563,-0.5257,-0.5801,-0.6161,-0.5673,-0.5301,-0.5301,-0.4694,-0.4126,0.0,0.0,0.0,0.0,0.0,0.0,0.0,0.0,0.0,0.0,0.0,0.0,0.0,0.0,0.0,0.0,0.0,0.0,0.0,0.0,0.0,0.0,0.0,0.0,0.0,0.0,0.0,0.0,0.0,0.0,0.0,0.0,0.0,0.0,0.0,0.0,0.0,0.0,0.0,0.0,0.0,0.0,0.0,0.0,0.0,0.0,0.0,0.0,0.0,0.0,0.0,0.0,0.0,0.0,0.0,0.0,0.0,0.0,0.0,0.0,0.0,0.0,0.0,0.0,0.0,0.0,0.0,0.0,0.0,0.0,0.0,0.0,0.0,0.0,0.0,0.0,0.0,0.0,0.0,0.0,0.0,0.0,0.0,0.0,0.0,0.0,0.0,0.0,0.0,0.0,0.0,0.0,0.0,0.0,0.0,0.0,0.0,0.0,0.0,0.0,0.0,0.0,0.0,-0.3956,-0.4678,-0.5452,-0.6108,-0.6046,-0.5941,-0.5941,-0.5517,-0.4835,-0.3777,0.0,0.0,0.0,0.0,0.0,0.0,0.0,0.0,0.0,0.0,0.0,0.0,0.0,0.0,0.0,0.0,0.0,0.0,0.0,0.0,0.0,0.0,0.0,0.0,0.0,0.0,0.0,0.0,0.0,0.0,0.0,0.0,0.0,0.0,0.0,0.0,0.0,0.0,0.0,0.0,0.0,0.0,0.0,0.0,0.0,0.0,0.0,0.0,0.0,0.0,0.0,0.0,0.0,0.0,0.0,0.0,0.0,0.0,0.0,0.0,0.0,0.0,0.0,0.0,0.0,0.0,0.0,0.0,0.0,0.0,0.0,0.0,0.0,0.0,0.0,0.0,0.0,0.0,0.0,0.0,0.0,0.0,0.0,0.0,0.0,0.0,0.0,0.0,0.0,0.0,0.0,0.0,0.0,0.0,0.0,0.0,0.0,0.0,0.0,0.0,0.0,0.0,-0.4304,-0.5186,-0.5942,-0.623,-0.5996,-0.5832,-0.5832,-0.56,-0.4987,-0.3894,0.0,0.0,0.0,0.0,0.0,0.0,0.0,0.0,0.0,0.0,0.0,0.0,0.0,0.0,0.0,0.0,0.0,0.0,0.0,0.0,0.0,0.0,0.0,0.0,0.0,0.0,0.0,0.0,0.0,0.0,0.0,0.0,0.0,0.0,0.0,0.0,0.0,0.0,0.0,0.0,0.0,0.0,0.0,0.0,0.0,0.0,0.0,0.0,0.0,0.0,0.0,0.0,0.0,0.0,0.0,0.0,0.0,0.0,0.0,0.0,0.0,0.0,0.0,0.0,0.0,0.0,0.0,0.0,0.0,0.0,0.0,0.0,0.0,0.0,0.0,0.0,0.0,0.0,0.0,0.0,0.0,0.0,0.0,0.0,0.0,0.0,0.0,0.0,0.0,0.0,0.0,0.0,0.0,0.0,0.0,0.0,0.0,0.0,0.0,0.0,0.0,0.0,-0.5216,-0.6174,-0.6805,-0.6573,-0.5891,-0.5517,-0.5517,-0.5341,-0.4927,-0.4169,0.0,0.0,0.0,0.0,0.0,0.0,0.0,0.0,0.0,0.0,0.0,0.0,0.0,0.0,0.0,0.0,0.0,0.0,0.0,0.0,0.0,0.0,0.0,0.0,0.0,0.0,0.0,0.0,0.0,0.0,0.0,0.0,0.0,0.0,0.0,0.0,0.0,0.0,0.0,0.0,0.0,0.0,0.0,0.0,0.0,0.0,0.0,0.0,0.0,0.0,0.0,0.0,0.0,0.0,0.0,0.0,0.0,0.0,0.0,0.0,-0.5012,0.0,0.0,0.0,0.0,0.0,0.0,0.0,0.0,0.0,0.0,0.0,0.0,0.0,0.0,0.0,0.0,0.0,0.0,0.0,0.0,0.0,0.0,0.0,0.0,0.0,0.0,0.0,0.0,0.0,0.0,0.0,0.0,0.0,0.0,0.0,0.0,0.0,0.0,0.0,0.0,0.0,-0.5084,-0.5639,-0.6452,-0.7629,-0.723,-0.702,-0.7337,-0.6801,-0.6005,-0.4947,-0.4121,0.0,0.0,0.0,0.0,0.0,0.0,0.0,0.0,0.0,0.0,0.0,0.0,0.0,0.0,0.0,0.0,0.0,0.0,0.0,0.0,0.0,0.0,0.0,0.0,0.0,0.0,0.0,0.0,0.0,0.0,0.0,0.0,0.0,0.0,0.0,0.0,0.0,0.0,0.0,0.0,0.0,0.0,0.0,0.0,0.0,0.0,0.0,0.0,0.0,0.0,0.0,0.0,0.0,0.0,0.0,0.0,0.0,0.0,0.0,0.0,-0.5477,0.0,0.0,0.0,0.0,0.0,0.0,0.0,0.0,0.0,0.0,0.0,0.0,0.0,0.0,0.0,0.0,0.0,0.0,0.0,0.0,0.0,0.0,0.0,0.0,0.0,0.0,0.0,0.0,0.0,0.0,0.0,0.0,0.0,0.0,0.0,0.0,0.0,0.0,0.0,0.0,-0.5369,-0.5919,-0.6468,-0.7052,-0.6804,-0.6647,-0.6864,-0.6541,-0.5984,-0.5255,-0.4577,0.0,0.0,0.0,0.0,0.0,0.0,0.0,0.0,0.0,0.0,0.0,0.0,0.0,0.0,0.0,0.0,0.0,0.0,0.0,0.0,0.0,0.0,0.0,0.0,0.0,0.0,0.0,0.0,0.0,0.0,0.0,0.0,0.0,0.0,0.0,0.0,0.0,0.0,0.0,0.0,0.0,0.0,0.0,0.0,0.0,0.0,0.0,0.0,0.0,0.0,0.0,0.0,0.0,-0.95,-0.8344,-0.7612,-0.6627,-0.617,-0.6201,-0.6287,-0.6536,-0.686,-0.6839,0.0,0.0,0.0,0.0,0.0,0.0,0.0,0.0,0.0,0.0,0.0,0.0,0.0,0.0,0.0,0.0,0.0,0.0,0.0,0.0,0.0,0.0,0.0,0.0,-0.8193,-0.808,0.0,0.0,0.0,0.0,0.0,0.0,0.0,0.0,0.0,0.0,0.0,0.0,-0.6113,-0.6685,-0.6961,-0.6642,-0.6436,-0.6332,-0.6386,-0.6332,-0.6057,-0.567,-0.5195,-0.4737,0.0,0.0,0.0,0.0,0.0,0.0,0.0,0.0,0.0,0.0,0.0,0.0,0.0,0.0,0.0,0.0,0.0,0.0,0.0,0.0,0.0,0.0,0.0,0.0,0.0,0.0,0.0,0.0,0.0,0.0,0.0,0.0,-0.4615,-0.4907,0.0,0.0,0.0,0.0,0.0,0.0,0.0,0.0,0.0,0.0,0.0,0.0,0.0,-0.7047,-0.8592,-0.9257,-0.9702,-0.9885,-1.0726,-1.0285,-0.8677,-0.7281,-0.6682,-0.6769,-0.7943,0.0,-0.847,-0.8931,0.0,0.0,0.0,0.0,0.0,0.0,0.0,0.0,0.0,0.0,0.0,0.0,0.0,0.0,0.0,0.0,0.0,0.0,0.0,0.0,0.0,0.0,-0.9751,-1.0133,-1.0243,-1.0093,0.0,-0.8184,-0.6902,-0.6774,-0.6279,0.0,0.0,0.0,0.0,0.0,0.0,0.0,-0.7577,-0.7759,-0.8084,-0.8876,-0.8514,-0.8355,-0.8732,-0.8315,-0.7757,-0.6997,-0.6276,-0.5599,-0.4906,-0.428,0.0,0.0,0.0,0.0,0.0,0.0,0.0,0.0,0.0,0.0,0.0,0.0,0.0,0.0,0.0,0.0,0.0,0.0,0.0,0.0,0.0,0.0,0.0,0.0,0.0,0.0,0.0,0.0,0.0,-0.4597,-0.5183,-0.5304,-0.5543,-0.5432,0.0,0.0,0.0,0.0,0.0,0.0,0.0,0.0,0.0,-0.5662,-0.6544,-0.8221,-1.0689,-1.0711,-1.0711,-1.0711,-1.0916,-1.0389,-0.9229,-0.9414,-0.868,-0.7254,-0.7871,-0.8962,-1.0265,-0.9804,-0.9235,-0.8468,0.0,0.0,0.0,0.0,-0.4849,-0.6567,-0.8203,-0.9146,0.0,-0.9614,0.0,0.0,0.0,0.0,0.0,0.0,0.0,0.0,0.0,0.0,-1.0185,-1.0514,-1.0587,-1.055,-1.0404,-0.9664,-0.8808,0.0,-0.7495,-0.7022,-0.6305,0.0,0.0,0.0,0.0,-0.6993,-0.7548,-0.7488,-0.7509,-0.761,-0.7402,-0.73,-0.7509,-0.73,-0.6988,-0.6675,-0.6247,-0.5832,-0.5543,-0.486,-0.4401,0.0,0.0,0.0,0.0,0.0,0.0,0.0,0.0,0.0,0.0,0.0,0.0,0.0,0.0,0.0,0.0,0.0,0.0,0.0,0.0,0.0,0.0,0.0,0.0,0.0,0.0,0.0,0.0,-0.5387,-0.5839,-0.5912,-0.6385,-0.6346,0.0,0.0,0.0,0.0,0.0,0.0,-0.7061,-0.7374,-0.7691,-0.799,-0.7838,-0.8943,-1.1545,-1.1622,-1.1792,-1.205,-1.073,-0.9849,-0.9321,-1.0381,-0.9716,-0.7841,-0.8648,-1.0182,-1.1955,-1.0653,-1.0111,-1.0068,-0.9599,-0.7922,-0.5734,-0.5734,-0.7583,-1.0111,-1.0111,-1.0111,-1.0111,-1.0111,-1.0294,-1.0236,-0.8765,0.0,0.0,0.0,0.0,-0.9665,-1.0207,-1.0346,-1.0433,-1.0755,-1.0836,-1.0836,-1.0836,-1.077,-1.0404,0.0,-0.8801,-0.833,-0.7452,0.0,0.0,0.0,0.0,-0.7544,-0.7835,-0.781,-0.7509,-0.6923,-0.6869,-0.6815,-0.6657,-0.6657,-0.6549,-0.6445,-0.6289,-0.6144,-0.5991,-0.5394,-0.4955,-0.474,0.0,0.0,0.0,0.0,0.0,0.0,0.0,0.0,0.0,0.0,0.0,0.0,0.0,0.0,0.0,0.0,0.0,0.0,0.0,0.0,0.0,0.0,0.0,0.0,0.0,0.0,0.0,0.0,0.0,-0.7064,-0.7699,0.0,0.0,0.0,0.0,-0.709,-0.7287,-0.7461,-0.7533,-0.8183,-0.9061,-1.0207,-0.9332,-0.9702,-1.1553,-1.1622,-1.2182,-1.3397,-1.0244,-0.8769,-0.8713,-0.8788,-0.8788,-0.8788,-1.1832,-1.3252,-1.3301,-1.1999,-1.1527,-1.152,-1.149,-1.1355,-1.1207,-1.1207,-1.1348,-1.1527,-1.1527,-1.1527,-1.1527,-1.1527,-1.0983,-1.0243,-1.0038,-0.998,0.0,0.0,-1.025,-1.0594,-1.0938,-1.1026,-1.1106,-1.1497,-1.1578,-1.1578,-1.1578,-1.1328,-1.0938,0.0,-1.0228,-0.9892,-0.9533,0.0,-0.8889,-0.9072,-0.8989,-0.9019,-0.9445,-0.9503,-0.9242,-0.8718,-0.8672,-0.8455,-0.7871,-0.7818,-0.761,-0.7085,-0.7074,-0.6799,-0.6213,-0.5987,-0.5616,-0.5167,-0.4554,0.0,0.0,0.0,0.0,0.0,0.0,0.0,0.0,0.0,0.0,0.0,0.0,0.0,0.0,0.0,0.0,0.0,0.0,0.0,0.0,0.0,0.0,0.0,0.0,0.0,0.0,0.0,0.0,-0.7697,-0.8533,0.0,0.0,-0.8442,-0.8933,-0.8642,-0.9136,-0.9681,-1.0154,-1.0375,-1.0828,-1.1553,-1.136,-1.1354,-1.163,-1.2387,-1.3038,-1.3492,-1.2365,-1.1768,-1.1768,-1.1768,-1.1768,-1.1842,-1.2973,-1.3492,-1.3455,-1.2994,-1.2804,-1.2804,-1.2804,-1.2804,-1.2804,-1.2804,-1.2804,-1.2804,-1.2804,-1.2533,-1.216,-1.2021,-1.1582,-1.1152,-1.1055,-1.1187,-1.1348,-1.1348,-1.1582,-1.186,-1.1977,-1.2006,-1.2036,-1.2153,-1.2021,-1.1867,-1.1867,-1.1611,-1.1417,-1.1299,-1.0785,-1.0309,-0.998,-1.0009,-0.9955,-0.9804,-0.9943,-0.9875,-0.9451,-0.939,-0.9092,-0.8315,-0.7931,-0.7771,-0.7871,-0.7557,-0.7295,-0.7139,-0.6987,-0.6639,-0.6024,-0.5694,-0.5439,-0.5287,-0.4678,-0.4084,0.0,0.0,0.0,0.0,0.0,0.0,0.0,0.0,0.0,0.0,0.0,0.0,0.0,0.0,0.0,0.0,0.0,0.0,0.0,0.0,0.0,0.0,0.0,0.0,0.0,0.0,-0.822,-0.8406,-0.9336,-0.9599,-0.8664,-0.9719,-1.0364,-1.0186,-1.0718,-1.125,-1.1525,-1.1754,-1.1913,-1.1992,-1.228,-1.2423,-1.2211,-1.3067,-1.3492,-1.3492,-1.3492,-1.3492,-1.3492,-1.3492,-1.3733,-1.415,-1.415,-1.4062,-1.3931,-1.3931,-1.3887,-1.3806,-1.3579,-1.3492,-1.3492,-1.3492,-1.3404,-1.3265,-1.3192,-1.2884,-1.2497,-1.2358,-1.2116,-1.1882,-1.1882,-1.2028,-1.2197,-1.2197,-1.2358,-1.2519,-1.2519,-1.2519,-1.2519,-1.2519,-1.2358,-1.2197,-1.2197,-1.1948,-1.1721,-1.1721,-1.1282,-1.0814,-1.0485,-1.0609,-1.0638,-1.0316,-1.0448,-1.0393,-0.9792,-0.9508,-0.8974,-0.8136,-0.7501,-0.7133,-0.7295,-0.7025,-0.682,-0.682,-0.667,-0.6395,-0.5911,-0.5642,-0.5429,-0.5287,-0.479,-0.4328,-0.4049,0.0,0.0,0.0,0.0,0.0,0.0,0.0,0.0,0.0,0.0,0.0,0.0,0.0,0.0,0.0,0.0,0.0,0.0,0.0,0.0,0.0,0.0,0.0,-0.7708,-0.8543,-0.9204,-0.9219,-1.0046,-1.0492,-1.0177,-1.0741,-1.1253,-1.163,-1.1875,-1.1852,-1.1539,-1.2187,-1.2218,-1.1563,-1.2178,-1.287,-1.3492,-1.3492,-1.3492,-1.3492,-1.3492,-1.3514,-1.3558,-1.3558,-1.4238,-1.5431,-1.5416,-1.5174,-1.4787,-1.4779,-1.4662,-1.4414,-1.3748,-1.3492,-1.3492,-1.3492,-1.3228,-1.2764,-1.2628,-1.2548,-1.2548,-1.2548,-1.2548,-1.2548,-1.2548,-1.2548,-1.2548,-1.2548,-1.2548,-1.2548,-1.2548,-1.2548,-1.2548,-1.2548,-1.2548,-1.2541,-1.2541,-1.2284,-1.205,-1.205,-1.1794,-1.1534,-1.115,-1.1092,-1.0982,-1.0667,-1.0616,0.0,-1.0602,-0.9876,-0.9128,-0.8509,-0.7669,-0.6885,-0.6296,-0.6232,-0.6232,-0.6232,-0.6228,-0.6124,-0.5916,-0.5902,-0.5708,-0.5306,-0.4928,-0.4714,-0.4714,0.0,0.0,0.0,0.0,0.0,0.0,0.0,0.0,0.0,0.0,0.0,0.0,0.0,0.0,0.0,0.0,0.0,0.0,0.0,0.0,0.0,0.0,-0.8875,-0.878,-0.9387,-0.9936,-1.017,-1.085,-1.1321,-1.1225,-1.1743,-1.216,-1.2248,-1.2343,-1.2458,-1.257,-1.2731,-1.2868,-1.2934,-1.3411,-1.3631,-1.3492,-1.3492,-1.3492,-1.3492,-1.3492,-1.3989,-1.4896,-1.4896,-1.5094,-1.5416,-1.5101,-1.4896,-1.4779,-1.4618,-1.4611,-1.4618,-1.3814,-1.3492,-1.3492,-1.3492,-1.3418,-1.3309,-1.325,-1.3228,-1.3228,-1.3228,-1.3228,-1.3228,-1.3228,-1.3228,-1.3228,-1.3228,-1.3228,-1.3228,-1.3228,-1.3228,-1.3228,-1.3228,-1.3045,-1.2877,-1.2877,-1.2621,-1.2387,-1.2387,-1.2123,-1.1802,-1.148,-1.149,-1.1461,-1.1365,-1.1358,0.0,-1.0975,-1.0748,-1.0247,-0.9336,-0.8546,-0.7944,-0.7672,-0.7182,-0.6869,-0.6869,-0.6707,-0.6431,-0.5911,-0.5769,-0.5637,-0.5524,-0.5112,-0.49,0.0,0.0,0.0,0.0,0.0,0.0,0.0,0.0,0.0,0.0,0.0,0.0,0.0,0.0,0.0,0.0,0.0,0.0,0.0,0.0,0.0,0.0,-0.938,-1.0016,-1.021,-1.0368,-1.0631,-1.096,-1.145,-1.1816,-1.1948,-1.2423,-1.2723,-1.2723,-1.2848,-1.3075,-1.3397,-1.3418,-1.3521,-1.3755,-1.4004,-1.4187,-1.4304,-1.4304,-1.4304,-1.4304,-1.4304,-1.4699,-1.5431,-1.5431,-1.5431,0.0,-1.5167,-1.5057,-1.505,-1.4918,-1.4948,0.0,0.0,0.0,0.0,0.0,-1.3901,-1.3887,-1.3748,-1.3697,-1.3675,-1.3543,-1.3492,-1.3492,-1.3492,-1.3492,-1.3492,-1.3492,-1.3492,-1.3492,-1.3492,-1.3492,-1.3492,-1.3492,-1.3353,-1.3214,-1.3214,-1.2958,-1.2723,-1.2723,-1.246,0.0,-1.1816,-1.1648,-1.1622,-1.1622,-1.1622,-1.1556,-1.1304,-1.097,-1.052,-0.9926,-0.9118,-0.845,-0.801,-0.7533,0.0,0.0,0.0,-0.6363,-0.5911,-0.5717,0.0,0.0,0.0,0.0,0.0,0.0,0.0,0.0,-0.4947,-0.4867,0.0,0.0,0.0,0.0,0.0,0.0,0.0,0.0,0.0,0.0,0.0,0.0,0.0,0.0,0.0,0.0,-1.0368,-1.1253,-1.1681,-1.1421,-1.1348,-1.1703,-1.1948,-1.2255,-1.2548,-1.287,-1.3075,-1.3111,-1.3389,-1.3697,-1.4018,0.0,0.0,0.0,0.0,-1.4589,-1.535,-1.5409,-1.5431,-1.5431,-1.5431,-1.5431,-1.5431,-1.5431,-1.5431,-1.5431,-1.5431,-1.5431,-1.5431,-1.5431,-1.5431,-1.5372,-1.4757,-1.4618,-1.4728,-1.4538,-1.4472,-1.4428,-1.4136,0.0,0.0,-1.3697,-1.3601,-1.3594,-1.3558,-1.355,-1.3543,-1.3506,-1.3492,-1.3492,-1.3492,-1.3492,-1.3492,-1.3492,-1.3492,-1.3492,-1.3492,-1.3265,-1.3067,-1.3067,-1.2804,-1.2482,-1.2189,-1.1853,-1.1604,-1.163,-1.1622,-1.1622,-1.1622,-1.0868,-1.0329,-1.0269,0.0,0.0,-0.7875,-0.7694,-0.7242,-0.6385,-0.6242,-0.6143,-0.5954,-0.5774,-0.5765,-0.5939,-0.5944,-0.6039,-0.6178,-0.6178,-0.6178,-0.6154,-0.5278,-0.5155,0.0,0.0,0.0,0.0,0.0,0.0,0.0,0.0,0.0,0.0,0.0,0.0,0.0,0.0,0.0,-1.0528,-1.1196,-1.167,-1.2255,-1.2277,-1.2262,-1.2328,-1.2621,-1.2848,-1.2906,-1.3214,-1.3514,-1.3777,-1.385,-1.4033,-1.4355,-1.4377,-1.4384,-1.4399,-1.4648,-1.4831,-1.4911,-1.5255,-1.5431,-1.5431,0.0,0.0,-1.5431,-1.5431,-1.5431,-1.5431,-1.5431,-1.5431,-1.5431,-1.5431,-1.5431,-1.5387,-1.4999,-1.4721,-1.4523,-1.4487,-1.4472,-1.4457,-1.4399,-1.4377,-1.4362,-1.4304,-1.4282,-1.4231,-1.3967,-1.3887,0.0,-1.3572,-1.3492,-1.3492,-1.3492,-1.3492,-1.3492,-1.3492,-1.3492,-1.3492,-1.3492,-1.3448,-1.3404,-1.3404,-1.314,-1.2892,-1.2833,-1.2336,-1.186,-1.1604,-1.1622,-1.1622,-1.1622,-1.1439,-1.1085,-1.0524,-1.0133,-0.968,-0.8963,-0.8114,-0.7531,-0.7319,-0.6593,-0.6159,-0.6117,-0.6133,-0.6075,-0.6117,-0.6117,-0.6136,-0.6178,-0.6178,-0.6178,-0.6173,-0.6024,-0.6081,0.0,0.0,0.0,0.0,0.0,0.0,0.0,0.0,0.0,0.0,0.0,-0.8619,0.0,0.0,-1.0631,-1.1428,-1.1831,-1.2211,-1.2694,-1.2767,-1.2767,-1.2767,-1.2914,-1.3075,-1.3236,-1.355,-1.3806,-1.3967,-1.4136,-1.4362,-1.4692,-1.4706,-1.4779,-1.4948,-1.5101,-1.516,-1.5109,-1.5321,-1.5431,-1.5431,-1.5431,-1.5431,-1.5431,-1.5431,-1.5431,-1.5431,-1.5431,-1.5431,-1.5431,-1.5431,-1.5431,-1.5409,-1.5323,-1.5161,-1.4948,-1.4948,-1.4948,-1.4926,-1.4765,-1.4706,-1.4677,-1.4665,-1.4613,-1.4662,-1.4575,-1.4403,-1.4238,-1.4074,-1.3902,-1.3775,-1.3775,-1.371,-1.3717,-1.3783,-1.3637,-1.3499,-1.3645,-1.3572,-1.3492,-1.3492,-1.3367,-1.3199,-1.3038,-1.2738,-1.2358,-1.1867,-1.1663,-1.1622,-1.1622,-1.1622,-1.131,-1.0548,-1.0414,-0.9891,-0.8825,-0.7704,-0.7043,-0.7043,-0.6507,-0.6178,-0.6178,-0.6178,-0.6178,-0.6178,-0.6178,-0.6225,-0.6323,-0.6323,-0.6379,-0.6487,-0.6487,-0.6482,0.0,0.0,0.0,0.0,0.0,0.0,0.0,0.0,-0.8282,-0.9007,-0.9548,-1.0097,-1.0748,-1.1297,-1.178,-1.216,-1.2445,-1.2731,-1.306,-1.3104,-1.3104,-1.3104,-1.3104,-1.3206,-1.347,-1.3792,-1.4004,-1.407,-1.4377,-1.4699,-1.5021,-1.5035,-1.516,-1.5423,-1.5431,-1.5431,-1.5431,-1.5431,-1.5431,-1.5431,-1.5431,-1.5431,-1.5431,-1.5431,-1.5431,-1.5431,-1.5431,-1.5431,-1.5423,-1.5423,-1.5506,-1.5506,-1.5741,-1.5665,-1.5514,-1.5514,-1.5506,-1.547,-1.5205,-1.5117,-1.5153,-1.5038,-1.5027,-1.5098,-1.5194,-1.4981,-1.4736,-1.4607,-1.4444,-1.4214,-1.4145,-1.3992,-1.3928,-1.4065,-1.3848,-1.3637,-1.379,-1.3717,-1.3572,-1.3572,-1.3499,-1.3411,-1.3148,-1.3045,-1.2782,-1.2131,-1.1816,-1.1633,-1.163,-1.1622,-1.1373,-1.08,-1.0611,-0.9863,-0.8353,-0.7379,-0.675,-0.6596,-0.6384,-0.63,-0.63,-0.63,-0.63,-0.63,-0.63,-0.6374,-0.6534,-0.6534,-0.6623,-0.6791,-0.6833,-0.6818,-0.6644,-0.66,0.0,-0.7814,-0.7821,-0.8063,0.0,0.0,-0.9665,-1.0609,-1.0865,-1.1106,-1.175,-1.1933,-1.2182,-1.2797,-1.2928,-1.3067,-1.3397,-1.344,-1.344,-1.344,-1.344,-1.3455,-1.3492,-1.3792,-1.4106,-1.4392,-1.4706,-1.5035,-1.5357,-1.5372,-1.5394,-1.5431,-1.5431,-1.5431,-1.5431,-1.5431,-1.5431,-1.5431,-1.5431,-1.5431,-1.5431,-1.5431,-1.5431,-1.5431,-1.5431,-1.5499,-1.565,-1.565,-1.5831,-1.6004,-1.6087,-1.6004,-1.6004,-1.6004,-1.5831,-1.5733,-1.5876,-1.5951,-1.5944,-1.5988,-1.5973,-1.5919,-1.5614,-1.5499,-1.5339,-1.4736,-1.4538,-1.4513,-1.4214,-1.4057,-1.4057,-1.4057,-1.4057,-1.4057,-1.4057,-1.3928,-1.379,-1.379,-1.3645,-1.3484,-1.3448,-1.3199,-1.2782,-1.2131,-1.1999,-1.1882,-1.1659,-1.1622,-1.156,-1.1498,-1.0863,-0.9863,-0.8353,-0.8097,-0.768,-0.6828,-0.6735,-0.6726,-0.6726,-0.6726,-0.6726,-0.6726,-0.6726,-0.6735,-0.6759,-0.6759,-0.6768,-0.6796,-0.704,-0.7173,-0.8092,0.0,0.0,0.0,-0.9629,-0.9929,-1.0931,-1.1085,-1.1143,-1.1553,-1.1787,-1.2058,-1.2519,-1.2599,-1.2753,0.0,-1.3294,-1.3338,-1.3477,-1.3492,-1.3492,-1.3492,-1.3492,-1.3492,-1.3492,-1.396,-1.4326,-1.4457,-1.494,-1.5284,-1.5423,-1.5431,-1.5431,-1.5431,-1.5431,-1.5431,-1.5431,-1.5431,-1.5431,-1.5431,-1.5431,-1.5431,-1.5431,-1.5431,-1.5431,-1.5431,-1.5499,-1.5658,-1.5733,-1.5914,-1.6004,-1.6087,-1.6245,-1.6162,-1.6087,-1.6087,-1.6004,-1.5914,-1.6087,-1.6087,-1.6087,-1.6245,-1.6237,-1.6296,-1.6238,-1.6132,-1.5913,-1.5615,-1.5255,-1.4918,-1.477,-1.4509,-1.4281,-1.4346,-1.4274,-1.4129,-1.4281,-1.4137,-1.3928,-1.379,-1.3855,-1.3775,-1.3717,-1.367,-1.3409,-1.2877,-1.2343,-1.1984,-1.1853,-1.1677,-1.1303,-1.0478,-0.939,-0.8516,-0.785,-0.7661,-0.7432,-0.7036,-0.6857,-0.6791,-0.6791,-0.6791,-0.6791,-0.6791,-0.6791,-0.6852,-0.7031,-0.7031,-0.7092,-0.7206,-0.7291,-0.7397,-0.9043,0.0,0.0,-1.058,-1.1033,-1.1421,-1.175,-1.2006,-1.2167,-1.2167,-1.2358,-1.2592,-1.2833,-1.295,0.0,-1.3323,-1.3514,-1.3594,-1.3506,-1.3572,-1.3594,-1.3506,-1.3492,-1.3492,-1.3492,-1.4004,-1.437,-1.4457,-1.4984,-1.5335,-1.5423,-1.5431,-1.5431,-1.5431,-1.5431,-1.5431,-1.5431,-1.5431,-1.5431,-1.5431,-1.5431,-1.5423,-1.5506,-1.5597,-1.5641,-1.5723,-1.5786,-1.5876,-1.6035,-1.6118,-1.6245,-1.6252,-1.6402,-1.6402,-1.6252,-1.6252,-1.6252,-1.6162,-1.6252,-1.6252,-1.6327,-1.6402,-1.6476,-1.6476,-1.6648,-1.6555,-1.6333,-1.623,-1.5848,-1.5427,-1.5237,-1.4917,-1.4623,-1.4593,-1.4418,-1.4274,-1.4425,-1.4281,-1.4137,-1.4008,-1.4065,-1.4057,-1.3928,-1.3992,-1.3981,-1.3469,-1.2802,-1.2241,-1.2058,-1.1567,-1.0856,-0.9646,-0.849,-0.7717,-0.7526,-0.7388,-0.7302,-0.7302,-0.7102,-0.7021,-0.7021,-0.7021,-0.7021,-0.7021,-0.7021,-0.7092,-0.7302,-0.7302,-0.7378,-0.7521,-0.7521,-0.7555,0.0,0.0,-1.0638,-1.0975,-1.1531,-1.2094,-1.2416,-1.2504,-1.2504,-1.2504,-1.2511,-1.2526,-1.2533,-1.2797,-1.3009,-1.3023,-1.3558,-1.3857,-1.3543,-1.377,-1.385,-1.3536,-1.3492,-1.3492,0.0,-1.3799,-1.4128,-1.4443,-1.4772,-1.5094,-1.5416,-1.5431,-1.5431,-1.5431,-1.5431,-1.5431,-1.5431,-1.5431,-1.5431,-1.5431,-1.5431,-1.5499,-1.5733,-1.5997,-1.627,-1.6568,-1.6232,-1.6346,-1.6869,-1.6534,-1.6484,-1.6656,-1.6648,-1.6656,-1.6656,-1.6656,-1.6566,-1.6394,-1.6648,-1.6656,-1.6656,-1.6648,-1.6648,-1.6648,-1.673,-1.6722,-1.6643,-1.6301,-1.619,-1.6023,-1.5356,-1.5173,-1.5078,-1.4728,-1.4569,-1.4569,-1.4569,-1.4497,-1.4353,-1.4361,-1.4209,-1.4129,-1.4057,-1.4129,-1.4065,-1.3855,-1.3484,-1.2959,-1.2116,-1.1113,-1.0295,-0.9582,-0.8877,-0.8231,-0.7587,-0.7517,-0.7512,-0.7512,-0.7507,-0.7507,-0.7507,-0.7507,-0.7507,-0.7507,-0.7507,-0.7507,-0.7512,-0.7512,-0.7517,-0.7521,-0.7521,-0.7636,0.0,0.0,-1.1363,-1.1897,-1.2365,-1.2767,-1.3238,-1.3212,-1.3056,-1.3125,-1.2833,-1.2525,-1.2525,-1.2491,-1.2572,-1.2779,-1.33,-1.3623,-1.3514,-1.396,-1.4182,-1.3784,-1.3911,0.0,0.0,0.0,0.0,-1.4443,-1.4765,-1.5087,-1.5416,-1.5431,-1.5431,-1.5431,-1.5431,-1.5423,-1.5575,-1.5575,-1.5665,-1.5839,-1.5839,-1.6042,-1.6323,-1.6186,-1.6392,-1.6881,-1.6484,-1.6513,-1.6884,-1.6708,-1.6648,-1.673,-1.673,-1.673,-1.673,-1.673,-1.6648,-1.6648,-1.6656,-1.673,-1.673,-1.673,-1.673,-1.673,-1.673,-1.673,-1.6706,-1.6587,-1.6389,-1.615,-1.592,-1.5523,-1.5157,-1.503,-1.4816,-1.4569,-1.4569,-1.4569,-1.4497,-1.4425,-1.4425,-1.4425,-1.4281,-1.4353,-1.4346,-1.4065,-1.3499,-1.2844,-1.2116,-1.0954,-0.9978,-0.9536,-0.849,-0.7717,-0.7521,-0.7521,-0.7521,-0.7521,-0.7521,-0.7521,-0.7521,-0.7521,-0.7521,-0.7521,-0.7521,-0.7521,-0.7521,-0.7521,-0.7521,-0.7526,-0.7603,-0.7711,0.0,-1.1721,-1.223,-1.2773,-1.3152,-1.342,-1.3667,-1.3525,-1.3262,-1.3036,-1.2611,-1.2239,-1.2003,-1.1932,-1.2093,-1.2534,-1.3127,-1.3609,-1.3866,-1.4377,-1.4669,-1.4283,-1.4479,0.0,0.0,0.0,0.0,-1.4769,-1.4983,-1.5323,-1.5658,-1.5673,-1.5673,-1.5673,-1.5673,-1.5725,-1.6004,-1.6004,-1.6148,-1.6438,-1.653,-1.673,-1.6938,-1.6792,-1.6993,-1.7489,-1.7094,-1.7054,-1.7235,-1.6988,-1.6849,-1.673,-1.673,-1.673,-1.673,-1.673,-1.673,-1.673,-1.673,-1.673,-1.673,-1.673,-1.673,-1.673,-1.673,-1.673,-1.673,-1.673,-1.6571,-1.6365,-1.6238,-1.5785,-1.5332,-1.5213,-1.4911,-1.4569,-1.4569,-1.4569,-1.4569,-1.4497,-1.4569,-1.4569,-1.4497,-1.4497,-1.4497,-1.4209,-1.3731,-1.312,-1.2453,-1.1061,-1.0019,-0.9687,-0.8422,-0.7607,-0.7531,-0.7521,-0.7521,-0.7521,-0.7521,-0.7521,-0.7521,-0.7521,-0.7521,-0.7521,-0.7521,-0.7521,-0.7521,-0.7521,-0.7564,-0.7645,-0.7716,-0.7858,-1.1989,-1.2664,-1.3187,-1.3523,-1.3821,-1.395,-1.3567,-1.3461,-1.3142,-1.2226,-1.1981,-1.1745,0.0,0.0,-1.1533,-1.233,-1.3041,-1.3748,-1.4515,-1.5008,-1.531,0.0,0.0,0.0,0.0,0.0,0.0,-1.5335,0.0,-1.5728,-1.6072,-1.6087,-1.6095,-1.6118,-1.6118,-1.6278,-1.6621,-1.6621,-1.686,-1.7159,-1.735,-1.7541,-1.7556,-1.77,-1.7969,-1.8303,-1.793,-1.7779,-1.7771,-1.7421,-1.7072,-1.6762,-1.6746,-1.673,-1.673,-1.673,-1.673,-1.673,-1.673,-1.673,-1.673,-1.673,-1.673,-1.673,-1.673,-1.673,-1.673,-1.673,-1.673,-1.6659,-1.6317,-1.5968,-1.5626,-1.5308,-1.4943,-1.4593,-1.4593,-1.4585,-1.4569,-1.4569,-1.4569,-1.4569,-1.4569,-1.4497,-1.4433,-1.4425,-1.4209,-1.3871,-1.3116,-1.1464,-1.0218,-1.0013,-0.8648,-0.7692,-0.754,-0.7521,-0.7521,-0.7521,-0.7521,-0.7521,-0.7521,-0.7521,-0.7521,-0.7521,-0.7521,-0.7526,-0.754,-0.754,-0.765,-0.7796,-0.7806,-0.8023,-1.2825,-1.3201,-1.3538,-1.3859,-1.3813,-1.3676,-1.3716,-1.3107,-1.2484,-1.2077,-1.1422,-1.0753,-1.0261,0.0,0.0,-1.1804,-1.3073,0.0,-1.4515,-1.537,0.0,0.0,0.0,-1.5699,-1.5699,-1.5842,0.0,0.0,-1.5794,-1.5728,-1.6072,-1.6087,-1.6202,-1.6461,-1.6469,-1.6714,-1.7226,-1.7392,-1.751,-1.7597,-1.7684,-1.7826,-1.8071,-1.789,-1.8112,-1.8661,-1.8041,-1.7922,-1.812,-1.7525,-1.7223,-1.7111,-1.6841,-1.673,-1.673,-1.673,-1.673,-1.673,-1.673,-1.673,-1.673,-1.673,-1.673,-1.673,-1.673,-1.673,-1.673,-1.673,-1.673,-1.6714,-1.6619,-1.6333,-1.6047,-1.5968,-1.5483,-1.5046,-1.5046,-1.4832,-1.4569,-1.4569,-1.4569,-1.4569,-1.4569,-1.4569,-1.4497,-1.4425,-1.4353,-1.4094,-1.3334,-1.1861,-1.0703,-1.0031,-0.8648,-0.7692,-0.754,-0.7521,-0.7521,-0.7521,-0.7521,-0.7521,-0.7521,-0.7521,-0.7521,-0.7521,-0.7521,-0.7602,-0.7697,-0.7697,-0.7801,-0.8009,-0.817,-0.8302,-1.3478,-1.3808,-1.4049,-1.4307,-1.4026,-1.3654,-1.333,-1.2727,-1.1964,-1.1209,-1.0637,0.0,0.0,0.0,0.0,0.0,0.0,0.0,-1.4758,-1.556,-1.6025,0.0,-1.6173,0.0,-1.6511,-1.6601,-1.6735,0.0,-1.6625,-1.6441,-1.6635,-1.6783,-1.6947,-1.7141,-1.7149,-1.74,-1.7833,-1.8071,-1.8232,-1.8232,-1.8232,-1.8343,-1.8526,-1.8327,-1.8454,-1.8804,0.0,-1.8168,-1.8041,-1.7652,-1.731,-1.7016,-1.6818,-1.673,-1.673,-1.673,-1.673,-1.673,-1.673,-1.673,-1.673,-1.673,-1.673,-1.673,-1.673,-1.673,-1.673,-1.673,-1.673,-1.673,-1.673,-1.6468,-1.6206,-1.6206,-1.5793,-1.5364,-1.5213,-1.5022,-1.4832,-1.4601,-1.4569,-1.4569,-1.4569,-1.4569,-1.4569,-1.4497,-1.4497,-1.4283,-1.3813,-1.2411,-1.1293,-1.0786,-0.9436,-0.8513,-0.829,-0.814,-0.7966,-0.7935,-0.7731,-0.7621,-0.7526,-0.7617,-0.7621,-0.7526,-0.7617,-0.7659,-0.7782,-0.7782,-0.7933,-0.8222,-0.8344,-0.8448,-1.4069,-1.4411,-1.4553,-1.4514,-1.4268,-1.3719,-1.2718,-1.2099,-1.1368,-1.0057,0.0,0.0,-0.8874,0.0,-0.9956,-1.0875,0.0,-1.3161,-1.4982,-1.5591,-1.6061,-1.6609,-1.673,-1.6857,-1.7175,-1.7207,-1.7326,-1.7612,-1.7413,-1.7294,-1.7342,-1.7612,-1.7795,-1.7842,-1.7882,-1.8057,-1.8367,-1.8676,-1.8827,-1.8827,-1.8827,-1.8804,-1.8756,-1.8804,-1.8804,-1.8756,-1.8756,0.0,-1.7834,-1.7747,-1.735,-1.6802,-1.6754,-1.673,-1.673,-1.673,-1.673,-1.673,-1.673,-1.673,-1.673,-1.673,-1.673,-1.673,-1.673,-1.673,-1.673,-1.673,-1.673,-1.673,-1.673,-1.6508,-1.6277,-1.6277,-1.5999,-1.5666,-1.538,-1.5245,-1.5078,-1.4712,-1.4569,-1.4569,-1.4569,-1.4569,-1.4569,-1.4569,-1.4569,-1.4569,-1.4425,-1.3105,-1.2038,-1.1735,-1.0485,-0.9603,-0.9303,-0.8936,-0.8643,-0.8507,-0.8157,-0.7875,-0.7683,-0.7856,-0.787,-0.7612,-0.7793,-0.7903,-0.7862,-0.7862,-0.8061,-0.8444,-0.8444,-0.8533,-1.4371,-1.4593,-1.4498,-1.4275,-1.3727,-1.3068,-1.2289,-1.1169,0.0,0.0,0.0,-0.8119,-0.8,-0.8783,0.0,-1.0836,0.0,0.0,0.0,0.0,-1.5929,0.0,0.0,0.0,0.0,0.0,0.0,0.0,0.0,-1.7397,-1.7676,-1.7739,-1.7906,-1.82,-1.8494,-1.8676,-1.8732,-1.8796,-1.8827,-1.8827,-1.8827,-1.8676,-1.8398,-1.8692,-1.8669,-1.839,-1.839,0.0,-1.816,-1.7596,-1.7294,-1.7159,-1.6849,-1.673,-1.673,-1.673,-1.673,-1.673,-1.673,-1.673,-1.673,-1.673,-1.673,-1.673,-1.673,-1.673,-1.673,-1.673,-1.673,-1.673,-1.673,-1.669,-1.6643,-1.6643,-1.6373,-1.6103,-1.6039,-1.5586,-1.5078,-1.4712,-1.4569,-1.4569,-1.4569,-1.4569,-1.4569,-1.4569,-1.4569,-1.4569,-1.4569,-1.3608,-1.268,-1.1806,-1.0916,-1.0027,-0.9368,-0.8936,-0.885,-0.9152,-0.8739,-0.8514,-0.8473,-0.8852,-0.8713,-0.8041,-0.8364,-0.8477,-0.8297,-0.8297,-0.8415,-0.8647,-0.8647,-0.867,-1.4686,-1.4711,-1.4482,-1.4196,-1.36,-1.2814,-1.1733,0.0,0.0,0.0,0.0,-0.7555,-0.7555,0.0,0.0,0.0,0.0,0.0,0.0,0.0,0.0,0.0,0.0,0.0,0.0,0.0,0.0,0.0,0.0,-1.7525,-1.7517,-1.7676,-1.785,-1.8017,-1.8192,-1.8279,-1.8279,-1.8279,-1.8279,-1.8279,-1.8279,-1.8192,-1.8033,-1.82,-1.8184,-1.8025,-1.8025,0.0,-1.7747,-1.7413,-1.7167,-1.6976,-1.6802,-1.673,-1.673,-1.673,-1.673,-1.673,-1.673,-1.673,-1.673,-1.673,-1.673,-1.673,-1.673,-1.673,-1.673,-1.673,-1.673,-1.673,-1.673,-1.673,-1.673,-1.673,-1.6468,-1.6206,-1.6206,-1.5666,-1.5133,-1.4959,-1.4768,-1.4569,-1.4569,-1.4569,-1.4569,-1.4569,-1.4569,-1.4569,-1.4569,-1.4194,-1.3621,-1.2885,-1.186,-1.1155,-1.0743,-1.0086,-0.9674,-0.9762,-0.9394,-0.9127,-0.9011,-0.933,-0.9259,-0.872,-0.8832,-0.8804,-0.869,-0.8475,-0.8505,-0.8703,-0.8703,-0.8703,-1.5061,-1.4927,-1.4442,-1.4292,-1.3613,-1.2607,-1.1201,-1.0002,0.0,0.0,0.0,-0.7126,-0.7277,0.0,0.0,0.0,0.0,0.0,0.0,0.0,0.0,0.0,0.0,0.0,0.0,0.0,0.0,0.0,0.0,0.0,-1.739,-1.7636,-1.7771,-1.7771,-1.7771,-1.7771,-1.7771,-1.7771,-1.7771,-1.7771,-1.7771,-1.7731,-1.7668,-1.7739,-1.7731,-1.766,-1.766,0.0,0.0,-1.7191,-1.6992,-1.673,-1.673,-1.673,-1.673,-1.673,-1.673,-1.673,-1.673,-1.673,-1.673,-1.673,-1.673,-1.673,-1.673,-1.673,-1.673,-1.673,-1.673,-1.673,-1.673,-1.673,-1.673,-1.673,-1.6524,-1.6277,-1.6126,-1.5666,-1.5245,-1.5102,-1.4839,-1.4569,-1.4569,-1.4569,-1.4569,-1.4569,-1.4569,-1.4569,-1.4569,-1.4569,-1.4418,-1.4049,-1.3025,-1.2298,-1.2003,-1.1186,-1.0582,-1.0391,-1.0003,-0.9696,-0.9581,-0.9824,-0.9763,-0.9439,-0.9322,-0.9269,-0.9054,-0.8763,-0.8697,-0.8856,-0.878,-0.878,-1.5503,-1.5146,-1.4215,-1.4588,-1.3636,-1.2302,-1.0889,0.0,0.0,0.0,-0.6832,-0.6562,-0.7189,0.0,0.0,0.0,0.0,0.0,0.0,0.0,0.0,0.0,0.0,0.0,0.0,0.0,0.0,0.0,0.0,0.0,-1.7691,-1.7755,-1.7771,-1.7771,-1.7771,-1.7771,-1.7771,-1.7771,-1.7771,-1.7771,-1.7771,-1.7612,-1.7334,-1.7636,-1.7604,-1.7326,-1.7326,0.0,0.0,-1.6921,-1.6762,-1.673,-1.673,-1.673,-1.673,-1.673,-1.673,-1.673,-1.673,-1.673,-1.673,-1.673,-1.673,-1.673,-1.673,-1.673,-1.673,-1.673,-1.673,-1.673,-1.673,-1.673,-1.673,-1.673,-1.6706,-1.6508,-1.5864,-1.5674,-1.5443,-1.4816,-1.4665,-1.4569,-1.4569,-1.4569,-1.4569,-1.4569,-1.4569,-1.4569,-1.4569,-1.4569,-1.4569,-1.4497,-1.3977,-1.3178,-1.2077,-1.1558,-1.1248,-1.1001,-1.0628,-1.0398,-1.0375,-1.0765,-1.0616,-0.9857,-1.0173,-1.0034,-0.9291,-0.9216,-0.9226,-0.9246,-0.8856,-0.8861,-1.5158,-1.5268,-1.495,-1.4905,-1.4101,-1.3015,-1.1713,0.0,0.0,-0.7887,-0.6959,-0.649,-0.7173,-0.7253,-0.7674,0.0,0.0,0.0,0.0,0.0,0.0,0.0,0.0,0.0,0.0,0.0,0.0,0.0,0.0,0.0,-1.7127,-1.7151,-1.7151,-1.7151,-1.7151,-1.7151,-1.7151,-1.7151,-1.7151,-1.7151,-1.7151,-1.708,-1.6953,-1.7088,-1.708,-1.6953,-1.6953,0.0,0.0,-1.6794,-1.673,-1.673,-1.673,-1.673,-1.673,-1.673,-1.673,-1.673,-1.673,-1.673,-1.673,-1.673,-1.673,-1.673,-1.673,-1.673,-1.673,-1.673,-1.673,-1.673,-1.673,-1.673,-1.673,-1.673,-1.673,-1.6595,-1.6103,-1.5825,-1.5539,-1.5062,-1.4792,-1.4569,-1.4569,-1.4569,-1.4569,-1.4569,-1.4569,-1.4569,-1.4569,-1.4569,-1.4569,-1.4569,-1.3768,-1.3039,-1.2599,-1.1706,-1.1186,-1.1111,-1.0962,-1.0887,-1.0887,-1.1037,-1.0962,-1.0663,-1.0519,-1.0368,-0.9992,-0.9771,-0.9695,-0.962,-0.9463,-0.9544,-1.4916,-1.5179,-1.4932,-1.472,-1.4136,-1.3195,0.0,0.0,-0.9028,-0.7995,-0.709,-0.6577,-0.7081,-0.7046,-0.7348,0.0,-0.8707,-0.9223,-1.078,0.0,0.0,0.0,0.0,0.0,0.0,0.0,0.0,0.0,0.0,0.0,-1.673,-1.673,-1.673,-1.673,-1.673,-1.673,-1.673,-1.673,-1.673,-1.673,-1.673,-1.673,-1.673,-1.673,-1.673,-1.673,-1.673,0.0,0.0,-1.673,-1.673,-1.673,-1.673,-1.673,-1.673,-1.673,-1.673,-1.673,-1.673,-1.673,-1.673,-1.673,-1.673,-1.673,-1.673,-1.673,-1.673,-1.673,-1.673,-1.673,-1.673,-1.673,-1.673,-1.673,-1.673,-1.6603,-1.615,-1.5856,-1.5547,-1.511,-1.4816,-1.4569,-1.4569,-1.4569,-1.4569,-1.4569,-1.4569,-1.4569,-1.4569,-1.4489,-1.4346,-1.4346,-1.3331,-1.2673,-1.29,-1.1929,-1.126,-1.1111,-1.1111,-1.1111,-1.1111,-1.1111,-1.1111,-1.1111,-1.0812,-1.0588,-1.0513,-1.0218,-1.0067,-1.0067,-0.9916,-0.9922,-1.4986,-1.4673,-1.3645,-1.3855,-1.3497,-1.2565,0.0,-0.976,-0.9157,-0.7626,-0.7041,-0.6805,-0.6811,-0.7078,-0.7531,-0.8302,-0.8945,-0.9763,0.0,0.0,0.0,0.0,0.0,0.0,0.0,0.0,0.0,0.0,0.0,0.0,-1.673,-1.673,-1.673,-1.673,-1.673,-1.673,-1.673,-1.673,-1.673,-1.673,-1.673,-1.673,-1.673,-1.673,-1.673,0.0,0.0,0.0,0.0,-1.673,-1.673,-1.673,-1.673,-1.673,-1.673,-1.673,-1.673,-1.673,-1.673,-1.673,-1.673,-1.673,-1.673,-1.673,-1.673,-1.673,-1.673,-1.673,-1.673,-1.673,-1.673,-1.673,-1.673,-1.673,-1.673,-1.654,-1.5833,-1.5682,-1.5475,-1.4784,-1.4569,-1.4569,-1.4569,-1.4569,-1.4569,-1.4569,-1.4569,-1.4569,-1.4569,-1.4122,-1.3833,-1.3833,-1.2739,-1.2231,-1.2826,-1.2305,-1.1706,-1.1111,-1.1111,-1.1111,-1.1111,-1.1111,-1.1111,-1.1111,-1.1111,-1.0887,-1.0513,-1.0513,-1.0513,-1.0519,-1.0067,-0.9922,-1.3042,-1.3273,-1.3076,-1.2875,-1.2706,-1.2201,-1.0893,-1.0087,-0.928,-0.7977,-0.7216,-0.6805,-0.6803,-0.6697,-0.707,-0.8508,0.0,0.0,0.0,0.0,0.0,0.0,0.0,0.0,0.0,0.0,0.0,0.0,0.0,0.0,-1.673,-1.673,-1.673,-1.673,-1.673,-1.673,-1.673,-1.673,-1.673,-1.673,-1.673,-1.673,-1.673,-1.673,-1.673,0.0,0.0,0.0,0.0,-1.673,-1.673,-1.673,-1.673,-1.673,-1.673,-1.673,-1.673,-1.673,-1.673,-1.673,-1.673,-1.673,-1.673,-1.673,-1.673,-1.673,-1.673,-1.673,-1.673,-1.673,-1.673,-1.673,-1.673,-1.673,-1.6547,-1.6246,-1.5777,-1.5499,-1.5205,-1.4728,-1.4569,-1.4569,-1.4569,-1.4569,-1.4569,-1.4569,-1.4569,-1.4569,-1.4569,-1.4425,-1.4346,-1.4346,-1.3324,-1.2526,-1.2305,-1.1706,-1.1335,-1.1111,-1.1111,-1.1111,-1.1111,-1.1111,-1.1111,-1.1111,-1.1111,-1.1037,-1.0887,-1.0887,-1.0887,-1.0887,-1.0812,-1.0738,0.0,-1.1954,-1.2015,-1.1561,-1.1624,-1.148,-1.0349,-0.9843,-0.9293,-0.8108,-0.7386,-0.6907,-0.681,-0.6731,-0.7023,-0.8119,0.0,0.0,0.0,0.0,0.0,0.0,0.0,0.0,0.0,0.0,0.0,0.0,0.0,0.0,-1.673,-1.673,-1.673,-1.673,-1.673,-1.673,-1.673,-1.673,-1.673,-1.673,-1.673,-1.673,-1.673,-1.673,-1.673,0.0,0.0,0.0,0.0,-1.673,-1.673,-1.673,-1.673,-1.673,-1.673,-1.673,-1.673,-1.673,-1.673,-1.673,-1.673,-1.673,-1.673,-1.673,-1.673,-1.673,-1.673,-1.673,-1.673,-1.673,-1.673,-1.673,-1.6698,-1.6563,-1.6468,-1.6238,-1.5626,-1.5427,-1.5221,-1.4736,-1.4569,-1.4569,-1.4569,-1.4569,-1.4569,-1.4569,-1.4569,-1.4569,-1.4569,-1.4418,-1.4274,-1.4274,-1.3251,-1.2378,-1.2003,-1.1484,-1.1111,-1.1111,-1.1111,-1.1111,-1.1111,-1.1111,-1.1111,-1.1111,-1.1111,-1.1111,-1.1111,-1.1111,-1.1111,-1.1111,-1.1111,-1.1111,0.0,-1.0695,-1.0613,-1.0107,-1.0356,-1.0426,-0.9069,-0.913,0.0,-0.8024,-0.747,-0.7125,-0.6907,-0.7074,-0.7316,-0.7467,0.0,0.0,0.0,0.0,0.0,0.0,0.0,0.0,0.0,0.0,0.0,0.0,0.0,0.0,-1.673,-1.673,-1.673,-1.673,-1.673,-1.673,-1.673,-1.673,-1.673,-1.673,-1.673,-1.673,-1.673,-1.673,-1.673,0.0,0.0,0.0,0.0,-1.673,-1.673,-1.673,-1.673,-1.673,-1.673,-1.673,-1.673,-1.673,-1.673,-1.673,-1.673,-1.673,-1.673,-1.673,-1.673,-1.673,-1.673,-1.673,-1.673,-1.673,-1.673,-1.673,-1.6643,-1.6285,-1.6436,-1.6389,-1.5396,-1.5404,-1.5411,-1.4768,-1.4569,-1.4569,-1.4569,-1.4569,-1.4569,-1.4569,-1.4569,-1.4569,-1.4569,-1.4201,-1.3833,-1.3833,-1.2806,-1.215,-1.215,-1.1484,-1.1111,-1.1111,-1.1111,-1.1111,-1.1111,-1.1111,-1.1111,-1.1111,-1.1111,-1.1111,-1.1111,-1.1111,-1.1111,-1.1111,-1.1111,-1.1111,-0.8094,0.0,-0.9241,-0.8755,-0.8992,-0.92,0.0,-0.8694,0.0,0.0,0.0,-0.7265,-0.7509,-0.7222,-0.7444,0.0,0.0,0.0,0.0,0.0,0.0,0.0,0.0,0.0,0.0,0.0,0.0,0.0,0.0,-1.673,-1.673,-1.673,-1.673,-1.673,-1.673,-1.673,-1.673,-1.673,-1.673,-1.673,-1.673,-1.673,-1.673,-1.673,-1.673,0.0,0.0,0.0,-1.673,-1.673,-1.673,-1.673,-1.673,-1.673,-1.673,-1.673,-1.673,-1.673,-1.673,-1.673,-1.673,-1.673,-1.673,-1.673,-1.673,-1.673,-1.673,-1.673,-1.673,-1.673,-1.673,-1.673,-1.6643,-1.6285,-1.6063,-1.5793,-1.5292,-1.5022,-1.4832,-1.4601,-1.4569,-1.4569,-1.4569,-1.4569,-1.4569,-1.4569,-1.4569,-1.4569,-1.4569,-1.4489,-1.4418,-1.4418,-1.376,-1.339,-1.339,-1.1996,-1.1111,-1.1111,-1.1111,-1.1111,-1.1111,-1.1111,-1.1111,-1.1111,-1.1111,-1.1111,-1.1111,-1.1111,-1.1111,-1.1111,-1.1111,-1.1111,-0.7059,-0.8011,-0.887,-0.8818,-0.9004,-0.9118,-0.887,0.0,0.0,0.0,0.0,0.0,-0.7787,0.0,0.0,0.0,0.0,0.0,0.0,0.0,0.0,0.0,0.0,0.0,0.0,0.0,0.0,0.0,0.0,-1.673,-1.673,-1.673,-1.673,-1.673,-1.673,-1.673,-1.673,-1.673,-1.673,-1.673,-1.673,-1.673,-1.673,-1.673,-1.673,0.0,0.0,0.0,-1.673,-1.673,-1.673,-1.673,-1.673,-1.673,-1.673,-1.673,-1.673,-1.673,-1.673,-1.673,-1.673,-1.673,-1.673,-1.673,-1.673,-1.673,-1.673,-1.673,-1.673,-1.673,-1.673,-1.673,-1.6603,-1.6087,-1.5944,-1.5737,-1.5078,-1.4911,-1.4839,-1.4673,-1.4569,-1.4569,-1.4569,-1.4569,-1.4569,-1.4569,-1.4569,-1.4569,-1.4569,-1.4569,-1.4569,-1.4569,-1.4129,-1.3688,-1.3397,-1.2224,-1.1484,-1.1484,-1.126,-1.1111,-1.1111,-1.1111,-1.1111,-1.1111,-1.1111,-1.1111,-1.1111,-1.1111,-1.1111,-1.1111,-1.1111,-1.1111,-0.6831,-0.798,-0.9056,-0.9334,-0.9509,-0.9602,0.0,0.0,0.0,0.0,0.0,0.0,0.0,0.0,0.0,0.0,0.0,0.0,0.0,0.0,0.0,0.0,0.0,0.0,0.0,0.0,0.0,0.0,0.0,-1.6571,-1.6571,-1.6571,-1.6571,-1.6571,-1.6627,-1.6651,-1.6651,-1.6706,-1.673,-1.673,-1.673,-1.673,-1.673,-1.673,-1.673,-1.673,0.0,0.0,-1.673,-1.673,-1.673,-1.673,-1.673,-1.673,-1.673,-1.673,-1.673,-1.673,-1.673,-1.673,-1.673,-1.673,-1.673,-1.673,-1.673,-1.673,-1.673,-1.673,-1.669,-1.6651,-1.6651,-1.6619,-1.6404,-1.5753,-1.5833,-1.5793,-1.4847,-1.4887,-1.5014,-1.4697,-1.4569,-1.4569,-1.4569,-1.4569,-1.4569,-1.4569,-1.4569,-1.4569,-1.4569,-1.4569,-1.4569,-1.4569,-1.4201,-1.3688,-1.3112,-1.2445,-1.2077,-1.2003,-1.1409,-1.1111,-1.1111,-1.1111,-1.1111,-1.1111,-1.1111,-1.1111,-1.1111,-1.1111,-1.1111,-1.1111,-1.1111,-1.1111,-0.7561,-0.8694,-0.9334,-0.9056,-0.9563,-0.9994,0.0,0.0,0.0,0.0,0.0,0.0,0.0,0.0,0.0,0.0,0.0,0.0,0.0,0.0,0.0,0.0,0.0,0.0,0.0,0.0,0.0,0.0,0.0,-1.584,-1.584,-1.584,-1.584,-1.584,-1.6134,-1.6285,-1.6285,-1.6587,-1.673,-1.673,-1.673,-1.673,-1.673,-1.673,-1.673,-1.673,0.0,-1.673,-1.673,-1.673,-1.673,-1.673,-1.673,-1.673,-1.673,-1.673,-1.673,-1.673,-1.673,-1.673,-1.673,-1.673,-1.673,-1.673,-1.673,-1.673,-1.673,-1.673,-1.6516,-1.6285,-1.6285,-1.6063,-1.5745,-1.5356,-1.53,-1.5213,-1.4736,-1.4689,-1.4632,-1.4577,-1.4569,-1.4569,-1.4569,-1.4569,-1.4569,-1.4569,-1.4569,-1.4569,-1.4569,-1.4569,-1.4569,-1.4569,-1.4497,-1.4274,-1.3688,-1.3112,-1.2526,-1.2003,-1.1409,-1.1111,-1.1111,-1.1111,-1.1111,-1.1111,-1.1111,-1.1111,-1.1111,-1.1111,-1.1111,-1.1111,-1.1111,-1.1111,-0.6779,-0.7918,-0.888,-0.917,-1.0298,-1.1271,0.0,0.0,0.0,0.0,0.0,0.0,0.0,0.0,0.0,0.0,0.0,0.0,0.0,0.0,0.0,0.0,0.0,0.0,0.0,0.0,0.0,0.0,0.0,0.0,-1.5674,-1.5674,-1.5674,-1.5674,-1.5833,-1.592,-1.592,-1.6079,-1.6261,-1.6452,-1.6643,-1.6635,-1.646,-1.6643,-1.673,-1.673,0.0,-1.673,-1.673,-1.673,-1.673,-1.673,-1.673,-1.673,-1.673,-1.673,-1.673,-1.673,-1.673,-1.673,-1.673,-1.673,-1.673,-1.673,-1.673,-1.673,-1.669,-1.65,-1.6333,-1.6246,-1.6444,-1.623,-1.592,-1.5769,-1.5737,-1.5586,-1.5054,-1.4935,-1.4879,-1.4601,-1.4569,-1.4569,-1.4569,-1.4569,-1.4569,-1.4569,-1.4569,-1.4569,-1.4569,-1.4569,-1.4569,-1.4569,-1.4569,-1.4274,-1.3404,-1.3039,-1.2526,-1.1558,-1.126,-1.1111,-1.1111,-1.1111,-1.1111,-1.1111,-1.1111,-1.1111,-1.1111,-1.1111,-1.1111,-1.1111,-1.1111,-1.1111,-0.6262,-0.7297,-0.8435,-0.9417,0.0,0.0,0.0,0.0,0.0,0.0,0.0,0.0,0.0,0.0,0.0,0.0,0.0,0.0,0.0,0.0,0.0,0.0,0.0,0.0,0.0,0.0,0.0,0.0,0.0,0.0,-1.5435,-1.5435,-1.5435,-1.5435,-1.5515,-1.5562,-1.5562,-1.5634,-1.5817,-1.6087,-1.6357,-1.6349,-1.6087,-1.6365,-1.6484,-1.6484,-1.6484,-1.6484,-1.6492,-1.6571,-1.6611,-1.6619,-1.6706,-1.673,-1.673,-1.673,-1.673,-1.673,-1.673,-1.673,-1.673,-1.673,-1.673,-1.673,-1.673,-1.6675,-1.6555,-1.6277,-1.6087,-1.6047,-1.6397,-1.6166,-1.5864,-1.5944,-1.5904,-1.5697,-1.5165,-1.5062,-1.4975,-1.4697,-1.4569,-1.4569,-1.4569,-1.4569,-1.4569,-1.4569,-1.4569,-1.4569,-1.4569,-1.4569,-1.4569,-1.4569,-1.4489,-1.3912,-1.282,-1.2526,-1.2077,-1.1186,-1.1111,-1.1111,-1.1111,-1.1111,-1.1111,-1.1111,-1.1111,-1.1111,-1.1111,-1.1111,-1.1111,-1.1111,-1.1111,-1.1111,-0.7048,-0.7783,-0.8508,-0.9819,0.0,0.0,0.0,0.0,0.0,0.0,0.0,0.0,0.0,0.0,0.0,0.0,0.0,0.0,0.0,0.0,0.0,0.0,0.0,0.0,0.0,0.0,0.0,0.0,0.0,0.0,-1.4648,-1.4648,-1.4648,-1.4648,-1.5046,-1.5221,-1.5221,-1.5523,-1.569,-1.5713,-1.5745,-1.5737,-1.5713,-1.5745,-1.5753,-1.5753,-1.5753,-1.5753,-1.5777,-1.6111,-1.6246,-1.6277,-1.6603,-1.673,-1.673,-1.673,-1.673,-1.673,-1.673,-1.673,-1.673,-1.673,-1.673,-1.673,-1.673,-1.6508,-1.6238,-1.6214,-1.5745,-1.534,-1.5666,-1.5261,-1.4839,-1.5181,-1.4998,-1.4664,-1.4617,-1.4609,-1.4601,-1.4649,-1.4569,-1.4569,-1.4569,-1.4569,-1.4569,-1.4569,-1.4569,-1.4569,-1.4569,-1.4569,-1.4569,-1.4569,-1.4129,-1.3397,-1.215,-1.1558,-1.1186,-1.1111,-1.1111,-1.1111,-1.1111,-1.1111,-1.1111,-1.1111,-1.1111,-1.1111,-1.1111,-1.1111,-1.1111,-1.1111,-1.1111,-1.1111,-0.6128,-0.7268,-0.8544,-0.9532,0.0,0.0,0.0,0.0,0.0,0.0,0.0,0.0,0.0,0.0,0.0,0.0,0.0,0.0,0.0,0.0,0.0,0.0,0.0,0.0,0.0,0.0,0.0,0.0,0.0,0.0,-1.4569,-1.4569,-1.4569,-1.4569,-1.4776,-1.4847,-1.4847,-1.4967,-1.503,-1.5038,-1.5467,-1.557,-1.538,-1.5578,-1.5674,-1.5674,-1.5674,-1.5674,-1.569,-1.5825,-1.5872,-1.5888,-1.6023,-1.6079,-1.6103,-1.6325,-1.6404,-1.6436,-1.6659,-1.673,-1.673,-1.673,-1.673,-1.669,-1.6476,-1.6309,-1.6118,-1.569,-1.5388,-1.5261,-1.5594,-1.5332,-1.5062,-1.5411,-1.5388,-1.5229,-1.5022,-1.4982,-1.4911,-1.4689,-1.4569,-1.4569,-1.4569,-1.4569,-1.4569,-1.4569,-1.4569,-1.4569,-1.4569,-1.4569,-1.4569,-1.4569,-1.4129,-1.3615,-1.3171,-1.2218,-1.1632,-1.1632,-1.1335,-1.1111,-1.1111,-1.1111,-1.1111,-1.1111,-1.1111,-1.1111,-1.1111,-1.1111,-1.1111,-1.1111,-1.1111,-1.1111,-0.5971,-0.7245,-0.874,0.0,0.0,0.0,0.0,0.0,0.0,0.0,0.0,0.0,0.0,0.0,0.0,0.0,0.0,0.0,0.0,0.0,0.0,0.0,0.0,0.0,0.0,0.0,0.0,0.0,0.0,0.0,0.0,-1.4569,-1.4569,-1.4569,-1.4569,-1.4569,-1.4569,-1.4569,-1.4569,-1.4649,-1.5125,-1.5229,-1.5022,-1.5245,-1.5348,-1.5348,-1.5348,-1.5348,-1.5356,-1.5475,-1.5578,-1.5674,-1.5674,-1.5674,-1.5705,-1.5952,-1.6039,-1.6071,-1.6317,-1.6397,-1.6397,-1.6397,-1.6397,-1.6357,-1.6111,-1.5968,-1.5785,-1.5316,-1.5102,-1.5062,-1.5292,-1.5181,-1.5102,-1.5443,-1.5435,-1.5292,-1.5062,-1.5014,-1.4943,-1.4617,-1.4569,-1.4569,-1.4569,-1.4569,-1.4569,-1.4569,-1.4569,-1.4569,-1.4569,-1.4569,-1.4569,-1.4346,-1.3977,-1.3608,-1.3324,-1.2806,-1.2291,-1.1781,-1.1484,-1.1335,-1.1111,-1.1111,-1.1111,-1.1111,-1.1111,-1.1111,-1.1111,-1.1111,-1.1111,-1.1111,-1.1111,-1.1111,-0.701,-0.7988,0.0,0.0,0.0,0.0,0.0,0.0,0.0,0.0,0.0,0.0,0.0,0.0,0.0,0.0,0.0,0.0,0.0,0.0,0.0,0.0,0.0,0.0,0.0,0.0,0.0,0.0,0.0,0.0,0.0,-1.4569,-1.4569,-1.4569,-1.4569,-1.4569,-1.4569,-1.4569,-1.4569,-1.4569,-1.4569,-1.4569,-1.4569,-1.4569,-1.4569,-1.4569,-1.4569,-1.4569,-1.4593,-1.503,-1.5372,-1.5666,-1.5666,-1.5666,-1.5666,-1.5674,-1.5674,-1.5674,-1.5674,-1.5674,-1.5674,-1.5674,-1.5674,-1.5674,-1.5674,-1.5443,-1.5189,-1.5181,-1.4919,-1.4569,-1.4569,-1.4569,-1.4728,-1.5094,-1.4903,-1.4569,-1.4569,-1.4569,-1.4569,-1.4569,-1.4569,-1.4569,-1.4569,-1.4569,-1.4569,-1.4569,-1.4569,-1.4569,-1.4569,-1.4569,-1.4425,-1.3833,-1.3608,-1.3171,-1.2372,-1.3025,-1.2799,-1.126,-1.1706,-1.1706,-1.1111,-1.1111,-1.1111,-1.1111,-1.1111,-1.1111,-1.1111,-1.1111,-1.1111,-1.1111,-1.1111,-1.1111,-0.6952,0.0,0.0,0.0,0.0,0.0,0.0,0.0,0.0,0.0,0.0,0.0,0.0,0.0,0.0,0.0,0.0,0.0,0.0,0.0,0.0,0.0,0.0,0.0,0.0,0.0,0.0,0.0,0.0,0.0,0.0,-1.4569,-1.4569,-1.4569,-1.4569,-1.4569,-1.4569,-1.4569,-1.4569,-1.4569,-1.4569,-1.4569,-1.4569,-1.4569,-1.4569,-1.4569,-1.4569,-1.4569,-1.4577,-1.476,-1.4855,-1.4951,-1.4951,-1.4951,-1.4975,-1.5237,-1.5332,-1.5364,-1.5594,-1.5674,-1.5674,-1.5674,-1.5674,-1.5634,-1.5404,-1.5261,-1.5133,-1.4879,-1.472,-1.4569,-1.4569,-1.4569,-1.4593,-1.4776,-1.472,-1.4569,-1.4569,-1.4569,-1.4569,-1.4569,-1.4569,-1.4569,-1.4569,-1.4569,-1.4569,-1.4569,-1.4569,-1.4569,-1.4569,-1.4569,-1.4569,-1.4346,-1.4274,-1.4201,-1.3912,-1.4129,-1.4049,-1.3608,-1.2211,-1.126,-1.1111,-1.1111,-1.1111,-1.1111,-1.1111,-1.1111,-1.1111,-1.1111,-1.1111,-1.1111,-1.1111,-1.1111,-0.828,0.0,0.0,0.0,0.0,0.0,0.0,0.0,0.0,0.0,0.0,0.0,0.0,0.0,0.0,0.0,0.0,0.0,0.0,0.0,0.0,0.0,0.0,0.0,0.0,0.0,0.0,0.0,0.0,0.0,0.0,-1.422,-1.422,-1.422,-1.4355,-1.4363,-1.422,-1.464,-1.4775,-1.4638,-1.4925,-1.5062,-1.5062,-1.4784,-1.4776,-1.5062,-1.5062,-1.5062,-1.5062,-1.5062,-1.5062,-1.5062,-1.5062,-1.4991,-1.488,-1.5106,-1.5113,-1.4998,-1.5197,-1.5268,-1.5268,-1.5268,-1.5268,-1.5229,-1.503,-1.4967,-1.4919,-1.4704,-1.4569,-1.4569,-1.4569,-1.4569,-1.4569,-1.4569,-1.4569,-1.4569,-1.4569,-1.4569,-1.4569,-1.4569,-1.4569,-1.4569,-1.4569,-1.4569,-1.4569,-1.4569,-1.4569,-1.4569,-1.4569,-1.4569,-1.4569,-1.4569,-1.4569,-1.4569,-1.4569,-1.4569,-1.4201,-1.3244,-1.2365,-1.1632,-1.1111,-1.1111,-1.1111,-1.1111,-1.1111,-1.1111,-1.1111,-1.1111,-1.1111,-1.1111,-1.1111,-1.1111,0.0,0.0,0.0,0.0,0.0,0.0,0.0,0.0,0.0,0.0,0.0,0.0,0.0,0.0,0.0,0.0,0.0,0.0,0.0,0.0,0.0,0.0,0.0,0.0,0.0,0.0,0.0,0.0,0.0,0.0,0.0,-1.3651,-1.3651,-1.3651,-1.3962,-1.3978,-1.3717,-1.4637,-1.501,-1.4678,-1.5358,-1.573,-1.573,-1.5029,-1.5133,-1.5833,-1.5833,-1.5833,-1.5833,-1.5833,-1.5833,-1.5833,-1.5833,-1.5551,-1.5267,-1.5196,-1.4991,-1.4641,-1.4641,-1.4569,-1.4569,-1.4569,-1.4569,-1.4569,-1.4569,-1.4569,-1.4569,-1.4569,-1.4569,-1.4569,-1.4569,-1.4569,-1.4569,-1.4569,-1.4569,-1.4569,-1.4569,-1.4569,-1.4569,-1.4569,-1.4569,-1.4569,-1.4569,-1.4569,-1.4569,-1.4569,-1.4569,-1.4569,-1.4569,-1.4569,-1.4569,-1.4569,-1.4569,-1.4569,-1.4569,-1.4569,-1.3688,-1.1552,-1.2445,-1.2452,-1.1186,-1.1111,-1.1111,-1.1111,-1.1111,-1.1111,-1.1111,-1.1111,-1.1111,-1.1111,-1.1111,-1.1111,0.0,0.0,0.0,0.0,0.0,0.0,0.0,0.0,0.0,0.0,0.0,0.0,0.0,0.0,0.0,0.0,0.0,0.0,0.0,0.0,0.0,0.0,0.0,0.0,0.0,0.0,0.0,0.0,0.0,0.0,-1.3584,-1.4123,-1.4255,-1.3991,-1.4338,-1.4479,-1.4395,-1.4621,-1.4664,0.0,-1.4797,-1.5031,-1.5239,-1.5428,-1.5621,-1.5833,-1.5833,-1.5833,-1.5833,-1.5833,-1.5833,-1.5833,-1.5833,-1.5762,-1.5621,-1.5338,-1.5133,-1.5062,-1.4713,-1.4569,-1.4569,-1.4569,-1.4569,-1.4569,-1.4569,-1.4569,-1.4569,-1.4569,-1.4569,-1.4569,-1.4569,-1.4569,-1.4569,-1.4569,-1.4569,-1.4569,-1.4569,-1.4569,-1.4569,-1.4569,-1.4569,-1.4569,-1.4569,-1.4569,-1.4569,-1.4569,-1.4569,-1.4569,-1.4569,-1.4569,-1.4569,-1.4569,-1.4569,-1.4569,-1.4569,-1.4569,-1.4346,-1.3905,-1.4057,-1.3317,-1.1186,-1.1111,-1.1111,-1.1111,-1.1111,-1.1111,-1.1111,-1.1111,-1.1111,-1.1111,-1.1111,-1.1111,0.0,0.0,0.0,0.0,0.0,0.0,0.0,0.0,0.0,0.0,0.0,0.0,0.0,0.0,0.0,0.0,0.0,0.0,0.0,0.0,0.0,0.0,0.0,0.0,0.0,0.0,0.0,0.0,0.0,-1.384,-1.3895,-1.4219,-1.4407,-1.4461,-1.4591,-1.4545,-1.4416,-1.4728,-1.4759,-1.4577,-1.4953,-1.5236,-1.5384,-1.586,-1.592,-1.5774,-1.6184,-1.6333,-1.6333,-1.6333,-1.6333,-1.6333,-1.6333,-1.6193,-1.5982,-1.5771,-1.5488,-1.5196,-1.4991,-1.4776,-1.4569,-1.4569,-1.4569,-1.4569,-1.4569,-1.4569,-1.4569,-1.4569,-1.4569,-1.4569,-1.4569,-1.4569,-1.4569,-1.4569,-1.4569,-1.4569,-1.4569,-1.4569,-1.4569,-1.4569,-1.4569,-1.4569,-1.4569,-1.4569,-1.4569,-1.4569,-1.4569,-1.4569,-1.4569,-1.4569,-1.4569,-1.4569,-1.4569,-1.4569,-1.4569,-1.4569,-1.4569,-1.4569,-1.4569,-1.3535,-1.1186,-1.1111,-1.1111,-1.1111,-1.1111,-1.1111,-1.1111,-1.1111,-1.1111,-1.1111,-1.1111,-1.1111,0.0,0.0,0.0,0.0,0.0,0.0,0.0,0.0,0.0,0.0,0.0,0.0,0.0,0.0,0.0,0.0,0.0,0.0,0.0,0.0,0.0,0.0,0.0,0.0,0.0,0.0,0.0,0.0,0.0,-1.3983,-1.4323,-1.4451,-1.4619,-1.4972,-1.4832,-1.4669,-1.4392,-1.4765,-1.4871,-1.4613,-1.5196,-1.5487,-1.5505,-1.5918,-1.5975,-1.5824,-1.6515,-1.6844,-1.6908,-1.6908,-1.6908,-1.6908,-1.6908,-1.67,-1.6412,-1.6351,-1.5912,-1.5267,-1.5204,-1.4919,-1.4569,-1.4569,-1.4569,-1.4569,-1.4569,-1.4569,-1.4569,-1.4569,-1.4569,-1.4569,-1.4569,-1.4569,-1.4569,-1.4569,-1.4569,-1.4569,-1.4569,-1.4569,-1.4569,-1.4569,-1.4569,-1.4569,-1.4569,-1.4569,-1.4569,-1.4569,-1.4569,-1.4569,-1.4569,-1.4569,-1.4569,-1.4569,-1.4569,-1.4569,-1.4569,-1.4569,-1.4418,-1.4049,-1.3977,-1.3098,-1.1186,-1.1111,-1.1111,-1.1111,-1.1111,-1.1111,-1.1111,-1.1111,-1.1111,-1.1111,-1.1111,-1.1111,0.0,0.0,0.0,0.0,0.0,0.0,0.0,0.0,0.0,0.0,0.0,0.0,0.0,0.0,0.0,0.0,0.0,0.0,0.0,0.0,0.0,0.0,0.0,0.0,0.0,0.0,0.0,0.0,-1.5167,-1.505,-1.4796,-1.5332,-1.5575,-1.5342,-1.5225,-1.5107,-1.505,-1.4717,-1.4583,-1.4529,-1.4583,-1.4671,-1.468,-1.5084,-1.5588,-1.6245,-1.63,-1.6587,-1.6908,-1.6908,-1.6908,-1.6908,-1.6908,-1.6839,-1.6769,-1.6421,-1.6053,-1.5692,-1.5338,-1.4919,-1.4569,-1.4569,-1.4569,-1.4569,-1.4569,-1.4569,-1.4569,-1.4569,-1.4569,-1.4569,-1.4569,-1.4569,-1.4569,-1.4569,-1.4569,-1.4569,-1.4569,-1.4569,-1.4569,-1.4569,-1.4569,-1.4569,-1.4569,-1.4569,-1.4569,-1.4569,-1.4569,-1.4569,-1.4569,-1.4569,-1.4569,-1.4569,-1.4569,-1.4569,-1.4569,-1.4569,-1.3753,-1.17,-1.1552,-1.1403,-1.1111,-1.1111,-1.1111,-1.1111,-1.1111,-1.1111,-1.1111,-1.1111,-1.1111,-1.1111,-1.1111,-1.1111,0.0,0.0,0.0,0.0,0.0,0.0,0.0,0.0,0.0,0.0,0.0,0.0,0.0,0.0,0.0,0.0,0.0,0.0,0.0,0.0,0.0,0.0,0.0,0.0,0.0,0.0,0.0,0.0,-1.5816,-1.5748,-1.5864,-1.6104,-1.6228,-1.6104,-1.5758,-1.5468,-1.5167,-1.4734,-1.4515,-1.4515,-1.4515,-1.4515,-1.4515,-1.4689,-1.5084,-1.5643,-1.5872,-1.6202,-1.6578,-1.6578,-1.6707,-1.6908,-1.6908,-1.6908,-1.6908,-1.67,-1.6412,-1.6053,-1.563,-1.5267,-1.4919,-1.4633,-1.4569,-1.4569,-1.4569,-1.4569,-1.4569,-1.4569,-1.4569,-1.4569,-1.4569,-1.4569,-1.4569,-1.4569,-1.4569,-1.4569,-1.4569,-1.4569,-1.4569,-1.4569,-1.4569,-1.4569,-1.4569,-1.4569,-1.4569,-1.4569,-1.4569,-1.4569,-1.4569,-1.4569,-1.4569,-1.4569,-1.4569,-1.4569,-1.4569,-1.4569,-1.4122,-1.3098,-1.3098,-1.3098,-1.3098,-1.1774,-1.1111,-1.1111,-1.1111,-1.1111,-1.1111,-1.1111,-1.1111,-1.1111,-1.1111,-1.1111,0.0,0.0,0.0,0.0,0.0,0.0,0.0,0.0,0.0,0.0,0.0,0.0,0.0,0.0,0.0,0.0,0.0,0.0,0.0,0.0,0.0,0.0,0.0,0.0,0.0,0.0,0.0,0.0,-1.6457,-1.64,-1.6751,-1.6807,-1.6751,-1.657,-1.6161,-1.57,-1.5167,-1.4734,-1.4515,-1.4515,-1.4515,-1.4515,-1.4515,-1.4515,-1.4671,-1.4974,-1.5368,-1.578,-1.6156,-1.6156,-1.6395,-1.6762,-1.6762,-1.6817,-1.6908,-1.6908,-1.663,-1.6272,-1.5982,-1.5692,-1.5275,-1.4848,-1.4776,-1.4705,-1.4641,-1.4569,-1.4569,-1.4569,-1.4569,-1.4569,-1.4569,-1.4569,-1.4569,-1.4569,-1.4569,-1.4569,-1.4569,-1.4569,-1.4569,-1.4569,-1.4569,-1.4569,-1.4569,-1.4569,-1.4569,-1.4569,-1.4569,-1.4569,-1.4569,-1.4569,-1.4569,-1.4569,-1.4569,-1.4569,-1.4569,-1.4569,-1.4569,-1.4569,-1.4569,-1.4569,-1.4569,-1.2945,-1.1996,-1.1996,-1.1706,-1.1409,-1.1111,-1.1111,-1.1111,-1.1111,-1.1111,-1.1111,0.0,0.0,0.0,0.0,0.0,0.0,0.0,0.0,0.0,0.0,0.0,0.0,0.0,0.0,0.0,0.0,0.0,0.0,0.0,0.0,0.0,0.0,0.0,0.0,0.0,0.0,0.0,0.0,-1.7222,-1.7222,-1.7278,-1.7278,-1.7043,-1.6627,-1.6161,-1.57,-1.5167,-1.4734,-1.4515,-1.4515,-1.4515,-1.4515,-1.4515,-1.4515,-1.4524,-1.4561,-1.4964,-1.5359,-1.5716,-1.5716,-1.5964,-1.6349,-1.6349,-1.6578,-1.6908,-1.6908,-1.663,-1.6272,-1.6272,-1.6053,-1.5692,-1.5267,-1.5204,-1.5133,-1.4713,-1.4569,-1.4569,-1.4569,-1.4569,-1.4569,-1.4569,-1.4569,-1.4569,-1.4569,-1.4569,-1.4569,-1.4569,-1.4569,-1.4569,-1.4569,-1.4569,-1.4569,-1.4569,-1.4569,-1.4569,-1.4569,-1.4569,-1.4569,-1.4569,-1.4569,-1.4569,-1.4569,-1.4569,-1.4569,-1.4569,-1.4569,-1.4569,-1.4569,-1.4569,-1.4569,-1.4569,-1.4489,-1.4418,-1.4418,-1.3331,-1.2224,-1.1111,-1.1111,-1.1111,-1.1111,-1.1111,-1.1111,0.0,0.0,0.0,0.0,0.0,0.0,0.0,0.0,0.0,0.0,0.0,0.0,0.0,0.0,0.0,0.0,0.0,0.0,0.0,0.0,0.0,0.0,0.0,0.0,0.0,0.0,0.0,0.0,0.0,-1.635,-1.635,-1.635,-1.6127,-1.5635,-1.5463,-1.5169,-1.4725,-1.4877,-1.4793,-1.4515,-1.4515,-1.4515,-1.4515,-1.4515,-1.4515,-1.4515,-1.4662,-1.4946,-1.5313,-1.5313,-1.5551,-1.5909,-1.5909,-1.6001,-1.6156,-1.6431,-1.6387,-1.6287,-1.6332,-1.6202,-1.6053,-1.57,-1.5488,-1.5267,-1.5133,-1.4848,-1.4569,-1.4569,-1.4569,-1.4569,-1.4569,-1.4569,-1.4569,-1.4569,-1.4569,-1.4569,-1.4569,-1.4569,-1.4569,-1.4569,-1.4569,-1.4569,-1.4569,-1.4569,-1.4569,-1.4569,-1.4569,-1.4569,-1.4569,-1.4569,-1.4569,-1.4569,-1.4569,-1.4569,-1.4569,-1.4569,-1.4569,-1.4569,-1.4569,-1.4569,-1.4569,-1.4569,-1.4569,-1.4569,-1.4209,-1.3404,-1.2231,-1.1855,-1.1706,-1.1706,-1.126,-1.1111,0.0,0.0,0.0,0.0,0.0,0.0,0.0,0.0,0.0,0.0,0.0,0.0,0.0,0.0,0.0,0.0,0.0,0.0,0.0,0.0,0.0,0.0,0.0,0.0,0.0,0.0,0.0,0.0,0.0,0.0,-1.5785,-1.5785,-1.5569,-1.5133,-1.4924,-1.475,-1.446,-1.4675,-1.4659,-1.448,-1.4354,-1.4378,-1.4515,-1.4515,-1.4515,-1.4515,-1.4515,-1.4662,-1.49,-1.49,-1.5139,-1.5487,-1.5487,-1.557,-1.5716,-1.6001,-1.6111,-1.6099,-1.6228,-1.6294,-1.6243,-1.6009,-1.5842,-1.563,-1.5559,-1.5133,-1.4569,-1.4569,-1.4569,-1.4569,-1.4569,-1.4569,-1.4569,-1.4569,-1.4569,-1.4569,-1.4569,-1.4569,-1.4569,-1.4569,-1.4569,-1.4569,-1.4569,-1.4569,-1.4569,-1.4569,-1.4569,-1.4569,-1.4569,-1.4569,-1.4569,-1.4569,-1.4569,-1.4569,-1.4569,-1.4569,-1.4569,-1.4569,-1.4569,-1.4569,-1.4569,-1.4569,-1.4569,-1.4569,-1.4569,-1.4129,-1.3112,-1.2592,-1.2305,-1.2298,-1.1781,-1.1335,0.0,0.0,0.0,0.0,0.0,0.0,0.0,0.0,0.0,0.0,0.0,0.0,0.0,0.0,0.0,0.0,0.0,0.0,0.0,0.0,0.0,0.0,0.0,0.0,0.0,0.0,0.0,0.0,-1.5742,-1.5742,-1.5742,-1.5742,-1.5526,-1.5102,-1.4631,-1.442,-1.442,-1.4068,-1.4074,-1.4495,-1.4091,-1.4084,-1.4478,-1.4488,-1.4488,-1.4497,-1.4506,-1.4515,-1.4515,-1.4515,-1.4735,-1.5084,-1.5084,-1.5313,-1.5661,-1.567,-1.567,-1.5735,-1.6156,-1.6294,-1.6291,-1.626,-1.6263,-1.6149,-1.5912,-1.5275,-1.4641,-1.4641,-1.4641,-1.4569,-1.4569,-1.4569,-1.4569,-1.4569,-1.4569,-1.4569,-1.4569,-1.4569,-1.4569,-1.4569,-1.4569,-1.4569,-1.4569,-1.4569,-1.4569,-1.4569,-1.4569,-1.4569,-1.4569,-1.4569,-1.4569,-1.4569,-1.4569,-1.4569,-1.4569,-1.4569,-1.4569,-1.4569,-1.4569,-1.4569,-1.4569,-1.4569,-1.4569,-1.4569,-1.4569,-1.4274,-1.3535,-1.3112,-1.29,-1.29,-1.2452,-1.1855,-0.5892,0.0,0.0,0.0,0.0,0.0,0.0,0.0,0.0,0.0,0.0,0.0,0.0,0.0,0.0,0.0,0.0,0.0,0.0,0.0,0.0,0.0,0.0,0.0,0.0,0.0,0.0,0.0,-1.4777,-1.4777,-1.4777,-1.4777,-1.4729,-1.4585,-1.4503,-1.4469,-1.4419,-1.4143,-1.3984,-1.4035,-1.3672,-1.3516,-1.3635,-1.3928,-1.4057,-1.4075,-1.4378,-1.4515,-1.4515,-1.4515,-1.4579,-1.4671,-1.4671,-1.4744,-1.4873,-1.5157,-1.5258,-1.5322,-1.5725,-1.5863,-1.5881,-1.586,-1.6229,-1.67,-1.6621,-1.6412,-1.6263,-1.6263,-1.5488,-1.4569,-1.4569,-1.4569,-1.4569,-1.4569,-1.4569,-1.4569,-1.4569,-1.4569,-1.4569,-1.4569,-1.4569,-1.4569,-1.4569,-1.4569,-1.4569,-1.4569,-1.4569,-1.4569,-1.4569,-1.4569,-1.4569,-1.4569,-1.4569,-1.4569,-1.4569,-1.4569,-1.4569,-1.4569,-1.4569,-1.4569,-1.4569,-1.4569,-1.4569,-1.4569,-1.4569,-1.4497,-1.4274,-1.3688,-1.3032,-1.2452,-1.1781,-1.1335,0.0,0.0,0.0,0.0,0.0,0.0,0.0,0.0,0.0,0.0,0.0,0.0,0.0,0.0,0.0,0.0,0.0,0.0,0.0,0.0,0.0,0.0,0.0,0.0,0.0,-1.4373,-1.4373,-1.4373,-1.4373,-1.4373,-1.4373,-1.4373,-1.4373,-1.4373,-1.4445,-1.4441,-1.4403,-1.4083,-1.3898,-1.3867,-1.3455,-1.3283,-1.3305,-1.3534,-1.3635,-1.3653,-1.4075,-1.4249,-1.4268,-1.4442,-1.4515,-1.4515,-1.4515,-1.4515,-1.4543,-1.4772,-1.4854,-1.4909,-1.5313,-1.5441,-1.5469,-1.5634,-1.5936,-1.6285,-1.6505,-1.6496,-1.6468,-1.6817,-1.5771,-1.4569,-1.4569,-1.4569,-1.4569,-1.4569,-1.4569,-1.4569,-1.4569,-1.4569,-1.4569,-1.4569,-1.4569,-1.4569,-1.4569,-1.4569,-1.4569,-1.4569,-1.4569,-1.4569,-1.4569,-1.4569,-1.4569,-1.4569,-1.4569,-1.4569,-1.4569,-1.4569,-1.4569,-1.4569,-1.4569,-1.4569,-1.4569,-1.4569,-1.4569,-1.4569,-1.4569,-1.4569,-1.4569,-1.3688,-1.3251,-1.3251,-1.2806,-1.2063,0.0,0.0,0.0,0.0,0.0,0.0,-0.9335,-0.912,0.0,0.0,0.0,0.0,0.0,0.0,0.0,0.0,0.0,0.0,0.0,0.0,0.0,0.0,0.0,0.0,-1.4373,-1.4373,-1.4373,-1.4373,-1.4373,-1.4373,-1.4373,-1.4373,-1.4373,-1.4373,-1.4384,-1.4326,-1.4373,-1.3952,-1.3779,-1.3781,-1.3428,-1.3219,-1.3212,-1.3204,-1.3222,-1.325,-1.3644,-1.3837,-1.391,-1.4286,-1.4469,-1.4515,-1.4515,-1.4515,-1.4515,-1.4515,-1.4515,-1.4561,-1.4909,-1.5038,-1.5093,-1.5441,-1.5432,-1.5368,-1.5799,-1.5799,-1.578,-1.6459,-1.5722,-1.468,-1.4617,-1.4713,-1.4856,-1.4856,-1.4713,-1.4569,-1.4569,-1.4713,-1.4776,-1.4641,-1.4569,-1.4569,-1.4569,-1.4569,-1.4569,-1.4569,-1.4569,-1.4569,-1.4569,-1.4569,-1.4569,-1.4569,-1.4569,-1.4569,-1.4569,-1.4569,-1.4569,-1.4569,-1.4569,-1.4569,-1.4569,-1.4569,-1.4569,-1.4569,-1.4569,-1.4569,-1.4569,-1.3331,-1.3258,-1.4194,-1.4194,-1.3098,-0.8668,-0.8912,-0.9303,-0.829,0.0,0.0,-0.8017,-0.7907,0.0,0.0,0.0,0.0,0.0,0.0,0.0,0.0,0.0,0.0,0.0,0.0,0.0,0.0,0.0,0.0,-1.4373,-1.4373,-1.4373,-1.4373,-1.4373,-1.4373,-1.4373,-1.4373,-1.4373,-1.4373,-1.4104,-1.4046,-1.4373,-1.3705,-1.346,-1.3803,-1.3135,-1.28,-1.2836,-1.28,-1.2834,-1.2862,-1.3231,-1.3589,-1.3892,-1.3974,-1.4203,-1.4515,-1.4515,-1.4515,-1.4515,-1.4515,-1.4515,-1.4524,-1.4598,-1.4625,-1.4643,-1.4717,-1.4928,-1.5102,-1.4891,-1.5084,-1.5331,-1.5056,-1.5242,-1.5335,-1.4773,-1.5488,-1.6482,-1.6482,-1.5488,-1.4569,-1.4569,-1.5559,-1.6053,-1.4848,-1.4569,-1.4569,-1.4569,-1.4569,-1.4569,-1.4569,-1.4569,-1.4569,-1.4569,-1.4569,-1.4569,-1.4569,-1.4569,-1.4569,-1.4569,-1.4569,-1.4569,-1.4569,-1.4569,-1.4569,-1.4569,-1.4569,-1.4569,-1.4569,-1.4569,-1.4569,-1.4569,-1.2512,-1.1558,-1.1774,-1.1774,-1.1552,-0.9958,-0.9844,-0.9982,-0.9458,0.0,0.0,0.0,0.0,-0.8104,0.0,0.0,0.0,0.0,0.0,0.0,0.0,0.0,0.0,0.0,0.0,0.0,0.0,0.0,0.0,-1.4034,-1.4242,-1.4373,-1.4373,-1.4373,-1.4373,-1.4373,-1.4373,-1.4373,-1.4373,-1.4186,-1.4197,-1.4373,-1.3988,-1.38,-1.3763,-1.3238,-1.2861,-1.2686,-1.2488,-1.242,-1.2439,-1.281,-1.3148,-1.3341,-1.3506,-1.3837,-1.4222,-1.4433,-1.4515,-1.4515,-1.4515,-1.4515,-1.4515,-1.4515,-1.4515,-1.4515,-1.4515,-1.4643,-1.4772,-1.457,-1.4698,-1.4854,-1.4588,-1.4799,-1.5006,-1.4629,-1.5115,-1.5918,-1.6716,-1.6342,-1.5771,-1.5771,-1.6342,-1.6691,-1.5912,-1.5771,-1.5488,-1.4713,-1.4569,-1.4569,-1.4569,-1.5275,-1.5771,-1.5771,-1.5771,-1.5771,-1.5771,-1.5062,-1.4569,-1.4569,-1.4569,-1.4569,-1.4569,-1.4569,-1.4569,-1.4569,-1.4569,-1.4569,-1.4569,-1.4569,-1.4569,-1.4569,-1.4171,-1.2997,-1.1111,-1.1111,-1.1111,0.0,0.0,0.0,0.0,0.0,-0.9602,0.0,0.0,0.0,-0.9357,0.0,0.0,0.0,0.0,0.0,0.0,0.0,0.0,0.0,0.0,0.0,0.0,0.0,0.0,0.0,-1.3663,-1.398,-1.4351,-1.4122,-1.4078,-1.4362,-1.4373,-1.4373,-1.4373,-1.4373,-1.4373,-1.4373,-1.4373,-1.4244,-1.3915,-1.3409,-1.3084,-1.2764,-1.2323,-1.2076,-1.2144,-1.2466,-1.265,-1.2742,-1.303,-1.3406,-1.3809,-1.4231,-1.4442,-1.4515,-1.4515,-1.4515,-1.4515,-1.4515,-1.4515,-1.4515,-1.4515,-1.4515,-1.4515,-1.4515,-1.4515,-1.4515,-1.4515,-1.4515,-1.4515,-1.4515,-1.4515,-1.4836,-1.6138,-1.6441,-1.6441,-1.6441,-1.6688,-1.6908,-1.6908,-1.6908,-1.6482,-1.5275,-1.5062,-1.5062,-1.5062,-1.6123,-1.6908,-1.6908,-1.6908,-1.6908,-1.6908,-1.5771,-1.5062,-1.5062,-1.5062,-1.5062,-1.5062,-1.5062,-1.5062,-1.5062,-1.5062,-1.5062,-1.5062,-1.5062,-1.4927,-1.4569,-1.6132,-1.4879,-1.1111,-1.126,-1.1335,0.0,0.0,0.0,0.0,-1.2447,0.0,0.0,0.0,-0.884,-0.774,0.0,0.0,0.0,0.0,0.0,0.0,0.0,0.0,0.0,0.0,0.0,0.0,0.0,0.0,0.0,-1.2058,-1.2549,-1.4253,-1.3183,-1.3019,-1.4307,-1.4373,-1.4373,-1.4373,-1.4373,-1.4373,-1.4373,-1.4373,-1.4384,-1.4326,-1.3552,-1.317,-1.3122,-1.2412,-1.2076,-1.2076,-1.2172,-1.2393,-1.2724,-1.277,-1.2984,-1.3406,-1.38,-1.4185,-1.4515,-1.4515,-1.4515,-1.4515,-1.4515,-1.4515,-1.4515,-1.4515,-1.4515,-1.4515,-1.4515,-1.4515,-1.4515,-1.4515,-1.4515,-1.4515,-1.4515,-1.4515,-1.4561,-1.4744,-1.4781,-1.4781,-1.4781,-1.59,-1.6908,-1.6908,-1.6908,-1.6839,-1.6691,-1.6621,-1.6621,-1.6621,-1.676,-1.6908,-1.6908,-1.6908,-1.6908,-1.6908,-1.676,-1.6621,-1.6621,-1.6621,-1.6621,-1.6621,-1.6621,-1.6621,-1.6621,-1.6621,-1.6621,-1.6621,-1.6621,-1.5991,-1.4569,-1.6132,-1.4879,-1.1111,-1.1855,-1.2157,0.0,0.0,0.0,0.0,0.0,0.0,-0.9841,0.0,-0.8894,0.0,0.0,0.0,0.0,0.0,0.0,0.0,0.0,0.0,0.0,0.0,0.0,0.0,0.0,0.0,0.0,0.0,0.0,0.0,-1.2462,-1.2451,-1.3903,-1.398,-1.41,-1.4373,-1.4373,-1.4373,-1.4373,-1.4373,-1.428,-1.4046,-1.3457,-1.3074,-1.29,-1.2372,-1.2076,-1.2076,-1.2076,-1.2227,-1.2374,-1.2374,-1.2614,-1.2947,-1.3166,-1.3571,-1.4148,-1.4148,-1.4304,-1.4515,-1.4515,-1.4515,-1.4515,-1.4515,-1.4515,-1.4515,-1.4515,-1.4515,-1.4515,-1.4515,-1.4515,-1.4515,-1.4515,-1.4515,-1.4515,-1.4515,-1.4515,-1.4515,-1.4515,-1.5038,-1.579,-1.6725,-1.6908,-1.6908,-1.6908,-1.6908,-1.6908,-1.6908,-1.6908,-1.6908,-1.6908,-1.6908,-1.6908,-1.6908,-1.6908,-1.6908,-1.6908,-1.6908,-1.6908,-1.6908,-1.6908,-1.6908,-1.6908,-1.6908,-1.6908,-1.6908,-1.6908,-1.6551,-1.5912,-1.6551,-1.6035,-1.4442,-1.4807,-1.4027,-1.6049,0.0,0.0,0.0,0.0,0.0,0.0,0.0,0.0,0.0,0.0,0.0,0.0,0.0,0.0,0.0,0.0,0.0,0.0,0.0,0.0,0.0,0.0,0.0,0.0,0.0,0.0,0.0,0.0,-1.1505,-1.3193,-1.3455,-1.3751,-1.4176,-1.4307,-1.4373,-1.4373,-1.4373,-1.4233,-1.3952,-1.3563,-1.318,-1.2813,-1.2421,-1.2175,-1.2076,-1.2076,-1.2076,-1.2076,-1.2076,-1.225,-1.2558,-1.2558,-1.2982,-1.3561,-1.3681,-1.3983,-1.4341,-1.4341,-1.4414,-1.4515,-1.4515,-1.4515,-1.4515,-1.4515,-1.4515,-1.4515,-1.4515,-1.4515,-1.4515,-1.4515,-1.4515,-1.4515,-1.4515,-1.4515,-1.4515,-1.4515,-1.4515,-1.4854,-1.6028,-1.6606,-1.6908,-1.6908,-1.6908,-1.6908,-1.6908,-1.6908,-1.6908,-1.6908,-1.6908,-1.6908,-1.6908,-1.6908,-1.6908,-1.6908,-1.6908,-1.6908,-1.6908,-1.6908,-1.6908,-1.6908,-1.6908,-1.6908,-1.6908,-1.6908,-1.6908,-1.6908,-1.6908,-1.6908,-1.6908,-1.6908,-1.5683,0.0,0.0,0.0,-1.4565,0.0,0.0,0.0,0.0,-1.0244,0.0,0.0,0.0,0.0,0.0,0.0,0.0,0.0,0.0,0.0,0.0,0.0,0.0,0.0,0.0,0.0,0.0,0.0,0.0,0.0,0.0,-1.2123,-1.2866,-1.3364,-1.3696,-1.4144,-1.4373,-1.4373,-1.4373,-1.4373,-1.4384,-1.3952,-1.3573,-1.317,-1.2813,-1.248,-1.2076,-1.2076,-1.2076,-1.2076,-1.2076,-1.2135,-1.2094,-1.2094,-1.2393,-1.2807,-1.3167,-1.3561,-1.3901,-1.3901,-1.4167,-1.4515,-1.4515,-1.4515,-1.4515,-1.4515,-1.4515,-1.4515,-1.4515,-1.4515,-1.4515,-1.4515,-1.4515,-1.4515,-1.4515,-1.4515,-1.4515,-1.4515,-1.4515,-1.4533,-1.4579,-1.5845,-1.6908,-1.6908,-1.6908,-1.6908,-1.6908,-1.6908,-1.6908,-1.6908,-1.6908,-1.6908,-1.6908,-1.6908,-1.6908,-1.6908,-1.6908,-1.6908,-1.6908,-1.6908,-1.6908,-1.6908,-1.6908,-1.6908,-1.6908,-1.6908,-1.6908,-1.6908,-1.6908,-1.6908,-1.6908,-1.6908,-1.6839,0.0,0.0,-1.733,-1.5498,0.0,0.0,0.0,0.0,0.0,0.0,0.0,0.0,0.0,0.0,0.0,0.0,0.0,0.0,0.0,0.0,0.0,0.0,0.0,0.0,0.0,0.0,0.0,0.0,-0.969,0.0,0.0,-1.2975,-1.3583,-1.3872,-1.4349,-1.4512,-1.4373,-1.4373,-1.4291,-1.401,-1.3868,-1.3573,-1.3218,-1.3074,-1.2852,-1.248,-1.248,-1.2332,-1.2076,-1.2076,-1.2076,-1.2076,-1.2076,-1.2159,-1.2374,-1.2727,-1.3305,-1.3928,-1.4203,-1.4396,-1.4515,-1.4515,-1.4515,-1.4515,-1.4515,-1.4515,-1.4515,-1.4515,-1.4515,-1.4515,-1.4515,-1.4515,-1.4515,-1.4515,-1.4515,-1.4515,-1.4515,-1.4515,-1.4515,-1.4515,-1.5808,-1.6908,-1.6908,-1.6908,-1.6908,-1.6908,-1.6908,-1.6908,-1.6908,-1.6908,-1.6908,-1.6908,-1.6908,-1.6908,-1.6908,-1.6908,-1.6908,-1.6908,-1.6908,-1.6908,-1.6908,-1.6908,-1.6908,-1.6908,-1.6908,-1.6908,-1.6908,-1.6908,-1.6908,-1.6908,-1.6908,-1.6908,-1.7882,-1.7882,0.0,-1.6128,-1.5176,0.0,-1.2391,0.0,0.0,0.0,0.0,0.0,0.0,0.0,0.0,0.0,0.0,0.0,0.0,0.0,0.0,0.0,0.0,0.0,0.0,0.0,-0.8376,-0.9253,0.0,0.0,0.0,0.0,-1.3558,-1.3851,-1.4485,-1.4743,-1.4523,-1.4523,-1.4326,-1.3999,-1.3999,-1.381,-1.3409,-1.3409,-1.3228,-1.2861,-1.2861,-1.2666,-1.2323,-1.2323,-1.2224,-1.2076,-1.2076,-1.2076,-1.2104,-1.2411,-1.3028,-1.3736,-1.4148,-1.4387,-1.4515,-1.4515,-1.4515,-1.4515,-1.4515,-1.4515,-1.4515,-1.4515,-1.4515,-1.4515,-1.4515,-1.4515,-1.4515,-1.4515,-1.4515,-1.4515,-1.4515,-1.4515,-1.4515,-1.4515,-1.5349,-1.6147,-1.6422,-1.6716,-1.6908,-1.6908,-1.6908,-1.6908,-1.6908,-1.6908,-1.6908,-1.6908,-1.6908,-1.6908,-1.6908,-1.6908,-1.6908,-1.6908,-1.6908,-1.6908,-1.6908,-1.6908,-1.6908,-1.6908,-1.6908,-1.6908,-1.6908,-1.6908,-1.6908,-1.6908,-1.6908,-1.6908]},{"header":{"parameterUnit":"m.s-1","parameterCategory":1,"la1":30.6,"la2":29.2853,"lo1":-89.7004,"lo2":-87.6739,"dy":0.0162,"dx":0.0183,"nx":112,"ny":82,"refTime":"2024-07-10T06:00:00:Z","depth":0,"parameterNumber":3,"parameterNumberName":"V-component_of_WINDS"},"data":[0.0,0.0,0.0,0.0,0.0,0.0,0.0,0.0,0.0,0.0,0.0,0.0,0.0,0.0,0.0,0.0,0.0,0.0,0.0,0.0,0.0,0.0,0.0,0.0,0.0,0.0,0.0,0.0,0.0,0.0,0.0,0.0,0.0,0.0,0.0,0.0,0.0,0.0,0.0,0.0,0.0,0.0,0.0,0.0,0.0,0.0,0.0,0.0,0.0,0.0,0.0,0.0,0.0,0.0,0.0,0.0,0.0,0.0,0.0,0.0,0.0,0.0,0.0,0.0,0.0,0.0,0.0,0.0,0.0,0.0,0.0,0.0,0.0,0.0,0.0,0.0,0.0,0.0,0.0,0.0,0.0,0.0,0.0,0.0,0.0,0.0,0.0,0.0,0.0,0.0,0.0,-2.0257,-2.2911,-2.4472,-2.4371,-2.4353,-2.2632,-1.8591,0.0,0.0,0.0,0.0,0.0,0.0,0.0,0.0,0.0,0.0,0.0,0.0,0.0,0.0,0.0,0.0,0.0,0.0,0.0,0.0,0.0,0.0,0.0,0.0,0.0,0.0,0.0,0.0,0.0,0.0,0.0,0.0,0.0,0.0,0.0,0.0,0.0,0.0,0.0,0.0,0.0,0.0,0.0,0.0,0.0,0.0,0.0,0.0,0.0,0.0,0.0,0.0,0.0,0.0,0.0,0.0,0.0,0.0,0.0,0.0,0.0,0.0,0.0,0.0,0.0,0.0,0.0,0.0,0.0,0.0,0.0,0.0,0.0,0.0,0.0,0.0,0.0,0.0,0.0,0.0,0.0,0.0,0.0,0.0,0.0,0.0,0.0,0.0,0.0,0.0,0.0,0.0,0.0,0.0,0.0,0.0,0.0,0.0,0.0,0.0,0.0,0.0,0.0,0.0,-1.9155,-2.3642,-2.4403,-2.4607,-2.4642,-2.4642,-2.3165,-1.9688,0.0,0.0,0.0,0.0,0.0,0.0,0.0,0.0,0.0,0.0,0.0,0.0,0.0,0.0,0.0,0.0,0.0,0.0,0.0,0.0,0.0,0.0,0.0,0.0,0.0,0.0,0.0,0.0,0.0,0.0,0.0,0.0,0.0,0.0,0.0,0.0,0.0,0.0,0.0,0.0,0.0,0.0,0.0,0.0,0.0,0.0,0.0,0.0,0.0,0.0,0.0,0.0,0.0,0.0,0.0,0.0,0.0,0.0,0.0,0.0,0.0,0.0,0.0,0.0,0.0,0.0,0.0,0.0,0.0,0.0,0.0,0.0,0.0,0.0,0.0,0.0,0.0,0.0,0.0,0.0,0.0,0.0,0.0,0.0,0.0,0.0,0.0,0.0,0.0,0.0,0.0,0.0,0.0,0.0,0.0,0.0,0.0,0.0,0.0,0.0,0.0,0.0,0.0,-1.8137,-2.0454,-2.4471,-2.4907,-2.4893,-2.4823,-2.4823,-2.3347,-1.9907,-1.8074,0.0,0.0,0.0,0.0,0.0,0.0,0.0,0.0,0.0,0.0,0.0,0.0,0.0,0.0,0.0,0.0,0.0,0.0,0.0,0.0,0.0,0.0,0.0,0.0,0.0,0.0,0.0,0.0,0.0,0.0,0.0,0.0,0.0,0.0,0.0,0.0,0.0,0.0,0.0,0.0,0.0,0.0,0.0,0.0,0.0,0.0,0.0,0.0,0.0,0.0,0.0,0.0,0.0,0.0,0.0,0.0,0.0,0.0,0.0,0.0,0.0,0.0,0.0,0.0,0.0,0.0,0.0,0.0,0.0,0.0,0.0,0.0,0.0,0.0,0.0,0.0,0.0,0.0,0.0,0.0,0.0,0.0,0.0,0.0,0.0,0.0,0.0,0.0,0.0,0.0,0.0,0.0,0.0,0.0,0.0,0.0,0.0,0.0,0.0,0.0,0.0,0.0,-2.0104,-2.1793,-2.4664,-2.5113,-2.5137,-2.4987,-2.4423,-2.276,-1.9703,-1.76,0.0,0.0,0.0,0.0,0.0,0.0,0.0,0.0,0.0,0.0,0.0,0.0,0.0,0.0,0.0,0.0,0.0,0.0,0.0,0.0,0.0,0.0,0.0,0.0,0.0,0.0,0.0,0.0,0.0,0.0,0.0,0.0,0.0,0.0,0.0,0.0,0.0,0.0,0.0,0.0,0.0,0.0,0.0,0.0,0.0,0.0,0.0,0.0,0.0,0.0,0.0,0.0,0.0,0.0,0.0,0.0,0.0,0.0,0.0,0.0,0.0,0.0,0.0,0.0,0.0,0.0,0.0,0.0,0.0,0.0,0.0,0.0,0.0,0.0,0.0,0.0,0.0,0.0,0.0,0.0,0.0,0.0,0.0,0.0,0.0,0.0,0.0,0.0,0.0,0.0,0.0,0.0,0.0,0.0,0.0,0.0,0.0,0.0,0.0,0.0,0.0,0.0,-2.0489,-2.3135,-2.4989,-2.5191,-2.5191,-2.518,-2.3021,-2.0871,-1.9067,-1.5861,0.0,0.0,0.0,0.0,0.0,0.0,0.0,0.0,0.0,0.0,0.0,0.0,0.0,0.0,0.0,0.0,0.0,0.0,0.0,0.0,0.0,0.0,0.0,0.0,0.0,0.0,0.0,0.0,0.0,0.0,0.0,0.0,0.0,0.0,0.0,0.0,0.0,0.0,0.0,0.0,0.0,0.0,0.0,0.0,0.0,0.0,0.0,0.0,0.0,0.0,0.0,0.0,0.0,0.0,0.0,0.0,0.0,0.0,0.0,0.0,0.0,0.0,0.0,0.0,0.0,0.0,0.0,0.0,0.0,0.0,0.0,0.0,0.0,0.0,0.0,0.0,0.0,0.0,0.0,0.0,0.0,0.0,0.0,0.0,0.0,0.0,0.0,0.0,0.0,0.0,0.0,0.0,0.0,0.0,0.0,0.0,0.0,0.0,0.0,0.0,0.0,0.0,-1.9602,-2.2104,0.0,-2.5191,-2.5191,-2.5191,-2.3823,-2.1798,-1.9066,0.0,0.0,0.0,0.0,0.0,0.0,0.0,0.0,0.0,0.0,0.0,0.0,0.0,0.0,0.0,0.0,0.0,0.0,0.0,0.0,0.0,0.0,0.0,0.0,0.0,0.0,0.0,0.0,0.0,0.0,0.0,0.0,0.0,0.0,0.0,0.0,0.0,0.0,0.0,0.0,0.0,0.0,0.0,0.0,0.0,0.0,0.0,0.0,0.0,0.0,0.0,0.0,0.0,0.0,0.0,0.0,0.0,0.0,0.0,0.0,0.0,0.0,0.0,0.0,0.0,0.0,0.0,0.0,0.0,0.0,0.0,0.0,0.0,0.0,0.0,0.0,0.0,0.0,0.0,0.0,0.0,0.0,0.0,0.0,0.0,0.0,0.0,0.0,0.0,0.0,0.0,0.0,0.0,0.0,0.0,0.0,0.0,0.0,0.0,0.0,0.0,0.0,-1.7112,-1.9439,-2.1926,0.0,-2.5168,-2.5191,-2.5191,-2.3651,-2.1492,-1.8674,0.0,0.0,0.0,0.0,0.0,0.0,0.0,0.0,0.0,0.0,0.0,0.0,0.0,0.0,0.0,0.0,0.0,0.0,0.0,0.0,0.0,0.0,0.0,0.0,0.0,0.0,0.0,0.0,0.0,0.0,0.0,0.0,0.0,0.0,0.0,0.0,0.0,0.0,0.0,0.0,0.0,0.0,0.0,0.0,0.0,0.0,0.0,0.0,0.0,0.0,0.0,0.0,0.0,0.0,0.0,0.0,0.0,0.0,0.0,0.0,0.0,0.0,0.0,0.0,0.0,0.0,0.0,0.0,0.0,0.0,0.0,0.0,0.0,0.0,0.0,0.0,0.0,0.0,0.0,0.0,0.0,0.0,0.0,0.0,0.0,0.0,0.0,0.0,0.0,0.0,0.0,0.0,0.0,0.0,0.0,0.0,0.0,0.0,0.0,0.0,0.0,0.0,-1.7178,-2.0327,-2.3051,-2.4712,-2.5069,-2.521,-2.521,-2.2085,-1.941,0.0,0.0,0.0,0.0,0.0,0.0,0.0,0.0,0.0,0.0,0.0,0.0,0.0,0.0,0.0,0.0,0.0,0.0,0.0,0.0,0.0,0.0,0.0,0.0,0.0,0.0,0.0,0.0,0.0,0.0,0.0,0.0,0.0,0.0,0.0,0.0,0.0,0.0,0.0,0.0,0.0,0.0,0.0,0.0,0.0,0.0,0.0,0.0,0.0,0.0,0.0,0.0,0.0,0.0,0.0,0.0,0.0,0.0,0.0,0.0,0.0,0.0,0.0,0.0,0.0,0.0,0.0,0.0,0.0,0.0,0.0,0.0,0.0,0.0,0.0,0.0,0.0,0.0,0.0,0.0,0.0,0.0,0.0,0.0,0.0,0.0,0.0,0.0,0.0,0.0,0.0,0.0,0.0,0.0,0.0,0.0,0.0,0.0,0.0,0.0,0.0,0.0,0.0,-1.7308,-2.0468,-2.3156,-2.4726,-2.4942,-2.4987,-2.4987,-2.298,-2.0532,-1.7767,0.0,0.0,0.0,0.0,0.0,0.0,0.0,0.0,0.0,0.0,0.0,0.0,0.0,0.0,0.0,0.0,0.0,0.0,0.0,0.0,0.0,0.0,0.0,0.0,0.0,0.0,0.0,0.0,0.0,0.0,0.0,0.0,0.0,0.0,0.0,0.0,0.0,0.0,0.0,0.0,0.0,0.0,0.0,0.0,0.0,0.0,0.0,0.0,0.0,0.0,0.0,0.0,0.0,0.0,0.0,0.0,0.0,0.0,0.0,0.0,0.0,0.0,0.0,0.0,0.0,0.0,0.0,0.0,0.0,0.0,0.0,0.0,0.0,0.0,0.0,0.0,0.0,0.0,0.0,0.0,0.0,0.0,0.0,0.0,0.0,0.0,0.0,0.0,0.0,0.0,0.0,0.0,0.0,0.0,0.0,0.0,0.0,0.0,0.0,0.0,0.0,0.0,-1.7264,-2.0607,-2.3398,-2.4755,-2.4974,-2.5013,-2.5013,-2.3783,-2.16,-1.8321,0.0,0.0,0.0,0.0,0.0,0.0,0.0,0.0,0.0,0.0,0.0,0.0,0.0,0.0,0.0,0.0,0.0,0.0,0.0,0.0,0.0,0.0,0.0,0.0,0.0,0.0,0.0,0.0,0.0,0.0,0.0,0.0,0.0,0.0,0.0,0.0,0.0,0.0,0.0,0.0,0.0,0.0,0.0,0.0,0.0,0.0,0.0,0.0,0.0,0.0,0.0,0.0,0.0,0.0,0.0,0.0,0.0,0.0,0.0,0.0,0.0,0.0,0.0,0.0,0.0,0.0,0.0,0.0,0.0,0.0,0.0,0.0,0.0,0.0,0.0,0.0,0.0,0.0,0.0,0.0,0.0,0.0,0.0,0.0,0.0,0.0,0.0,0.0,0.0,0.0,0.0,0.0,0.0,0.0,0.0,0.0,0.0,0.0,0.0,0.0,0.0,0.0,-1.7195,-2.0843,-2.3731,-2.4747,-2.5019,-2.5144,-2.5144,-2.4343,-2.2454,-1.9201,0.0,0.0,0.0,0.0,0.0,0.0,0.0,0.0,0.0,0.0,0.0,0.0,0.0,0.0,0.0,0.0,0.0,0.0,0.0,0.0,0.0,0.0,0.0,0.0,0.0,0.0,0.0,0.0,0.0,0.0,0.0,0.0,0.0,0.0,0.0,0.0,0.0,0.0,0.0,0.0,0.0,0.0,0.0,0.0,0.0,0.0,0.0,0.0,0.0,0.0,0.0,0.0,0.0,0.0,0.0,0.0,0.0,0.0,0.0,0.0,-1.5088,0.0,0.0,0.0,0.0,0.0,0.0,0.0,0.0,0.0,0.0,0.0,0.0,0.0,0.0,0.0,0.0,0.0,0.0,0.0,0.0,0.0,0.0,0.0,0.0,0.0,0.0,0.0,0.0,0.0,0.0,0.0,0.0,0.0,0.0,0.0,0.0,0.0,0.0,0.0,0.0,0.0,-1.8027,-2.1419,-2.387,-2.4381,-2.4604,-2.4685,-2.4572,-2.3915,-2.2412,-1.9842,-1.8211,0.0,0.0,0.0,0.0,0.0,0.0,0.0,0.0,0.0,0.0,0.0,0.0,0.0,0.0,0.0,0.0,0.0,0.0,0.0,0.0,0.0,0.0,0.0,0.0,0.0,0.0,0.0,0.0,0.0,0.0,0.0,0.0,0.0,0.0,0.0,0.0,0.0,0.0,0.0,0.0,0.0,0.0,0.0,0.0,0.0,0.0,0.0,0.0,0.0,0.0,0.0,0.0,0.0,0.0,0.0,0.0,0.0,0.0,0.0,0.0,-1.625,0.0,0.0,0.0,0.0,0.0,0.0,0.0,0.0,0.0,0.0,0.0,0.0,0.0,0.0,0.0,0.0,0.0,0.0,0.0,0.0,0.0,0.0,0.0,0.0,0.0,0.0,0.0,0.0,0.0,0.0,0.0,0.0,0.0,0.0,0.0,0.0,0.0,0.0,0.0,0.0,-1.888,-2.2092,-2.4351,-2.4595,-2.4746,-2.4808,-2.4749,-2.4412,-2.3347,-2.1275,-1.963,0.0,0.0,0.0,0.0,0.0,0.0,0.0,0.0,0.0,0.0,0.0,0.0,0.0,0.0,0.0,0.0,0.0,0.0,0.0,0.0,0.0,0.0,0.0,0.0,0.0,0.0,0.0,0.0,0.0,0.0,0.0,0.0,0.0,0.0,0.0,0.0,0.0,0.0,0.0,0.0,0.0,0.0,0.0,0.0,0.0,0.0,0.0,0.0,0.0,0.0,0.0,0.0,0.0,-2.491,-2.4063,-2.4897,-2.2196,-2.1516,-2.2359,-2.0564,-1.9253,-1.8349,-1.817,0.0,0.0,0.0,0.0,0.0,0.0,0.0,0.0,0.0,0.0,0.0,0.0,0.0,0.0,0.0,0.0,0.0,0.0,0.0,0.0,0.0,0.0,0.0,0.0,-2.0934,-2.0643,0.0,0.0,0.0,0.0,0.0,0.0,0.0,0.0,0.0,0.0,0.0,0.0,-1.9841,-2.2749,-2.4682,-2.479,-2.4884,-2.4931,-2.4917,-2.4931,-2.4295,-2.2741,-2.1229,-1.9732,0.0,0.0,0.0,0.0,0.0,0.0,0.0,0.0,0.0,0.0,0.0,0.0,0.0,0.0,0.0,0.0,0.0,0.0,0.0,0.0,0.0,0.0,0.0,0.0,0.0,0.0,0.0,0.0,0.0,0.0,0.0,0.0,-1.1869,-1.2782,0.0,0.0,0.0,0.0,0.0,0.0,0.0,0.0,0.0,0.0,0.0,0.0,0.0,-1.8006,-2.1953,-2.3202,-2.4013,-2.4465,-2.6716,-2.7328,-2.6507,-2.6478,-2.6555,-2.6654,-2.5981,0.0,-2.1097,-2.2386,0.0,0.0,0.0,0.0,0.0,0.0,0.0,0.0,0.0,0.0,0.0,0.0,0.0,0.0,0.0,0.0,0.0,0.0,0.0,0.0,0.0,0.0,-2.4287,-2.5081,-2.5353,-2.5139,0.0,-2.0644,-1.7748,-1.742,-1.6251,0.0,0.0,0.0,0.0,0.0,0.0,0.0,-2.1248,-2.3189,-2.4337,-2.4059,-2.4211,-2.4266,-2.4154,-2.4321,-2.4053,-2.3247,-2.244,-2.1651,-2.0836,-1.8355,0.0,0.0,0.0,0.0,0.0,0.0,0.0,0.0,0.0,0.0,0.0,0.0,0.0,0.0,0.0,0.0,0.0,0.0,0.0,0.0,0.0,0.0,0.0,0.0,0.0,0.0,0.0,0.0,0.0,-1.1897,-1.368,-1.4573,-1.5026,-1.5025,0.0,0.0,0.0,0.0,0.0,0.0,0.0,0.0,0.0,-1.9426,-1.9559,-2.1844,-2.6457,-2.6512,-2.6512,-2.6512,-2.7019,-2.7602,-2.8196,-2.8135,-2.839,-2.8828,-2.8625,-2.7379,-2.5407,-2.4266,-2.3001,-2.1498,0.0,0.0,0.0,0.0,-1.4813,-1.8166,-2.0825,-2.2636,0.0,-2.3795,0.0,0.0,0.0,0.0,0.0,0.0,0.0,0.0,0.0,0.0,-2.5208,-2.6023,-2.6204,-2.6113,-2.5751,-2.407,-2.2077,0.0,-1.9026,-1.7827,-1.6534,0.0,0.0,0.0,0.0,-2.0748,-2.2395,-2.375,-2.4561,-2.451,-2.4594,-2.4645,-2.4561,-2.4645,-2.4572,-2.4275,-2.352,-2.2962,-2.2652,-2.0245,-1.8507,0.0,0.0,0.0,0.0,0.0,0.0,0.0,0.0,0.0,0.0,0.0,0.0,0.0,0.0,0.0,0.0,0.0,0.0,0.0,0.0,0.0,0.0,0.0,0.0,0.0,0.0,0.0,0.0,-1.3853,-1.5311,-1.6243,-1.7192,-1.7436,0.0,0.0,0.0,0.0,0.0,0.0,-2.0951,-2.1567,-2.2656,-2.4409,-2.3596,-2.4908,-2.8576,-2.8587,-2.9003,-2.9826,-2.8892,-2.9225,-3.0727,-3.0364,-3.0583,-3.1157,-3.0923,-3.0431,-2.959,-2.6367,-2.5027,-2.4918,-2.3759,-2.133,-1.8466,-1.8466,-2.1267,-2.5027,-2.5027,-2.5027,-2.5027,-2.5027,-2.5479,-2.5335,-2.1695,0.0,0.0,0.0,0.0,-2.3922,-2.5262,-2.5606,-2.5823,-2.662,-2.6819,-2.6819,-2.6819,-2.6656,-2.5751,0.0,-2.2059,-2.088,-1.8917,0.0,0.0,0.0,0.0,-2.1756,-2.3246,-2.4036,-2.4561,-2.4753,-2.4768,-2.4783,-2.4846,-2.4846,-2.4875,-2.4922,-2.4317,-2.3971,-2.403,-2.2045,-2.0443,-1.937,0.0,0.0,0.0,0.0,0.0,0.0,0.0,0.0,0.0,0.0,0.0,0.0,0.0,0.0,0.0,0.0,0.0,0.0,0.0,0.0,0.0,0.0,0.0,0.0,0.0,0.0,0.0,0.0,0.0,-1.7705,-1.9176,0.0,0.0,0.0,0.0,-2.0302,-2.1163,-2.2794,-2.5431,-2.5373,-2.6316,-2.8625,-2.7296,-2.7209,-2.8594,-2.8587,-3.0152,-3.3158,-3.4039,-3.4529,-3.4624,-3.4604,-3.4604,-3.4604,-3.3644,-3.3216,-3.2922,-2.9699,-2.8352,-2.8334,-2.8261,-2.8105,-2.7912,-2.7912,-2.8087,-2.8352,-2.8352,-2.8352,-2.8352,-2.8352,-2.7013,-2.5353,-2.4846,-2.4701,0.0,0.0,-2.5371,-2.6222,-2.7073,-2.729,-2.7489,-2.8279,-2.8478,-2.8478,-2.8478,-2.7863,-2.7073,0.0,-2.5316,-2.4483,-2.3596,0.0,-2.2423,-2.2455,-2.2531,-2.2897,-2.3674,-2.3819,-2.3921,-2.4117,-2.4154,-2.4211,-2.4407,-2.4424,-2.451,-2.4707,-2.467,-2.4727,-2.4921,-2.4011,-2.2735,-2.1115,-1.8611,0.0,0.0,0.0,0.0,0.0,0.0,0.0,0.0,0.0,0.0,0.0,0.0,0.0,0.0,0.0,0.0,0.0,0.0,0.0,0.0,0.0,0.0,0.0,0.0,0.0,0.0,0.0,0.0,-2.0184,-2.1661,0.0,0.0,-2.2282,-2.3119,-2.3584,-2.4275,-2.5552,-2.7523,-2.7565,-2.8208,-2.9708,-2.9594,-2.9198,-2.8605,-3.0659,-3.227,-3.3393,-3.3743,-3.3935,-3.3935,-3.3935,-3.3935,-3.391,-3.3577,-3.3393,-3.3302,-3.2162,-3.1691,-3.1691,-3.1691,-3.1691,-3.1691,-3.1691,-3.1691,-3.1691,-3.1691,-3.1021,-3.0097,-2.9753,-2.8667,-2.7429,-2.7363,-2.7689,-2.8087,-2.8087,-2.8667,-2.9355,-2.9644,-2.9717,-2.9789,-3.0079,-2.9753,-2.9373,-2.9373,-2.8739,-2.808,-2.7791,-2.6693,-2.5516,-2.4701,-2.4773,-2.4795,-2.4266,-2.461,-2.4911,-2.4782,-2.4785,-2.4646,-2.4321,-2.4408,-2.4459,-2.4407,-2.4526,-2.4626,-2.4692,-2.4166,-2.394,-2.4163,-2.2836,-2.1813,-2.1206,-1.8762,-1.6534,0.0,0.0,0.0,0.0,0.0,0.0,0.0,0.0,0.0,0.0,0.0,0.0,0.0,0.0,0.0,0.0,0.0,0.0,0.0,0.0,0.0,0.0,0.0,0.0,0.0,0.0,-2.0735,-2.1899,-2.3549,-2.4369,-2.3804,-2.4993,-2.5978,-2.6362,-2.7035,-2.8021,-2.9446,-2.9461,-2.986,-3.0836,-3.0975,-3.0749,-3.0224,-3.2343,-3.3393,-3.3393,-3.3393,-3.3393,-3.3393,-3.3393,-3.3991,-3.5023,-3.5023,-3.4806,-3.448,-3.448,-3.4371,-3.4172,-3.361,-3.3393,-3.3393,-3.3393,-3.3176,-3.2832,-3.2651,-3.189,-3.093,-3.0586,-2.9989,-2.9409,-2.9409,-2.9771,-3.0188,-3.0188,-3.0586,-3.0985,-3.0985,-3.0985,-3.0985,-3.0985,-3.0586,-3.0188,-3.0188,-2.9572,-2.9011,-2.9011,-2.7924,-2.6765,-2.595,-2.6258,-2.6331,-2.5534,-2.586,-2.605,-2.5677,-2.5429,-2.5167,-2.4855,-2.4727,-2.4673,-2.4626,-2.4704,-2.4802,-2.4802,-2.4256,-2.3865,-2.3708,-2.2628,-2.1775,-2.1206,-1.9035,-1.7359,-1.6241,0.0,0.0,0.0,0.0,0.0,0.0,0.0,0.0,0.0,0.0,0.0,0.0,0.0,0.0,0.0,0.0,0.0,0.0,0.0,0.0,0.0,0.0,0.0,-1.932,-2.1279,-2.2781,-2.2817,-2.4864,-2.5968,-2.519,-2.6584,-2.7852,-2.8605,-2.9391,-3.0283,-3.1279,-3.1137,-3.1419,-3.2206,-3.1518,-3.1854,-3.3393,-3.3393,-3.3393,-3.3393,-3.3393,-3.3447,-3.3556,-3.3556,-3.524,-3.8192,-3.8156,-3.7558,-3.6598,-3.658,-3.629,-3.5675,-3.4027,-3.3393,-3.3393,-3.3393,-3.2741,-3.1791,-3.1256,-3.1057,-3.1057,-3.1057,-3.1057,-3.1057,-3.1057,-3.1057,-3.1057,-3.1057,-3.1057,-3.1057,-3.1057,-3.1057,-3.1057,-3.1057,-3.1057,-3.1039,-3.1039,-3.0405,-2.9826,-2.9826,-2.9192,-2.837,-2.7598,-2.7453,-2.7182,-2.6403,-2.6276,0.0,-2.624,-2.5728,-2.5423,-2.5616,-2.5084,-2.4825,-2.5021,-2.4996,-2.4996,-2.4996,-2.4977,-2.4561,-2.3727,-2.367,-2.2893,-2.1282,-1.9585,-1.8732,-1.8732,0.0,0.0,0.0,0.0,0.0,0.0,0.0,0.0,0.0,0.0,0.0,0.0,0.0,0.0,0.0,0.0,0.0,0.0,0.0,0.0,0.0,0.0,-2.1966,-2.1731,-2.3234,-2.4592,-2.5172,-2.6856,-2.7845,-2.761,-2.9065,-3.0097,-3.0314,-3.055,-3.103,-3.191,-3.191,-3.2254,-3.3047,-3.3615,-3.3737,-3.3393,-3.3393,-3.3393,-3.3393,-3.3393,-3.4624,-3.687,-3.687,-3.7359,-3.8156,-3.7377,-3.687,-3.658,-3.6182,-3.6164,-3.6182,-3.419,-3.3393,-3.3393,-3.3393,-3.3212,-3.294,-3.2795,-3.2741,-3.2741,-3.2741,-3.2741,-3.2741,-3.2741,-3.2741,-3.2741,-3.2741,-3.2741,-3.2741,-3.2741,-3.2741,-3.2741,-3.2741,-3.2288,-3.1872,-3.1872,-3.1238,-3.0659,-3.0659,-3.0007,-2.921,-2.8413,-2.8261,-2.8189,-2.7954,-2.7936,0.0,-2.7164,-2.6939,-2.6695,-2.6364,-2.5727,-2.5388,-2.5492,-2.5045,-2.4768,-2.4768,-2.4185,-2.3795,-2.3708,-2.3139,-2.2609,-2.2154,-2.0505,-1.9652,0.0,0.0,0.0,0.0,0.0,0.0,0.0,0.0,0.0,0.0,0.0,0.0,0.0,0.0,0.0,0.0,0.0,0.0,0.0,0.0,0.0,0.0,-2.3216,-2.4791,-2.5113,-2.566,-2.6312,-2.7127,-2.8341,-2.9246,-2.9572,-3.0749,-3.1492,-3.1492,-3.1799,-3.2361,-3.3158,-3.3212,-3.3465,-3.4045,-3.4661,-3.5113,-3.5403,-3.5403,-3.5403,-3.5403,-3.5403,-3.6381,-3.8192,-3.8192,-3.8192,0.0,-3.754,-3.7268,-3.725,-3.6924,-3.6997,0.0,0.0,0.0,0.0,0.0,-3.4407,-3.4371,-3.4027,-3.39,-3.3846,-3.352,-3.3393,-3.3393,-3.3393,-3.3393,-3.3393,-3.3393,-3.3393,-3.3393,-3.3393,-3.3393,-3.3393,-3.3393,-3.3049,-3.2705,-3.2705,-3.2071,-3.1492,-3.1492,-3.084,0.0,-2.9246,-2.883,-2.8587,-2.8587,-2.8587,-2.8424,-2.7978,-2.7671,-2.7406,-2.7086,-2.6482,-2.6005,-2.5797,-2.5431,0.0,0.0,0.0,-2.3955,-2.3708,-2.2931,0.0,0.0,0.0,0.0,0.0,0.0,0.0,0.0,-1.9842,-1.952,0.0,0.0,0.0,0.0,0.0,0.0,0.0,0.0,0.0,0.0,0.0,0.0,0.0,0.0,0.0,0.0,-2.566,-2.7852,-2.8732,-2.8268,-2.8087,-2.8786,-2.9572,-3.0333,-3.1057,-3.1854,-3.2361,-3.2451,-3.314,-3.39,-3.4697,0.0,0.0,0.0,0.0,-3.6109,-3.7993,-3.8138,-3.8192,-3.8192,-3.8192,-3.8192,-3.8192,-3.8192,-3.8192,-3.8192,-3.8192,-3.8192,-3.8192,-3.8192,-3.8192,-3.8047,-3.6526,-3.6182,-3.6453,-3.5983,-3.582,-3.5711,-3.4987,0.0,0.0,-3.39,-3.3665,-3.3647,-3.3556,-3.3538,-3.352,-3.3429,-3.3393,-3.3393,-3.3393,-3.3393,-3.3393,-3.3393,-3.3393,-3.3393,-3.3393,-3.2832,-3.2343,-3.2343,-3.1691,-3.0894,-3.017,-2.9337,-2.8721,-2.8605,-2.8587,-2.8587,-2.8587,-2.813,-2.7812,-2.7834,0.0,0.0,-2.6165,-2.5974,-2.5678,-2.5139,-2.5034,-2.4636,-2.3878,-2.3158,-2.312,-2.3821,-2.384,-2.4219,-2.501,-2.501,-2.501,-2.4915,-2.1168,-2.0676,0.0,0.0,0.0,0.0,0.0,0.0,0.0,0.0,0.0,0.0,0.0,0.0,0.0,0.0,0.0,-2.6059,-2.7538,-2.8884,-3.0333,-3.0387,-3.0351,-3.0514,-3.1238,-3.1799,-3.1944,-3.2705,-3.3447,-3.4099,-3.428,-3.4733,-3.553,-3.5584,-3.5602,-3.5639,-3.6254,-3.6707,-3.6906,-3.7757,-3.8192,-3.8192,0.0,0.0,-3.8192,-3.8192,-3.8192,-3.8192,-3.8192,-3.8192,-3.8192,-3.8192,-3.8192,-3.8083,-3.7123,-3.6435,-3.5946,-3.5856,-3.582,-3.5783,-3.5639,-3.5584,-3.5548,-3.5403,-3.5349,-3.5222,-3.457,-3.4371,0.0,-3.3592,-3.3393,-3.3393,-3.3393,-3.3393,-3.3393,-3.3393,-3.3393,-3.3393,-3.3393,-3.3284,-3.3176,-3.3176,-3.2524,-3.1908,-3.1763,-3.0532,-2.9355,-2.8721,-2.8587,-2.8587,-2.8587,-2.8492,-2.8506,-2.8718,-2.8029,-2.7527,-2.7584,-2.6541,-2.5839,-2.5737,-2.5267,-2.4934,-2.4763,-2.4598,-2.4593,-2.4763,-2.4763,-2.4839,-2.501,-2.501,-2.501,-2.4991,-2.4163,-2.439,0.0,0.0,0.0,0.0,0.0,0.0,0.0,0.0,0.0,0.0,0.0,-2.1332,0.0,0.0,-2.6312,-2.8286,-2.9282,-3.0224,-3.1419,-3.16,-3.16,-3.16,-3.1962,-3.2361,-3.2759,-3.3538,-3.4172,-3.457,-3.4987,-3.5548,-3.6363,-3.6399,-3.658,-3.6997,-3.7377,-3.7522,-3.7395,-3.792,-3.8192,-3.8192,-3.8192,-3.8192,-3.8192,-3.8192,-3.8192,-3.8192,-3.8192,-3.8192,-3.8192,-3.8192,-3.8192,-3.8138,-3.7688,-3.729,-3.6997,-3.6997,-3.6997,-3.6942,-3.6544,-3.6399,-3.6327,-3.5847,-3.572,-3.5616,-3.5187,-3.4772,-3.4375,-3.3978,-3.3563,-3.3256,-3.3256,-3.3304,-3.3322,-3.3274,-3.3334,-3.3411,-3.3352,-3.3382,-3.3393,-3.3393,-3.3085,-3.2669,-3.227,-3.1528,-3.0586,-2.9373,-2.8866,-2.8587,-2.8587,-2.8587,-2.8712,-2.898,-2.8613,-2.8323,-2.8202,-2.6866,-2.6057,-2.6057,-2.539,-2.501,-2.501,-2.501,-2.501,-2.501,-2.501,-2.52,-2.5598,-2.5598,-2.5825,-2.6261,-2.6261,-2.6242,0.0,0.0,0.0,0.0,0.0,0.0,0.0,0.0,-2.0499,-2.2292,-2.3632,-2.499,-2.6602,-2.796,-2.9156,-3.0097,-3.0803,-3.151,-3.2325,-3.2433,-3.2433,-3.2433,-3.2433,-3.2687,-3.3339,-3.4135,-3.4661,-3.4824,-3.5584,-3.6381,-3.7178,-3.7214,-3.7522,-3.8174,-3.8192,-3.8192,-3.8192,-3.8192,-3.8192,-3.8192,-3.8192,-3.8192,-3.8192,-3.8192,-3.8192,-3.8192,-3.8192,-3.8192,-3.8174,-3.8174,-3.814,-3.814,-3.8002,-3.8054,-3.8158,-3.8158,-3.814,-3.805,-3.7398,-3.7181,-3.704,-3.6305,-3.6056,-3.6005,-3.5795,-3.5292,-3.4717,-3.4411,-3.3822,-3.3283,-3.3122,-3.3165,-3.3214,-3.3135,-3.3226,-3.3334,-3.3292,-3.3322,-3.3382,-3.3382,-3.3411,-3.3194,-3.2542,-3.2288,-3.1636,-3.0025,-2.9246,-2.8793,-2.8605,-2.8587,-2.8687,-2.8887,-2.8957,-2.8849,-2.8427,-2.7301,-2.6578,-2.6456,-2.5844,-2.5503,-2.5503,-2.5503,-2.5503,-2.5503,-2.5503,-2.5806,-2.6451,-2.6451,-2.6811,-2.7494,-2.7665,-2.7346,-1.6548,-1.6439,0.0,-1.934,-1.9359,-1.9956,0.0,0.0,-2.3922,-2.6258,-2.6892,-2.7489,-2.9083,-2.9536,-3.0152,-3.1673,-3.1999,-3.2343,-3.3158,-3.3266,-3.3266,-3.3266,-3.3266,-3.3302,-3.3393,-3.4135,-3.4914,-3.562,-3.6399,-3.7214,-3.8011,-3.8047,-3.8101,-3.8192,-3.8192,-3.8192,-3.8192,-3.8192,-3.8192,-3.8192,-3.8192,-3.8192,-3.8192,-3.8192,-3.8192,-3.8192,-3.8192,-3.8122,-3.8018,-3.8018,-3.7985,-3.7934,-3.7899,-3.7934,-3.7934,-3.7934,-3.7985,-3.7984,-3.7861,-3.7808,-3.779,-3.7665,-3.7629,-3.7503,-3.6784,-3.6514,-3.6137,-3.4717,-3.4249,-3.3984,-3.3283,-3.3117,-3.3117,-3.3117,-3.3117,-3.3117,-3.3117,-3.3214,-3.3292,-3.3292,-3.3352,-3.3375,-3.3284,-3.2669,-3.1636,-3.0025,-2.9699,-2.9409,-2.8677,-2.8587,-2.8612,-2.8637,-2.8863,-2.8849,-2.8427,-2.8237,-2.7928,-2.7384,-2.7266,-2.7228,-2.7228,-2.7228,-2.7228,-2.7228,-2.7228,-2.7266,-2.7361,-2.7361,-2.7399,-2.7513,-2.8237,-2.8506,-2.0029,0.0,0.0,0.0,-2.3831,-2.4574,-2.7055,-2.7435,-2.758,-2.8594,-2.9174,-2.9844,-3.0985,-3.1184,-3.1564,0.0,-3.2904,-3.3013,-3.3357,-3.3393,-3.3393,-3.3393,-3.3393,-3.3393,-3.3393,-3.4552,-3.5457,-3.5783,-3.6979,-3.783,-3.8174,-3.8192,-3.8192,-3.8192,-3.8192,-3.8192,-3.8192,-3.8192,-3.8192,-3.8192,-3.8192,-3.8192,-3.8192,-3.8192,-3.8192,-3.8192,-3.8122,-3.8036,-3.7984,-3.7951,-3.7934,-3.7899,-3.781,-3.7846,-3.7899,-3.7899,-3.7934,-3.7951,-3.7899,-3.7899,-3.7899,-3.781,-3.7792,-3.7703,-3.7345,-3.688,-3.6379,-3.5699,-3.4876,-3.4106,-3.3766,-3.3369,-3.3042,-3.2993,-3.3024,-3.3086,-3.3042,-3.3104,-3.3214,-3.3292,-3.3244,-3.3256,-3.3322,-3.3003,-3.2372,-3.1281,-3.036,-2.9663,-2.9337,-2.8902,-2.8694,-2.8984,-2.9334,-2.9458,-2.9298,-2.8844,-2.848,-2.8218,-2.7759,-2.7494,-2.7494,-2.7494,-2.7494,-2.7494,-2.7494,-2.774,-2.8199,-2.8199,-2.8446,-2.89,-2.9241,-2.9396,-2.2383,0.0,0.0,-2.6186,-2.7308,-2.8268,-2.9083,-2.9717,-3.0115,-3.0115,-3.0586,-3.1166,-3.1763,-3.2053,0.0,-3.2977,-3.3447,-3.3647,-3.3429,-3.3592,-3.3647,-3.3429,-3.3393,-3.3393,-3.3393,-3.4661,-3.5566,-3.5783,-3.7087,-3.7957,-3.8174,-3.8192,-3.8192,-3.8192,-3.8192,-3.8192,-3.8192,-3.8192,-3.8192,-3.8192,-3.8192,-3.8174,-3.814,-3.8124,-3.8233,-3.8432,-3.811,-3.8093,-3.8239,-3.7971,-3.781,-3.7828,-3.7721,-3.7721,-3.7828,-3.7828,-3.7828,-3.7846,-3.7828,-3.7828,-3.7775,-3.7721,-3.7667,-3.7667,-3.7613,-3.7184,-3.6684,-3.6453,-3.5596,-3.465,-3.4222,-3.3702,-3.3234,-3.2969,-3.2961,-3.3024,-3.2979,-3.3042,-3.3104,-3.3201,-3.3135,-3.3117,-3.3214,-3.3165,-3.2937,-3.2516,-3.1291,-3.0296,-2.9844,-2.9178,-2.8845,-2.9251,-2.9608,-2.9839,-2.9907,-2.9358,-2.9017,-2.9017,-2.8483,-2.8161,-2.8161,-2.8161,-2.8161,-2.8161,-2.8161,-2.8446,-2.9017,-2.9017,-2.932,-2.9888,-2.9888,-3.0021,0.0,0.0,-2.6331,-2.7164,-2.854,-2.9934,-3.0731,-3.0948,-3.0948,-3.0948,-3.0966,-3.1003,-3.1021,-3.1673,-3.2198,-3.2234,-3.3556,-3.4298,-3.352,-3.4081,-3.428,-3.3502,-3.3393,-3.3393,0.0,-3.4154,-3.4969,-3.5747,-3.6562,-3.7359,-3.8156,-3.8192,-3.8192,-3.8192,-3.8192,-3.8192,-3.8192,-3.8192,-3.8192,-3.8192,-3.8192,-3.8122,-3.7984,-3.7916,-3.833,-3.9031,-3.824,-3.8277,-3.8796,-3.8026,-3.7685,-3.7631,-3.7613,-3.7631,-3.7631,-3.7631,-3.7649,-3.7703,-3.7613,-3.7631,-3.7631,-3.7613,-3.7613,-3.7613,-3.7577,-3.7559,-3.738,-3.6613,-3.6363,-3.5989,-3.449,-3.4079,-3.3865,-3.308,-3.2916,-3.2916,-3.2916,-3.2948,-3.3011,-3.3028,-3.3073,-3.3086,-3.3117,-3.3086,-3.3135,-3.3244,-3.2552,-3.148,-2.9989,-2.9332,-2.9071,-2.9272,-2.9494,-2.9681,-2.9872,-2.9869,-2.9851,-2.9851,-2.9832,-2.9832,-2.9832,-2.9832,-2.9832,-2.9832,-2.9832,-2.9832,-2.9851,-2.9851,-2.9869,-2.9888,-2.9888,-3.0343,0.0,0.0,-2.8123,-2.9445,-3.0604,-3.16,-3.2358,-3.2094,-3.1715,-3.1686,-3.0792,-3.0053,-3.0053,-3.0342,-3.0731,-3.1237,-3.2712,-3.3719,-3.3447,-3.4552,-3.4883,-3.3485,-3.3792,0.0,0.0,0.0,0.0,-3.5747,-3.6544,-3.7341,-3.8156,-3.8192,-3.8192,-3.8192,-3.8192,-3.8174,-3.807,-3.807,-3.8054,-3.8003,-3.8003,-3.8257,-3.869,-3.8133,-3.8618,-3.9769,-3.8367,-3.8205,-3.8832,-3.7971,-3.7613,-3.7577,-3.7577,-3.7577,-3.7577,-3.7577,-3.7613,-3.7613,-3.7631,-3.7577,-3.7577,-3.7577,-3.7577,-3.7577,-3.7577,-3.7577,-3.7523,-3.7255,-3.6809,-3.6274,-3.5757,-3.4865,-3.4044,-3.3758,-3.3277,-3.2916,-3.2916,-3.2916,-3.2948,-3.2979,-3.2979,-3.2979,-3.3042,-3.3011,-3.2993,-3.3135,-3.2588,-3.159,-2.9989,-2.9892,-2.982,-2.9349,-2.9608,-2.9839,-2.9888,-2.9888,-2.9888,-2.9888,-2.9888,-2.9888,-2.9888,-2.9888,-2.9888,-2.9888,-2.9888,-2.9888,-2.9888,-2.9888,-2.9888,-2.9907,-3.0492,-3.0928,0.0,-2.8124,-2.971,-3.1028,-3.1949,-3.26,-3.2793,-3.2451,-3.182,-3.0898,-2.989,-2.9008,-2.845,-2.8629,-2.9196,-3.0261,-3.2087,-3.3472,-3.3683,-3.5142,-3.5634,-3.4271,-3.4528,0.0,0.0,0.0,0.0,-3.61,-3.6624,-3.7223,-3.8036,-3.8072,-3.8072,-3.8072,-3.8072,-3.8198,-3.84,-3.84,-3.8509,-3.8726,-3.8708,-3.8941,-3.9425,-3.885,-3.9317,-4.0464,-3.9081,-3.8758,-3.9169,-3.8381,-3.7844,-3.7577,-3.7577,-3.7577,-3.7577,-3.7577,-3.7577,-3.7577,-3.7577,-3.7577,-3.7577,-3.7577,-3.7577,-3.7577,-3.7577,-3.7577,-3.7577,-3.7577,-3.722,-3.6756,-3.647,-3.5453,-3.4436,-3.4169,-3.3491,-3.2916,-3.2916,-3.2916,-3.2916,-3.2948,-3.2916,-3.2916,-3.2948,-3.2948,-3.2948,-3.3073,-3.2745,-3.2068,-3.0822,-3.0809,-3.0609,-2.9813,-3.0114,-3.0229,-2.9926,-2.9888,-2.9888,-2.9888,-2.9888,-2.9888,-2.9888,-2.9888,-2.9888,-2.9888,-2.9888,-2.9888,-2.9888,-2.9888,-3.0059,-3.0381,-3.0947,-3.1516,-2.8074,-2.9655,-3.1067,-3.1858,-3.2559,-3.2865,-3.2157,-3.1905,-3.115,-2.8802,-2.8226,-2.7669,0.0,0.0,-2.7673,-2.9224,-3.1679,-3.3605,-3.4195,-3.5789,-3.651,0.0,0.0,0.0,0.0,0.0,0.0,-3.6795,0.0,-3.7054,-3.7863,-3.7899,-3.7917,-3.7971,-3.7971,-3.8348,-3.9157,-3.9157,-3.948,-4.0181,-4.0141,-4.0101,-4.0137,-3.9988,-4.036,-4.1109,-4.0271,-3.9932,-3.9914,-3.9129,-3.8344,-3.7648,-3.7612,-3.7577,-3.7577,-3.7577,-3.7577,-3.7577,-3.7577,-3.7577,-3.7577,-3.7577,-3.7577,-3.7577,-3.7577,-3.7577,-3.7577,-3.7577,-3.7577,-3.7416,-3.6649,-3.5864,-3.5096,-3.4383,-3.3562,-3.2969,-3.2969,-3.2952,-3.2916,-3.2916,-3.2916,-3.2916,-3.2916,-3.2948,-3.2997,-3.2979,-3.3073,-3.2877,-3.226,-3.193,-3.1448,-3.059,-3.0923,-3.0852,-2.9964,-2.9888,-2.9888,-2.9888,-2.9888,-2.9888,-2.9888,-2.9888,-2.9888,-2.9888,-2.9888,-2.9907,-2.9964,-2.9964,-3.04,-3.1269,-3.1307,-3.2179,-2.9671,-3.0912,-3.1894,-3.2649,-3.2541,-3.2218,-3.1924,-3.0507,-2.8882,-2.7611,-2.5958,-2.4438,-2.3459,0.0,0.0,-2.7474,-3.0797,0.0,-3.4195,-3.6209,0.0,0.0,0.0,-3.6323,-3.6323,-3.6218,0.0,0.0,-3.6984,-3.7054,-3.7863,-3.7899,-3.8169,-3.878,-3.8798,-3.9139,-3.9854,-3.9761,-3.9795,-3.9991,-3.9953,-4.0274,-4.0828,-4.0182,-4.0681,-4.1912,-4.0521,-4.0253,-4.0699,-3.9361,-3.8683,-3.8433,-3.7826,-3.7577,-3.7577,-3.7577,-3.7577,-3.7577,-3.7577,-3.7577,-3.7577,-3.7577,-3.7577,-3.7577,-3.7577,-3.7577,-3.7577,-3.7577,-3.7577,-3.7541,-3.7327,-3.6684,-3.6042,-3.5864,-3.4775,-3.3794,-3.3794,-3.3312,-3.2916,-3.2916,-3.2916,-3.2916,-3.2916,-3.2916,-3.2948,-3.2979,-3.3011,-3.2804,-3.2191,-3.2368,-3.1987,-3.0646,-3.0923,-3.0852,-2.9964,-2.9888,-2.9888,-2.9888,-2.9888,-2.9888,-2.9888,-2.9888,-2.9888,-2.9888,-2.9888,-3.021,-3.0871,-3.0871,-3.1288,-3.2122,-3.2766,-3.3297,-3.0814,-3.1757,-3.2504,-3.2903,-3.245,-3.159,-3.0474,-2.8925,-2.7191,-2.5325,-2.3891,0.0,0.0,0.0,0.0,0.0,0.0,0.0,-3.3942,-3.6,-3.7076,0.0,-3.6755,0.0,-3.7524,-3.7506,-3.7809,0.0,-3.8007,-3.7811,-3.8259,-3.8599,-3.8975,-3.9423,-3.9441,-3.9779,-4.0527,-4.0828,-4.0949,-4.0949,-4.0949,-4.1199,-4.1609,-4.1163,-4.1448,-4.2234,0.0,-4.0806,-4.0521,-3.9646,-3.8879,-3.8219,-3.7773,-3.7577,-3.7577,-3.7577,-3.7577,-3.7577,-3.7577,-3.7577,-3.7577,-3.7577,-3.7577,-3.7577,-3.7577,-3.7577,-3.7577,-3.7577,-3.7577,-3.7577,-3.7577,-3.6988,-3.6399,-3.6399,-3.5471,-3.4508,-3.4169,-3.374,-3.3312,-3.2987,-3.2916,-3.2916,-3.2916,-3.2916,-3.2916,-3.2948,-3.2948,-3.2849,-3.2541,-3.2976,-3.2798,-3.1547,-3.1854,-3.177,-3.094,-3.0919,-3.0803,-3.0407,-3.044,-3.0286,-2.9907,-3.0267,-3.0286,-2.9907,-3.0267,-3.072,-3.1212,-3.1212,-3.1819,-3.2975,-3.3468,-3.3884,-3.1599,-3.2367,-3.288,-3.2791,-3.2045,-3.0814,-2.8566,-2.7174,-2.5533,-2.2589,0.0,0.0,-1.993,0.0,-2.2761,-2.4427,0.0,-3.0632,-3.3651,-3.5432,-3.6719,-3.7524,-3.7577,-3.7862,-3.8576,-3.8647,-3.8915,-3.9557,-3.9111,-3.8843,-3.895,-3.9557,-3.9968,-4.0075,-4.0164,-4.0556,-4.1252,-4.1948,-4.2287,-4.2287,-4.2287,-4.2234,-4.2126,-4.2234,-4.2234,-4.2126,-4.2126,0.0,-4.0057,-3.986,-3.8968,-3.7737,-3.763,-3.7577,-3.7577,-3.7577,-3.7577,-3.7577,-3.7577,-3.7577,-3.7577,-3.7577,-3.7577,-3.7577,-3.7577,-3.7577,-3.7577,-3.7577,-3.7577,-3.7577,-3.7577,-3.7077,-3.656,-3.656,-3.5935,-3.5186,-3.4543,-3.424,-3.3865,-3.3045,-3.2916,-3.2916,-3.2916,-3.2916,-3.2916,-3.2916,-3.2916,-3.2916,-3.2979,-3.3484,-3.3529,-3.2684,-3.3003,-3.2945,-3.2178,-3.2221,-3.1977,-3.1205,-3.1258,-3.1008,-3.0251,-3.0932,-3.0989,-3.0248,-3.0968,-3.1404,-3.1535,-3.1535,-3.233,-3.3866,-3.3866,-3.4226,-3.2277,-3.2777,-3.2755,-3.2063,-3.0832,-2.9351,-2.7603,-2.5087,0.0,0.0,0.0,-1.8342,-1.8074,-1.9842,0.0,-2.4337,0.0,0.0,0.0,0.0,-3.5988,0.0,0.0,0.0,0.0,0.0,0.0,0.0,0.0,-3.9075,-3.97,-3.9843,-4.0217,-4.0877,-4.1538,-4.1948,-4.2073,-4.2216,-4.2287,-4.2287,-4.2287,-4.1948,-4.1324,-4.1984,-4.193,-4.1306,-4.1306,0.0,-4.0788,-3.9521,-3.8843,-3.854,-3.7844,-3.7577,-3.7577,-3.7577,-3.7577,-3.7577,-3.7577,-3.7577,-3.7577,-3.7577,-3.7577,-3.7577,-3.7577,-3.7577,-3.7577,-3.7577,-3.7577,-3.7577,-3.7577,-3.7487,-3.738,-3.738,-3.6774,-3.6167,-3.6024,-3.5007,-3.3865,-3.3045,-3.2916,-3.2916,-3.2916,-3.2916,-3.2916,-3.2916,-3.2916,-3.2916,-3.2916,-3.3262,-3.325,-3.2658,-3.2863,-3.2798,-3.2139,-3.2221,-3.2184,-3.1917,-3.2053,-3.2053,-3.1902,-3.192,-3.1959,-3.1953,-3.2052,-3.2486,-3.3278,-3.3278,-3.3752,-3.468,-3.468,-3.4775,-3.1856,-3.2467,-3.2719,-3.1885,-3.0547,-2.878,-2.6354,0.0,0.0,0.0,0.0,-1.6968,-1.6968,0.0,0.0,0.0,0.0,0.0,0.0,0.0,0.0,0.0,0.0,0.0,0.0,0.0,0.0,0.0,0.0,-3.9361,-3.9343,-3.97,-4.0092,-4.0467,-4.086,-4.1056,-4.1056,-4.1056,-4.1056,-4.1056,-4.1056,-4.086,-4.0503,-4.0877,-4.0842,-4.0485,-4.0485,0.0,-3.986,-3.9111,-3.8558,-3.813,-3.7737,-3.7577,-3.7577,-3.7577,-3.7577,-3.7577,-3.7577,-3.7577,-3.7577,-3.7577,-3.7577,-3.7577,-3.7577,-3.7577,-3.7577,-3.7577,-3.7577,-3.7577,-3.7577,-3.7577,-3.7577,-3.7577,-3.6988,-3.6399,-3.6399,-3.5186,-3.399,-3.3598,-3.3169,-3.2916,-3.2916,-3.2916,-3.2916,-3.2916,-3.2916,-3.2916,-3.2916,-3.3037,-3.3087,-3.292,-3.3261,-3.3339,-3.3064,-3.325,-3.3189,-3.2695,-3.2762,-3.2634,-3.2221,-3.2536,-3.2557,-3.226,-3.2675,-3.3147,-3.3601,-3.3677,-3.4112,-3.4908,-3.4908,-3.4908,-3.1052,-3.183,-3.2438,-3.1542,-3.022,-2.8316,-2.5158,-2.2464,0.0,0.0,0.0,-1.6005,-1.6344,0.0,0.0,0.0,0.0,0.0,0.0,0.0,0.0,0.0,0.0,0.0,0.0,0.0,0.0,0.0,0.0,0.0,-3.9058,-3.9611,-3.9914,-3.9914,-3.9914,-3.9914,-3.9914,-3.9914,-3.9914,-3.9914,-3.9914,-3.9825,-3.9682,-3.9843,-3.9825,-3.9664,-3.9664,0.0,0.0,-3.8611,-3.8165,-3.7577,-3.7577,-3.7577,-3.7577,-3.7577,-3.7577,-3.7577,-3.7577,-3.7577,-3.7577,-3.7577,-3.7577,-3.7577,-3.7577,-3.7577,-3.7577,-3.7577,-3.7577,-3.7577,-3.7577,-3.7577,-3.7577,-3.7577,-3.7113,-3.656,-3.6221,-3.5186,-3.424,-3.3919,-3.333,-3.2916,-3.2916,-3.2916,-3.2916,-3.2916,-3.2916,-3.2916,-3.2916,-3.2916,-3.2961,-3.3099,-3.3494,-3.3788,-3.3895,-3.4173,-3.4078,-3.3463,-3.3499,-3.3264,-3.2606,-3.3165,-3.3224,-3.2647,-3.333,-3.371,-3.3788,-3.3885,-3.4245,-3.487,-3.4889,-3.4889,-3.0264,-3.1228,-3.1555,-3.0413,-2.9243,-2.7469,-2.4314,0.0,0.0,0.0,-1.5345,-1.4738,-1.6148,0.0,0.0,0.0,0.0,0.0,0.0,0.0,0.0,0.0,0.0,0.0,0.0,0.0,0.0,0.0,0.0,0.0,-3.9736,-3.9878,-3.9914,-3.9914,-3.9914,-3.9914,-3.9914,-3.9914,-3.9914,-3.9914,-3.9914,-3.9557,-3.8933,-3.9611,-3.9539,-3.8915,-3.8915,0.0,0.0,-3.8005,-3.7648,-3.7577,-3.7577,-3.7577,-3.7577,-3.7577,-3.7577,-3.7577,-3.7577,-3.7577,-3.7577,-3.7577,-3.7577,-3.7577,-3.7577,-3.7577,-3.7577,-3.7577,-3.7577,-3.7577,-3.7577,-3.7577,-3.7577,-3.7577,-3.7523,-3.7077,-3.5632,-3.5204,-3.4686,-3.3277,-3.2938,-3.2916,-3.2916,-3.2916,-3.2916,-3.2916,-3.2916,-3.2916,-3.2916,-3.2916,-3.2916,-3.2948,-3.3129,-3.3455,-3.3868,-3.4049,-3.4111,-3.411,-3.4228,-3.4278,-3.4203,-3.4144,-3.419,-3.4376,-3.4345,-3.4427,-3.4675,-3.4695,-3.4733,-3.4809,-3.487,-3.4888,-2.8063,-2.933,-3.0149,-2.9253,-2.7975,-2.6247,-2.3622,0.0,0.0,-1.6536,-1.5094,-1.4577,-1.6112,-1.629,-1.7236,0.0,0.0,0.0,0.0,0.0,0.0,0.0,0.0,0.0,0.0,0.0,0.0,0.0,0.0,0.0,-3.8469,-3.8522,-3.8522,-3.8522,-3.8522,-3.8522,-3.8522,-3.8522,-3.8522,-3.8522,-3.8522,-3.8362,-3.8076,-3.838,-3.8362,-3.8076,-3.8076,0.0,0.0,-3.7719,-3.7577,-3.7577,-3.7577,-3.7577,-3.7577,-3.7577,-3.7577,-3.7577,-3.7577,-3.7577,-3.7577,-3.7577,-3.7577,-3.7577,-3.7577,-3.7577,-3.7577,-3.7577,-3.7577,-3.7577,-3.7577,-3.7577,-3.7577,-3.7577,-3.7577,-3.7273,-3.6167,-3.5543,-3.49,-3.383,-3.3223,-3.2916,-3.2916,-3.2916,-3.2916,-3.2916,-3.2916,-3.2916,-3.2916,-3.2916,-3.2916,-3.2916,-3.3238,-3.353,-3.3698,-3.3998,-3.4173,-3.4197,-3.4245,-3.4269,-3.4269,-3.4221,-3.4245,-3.434,-3.4404,-3.445,-3.4561,-3.4645,-3.4666,-3.4687,-3.471,-3.4708,-2.6097,-2.7383,-2.8382,-2.7831,-2.6726,-2.5213,0.0,0.0,-1.7912,-1.6484,-1.5033,-1.4431,-1.5811,-1.5826,-1.6504,0.0,-1.9556,-2.0715,-2.4212,0.0,0.0,0.0,0.0,0.0,0.0,0.0,0.0,0.0,0.0,0.0,-3.7577,-3.7577,-3.7577,-3.7577,-3.7577,-3.7577,-3.7577,-3.7577,-3.7577,-3.7577,-3.7577,-3.7577,-3.7577,-3.7577,-3.7577,-3.7577,-3.7577,0.0,0.0,-3.7577,-3.7577,-3.7577,-3.7577,-3.7577,-3.7577,-3.7577,-3.7577,-3.7577,-3.7577,-3.7577,-3.7577,-3.7577,-3.7577,-3.7577,-3.7577,-3.7577,-3.7577,-3.7577,-3.7577,-3.7577,-3.7577,-3.7577,-3.7577,-3.7577,-3.7577,-3.7291,-3.6274,-3.5614,-3.4918,-3.3937,-3.3277,-3.2916,-3.2916,-3.2916,-3.2916,-3.2916,-3.2916,-3.2916,-3.2916,-3.293,-3.2993,-3.2993,-3.3415,-3.3671,-3.3605,-3.3921,-3.4148,-3.4197,-3.4197,-3.4197,-3.4197,-3.4197,-3.4197,-3.4197,-3.4293,-3.4363,-3.4386,-3.4495,-3.4539,-3.4539,-3.4583,-3.4602,-2.4696,-2.5673,-2.6212,-2.6057,-2.5518,-2.4527,0.0,-2.0121,-1.778,-1.6636,-1.5013,-1.4109,-1.5119,-1.5898,-1.6915,-1.8538,-2.0091,-2.1929,0.0,0.0,0.0,0.0,0.0,0.0,0.0,0.0,0.0,0.0,0.0,0.0,-3.7577,-3.7577,-3.7577,-3.7577,-3.7577,-3.7577,-3.7577,-3.7577,-3.7577,-3.7577,-3.7577,-3.7577,-3.7577,-3.7577,-3.7577,0.0,0.0,0.0,0.0,-3.7577,-3.7577,-3.7577,-3.7577,-3.7577,-3.7577,-3.7577,-3.7577,-3.7577,-3.7577,-3.7577,-3.7577,-3.7577,-3.7577,-3.7577,-3.7577,-3.7577,-3.7577,-3.7577,-3.7577,-3.7577,-3.7577,-3.7577,-3.7577,-3.7577,-3.7577,-3.7148,-3.556,-3.5221,-3.4757,-3.3205,-3.2916,-3.2916,-3.2916,-3.2916,-3.2916,-3.2916,-3.2916,-3.2916,-3.2916,-3.3068,-3.319,-3.319,-3.3625,-3.3834,-3.3633,-3.3807,-3.3998,-3.4197,-3.4197,-3.4197,-3.4197,-3.4197,-3.4197,-3.4197,-3.4197,-3.4269,-3.4386,-3.4386,-3.4386,-3.4404,-3.4539,-3.4602,-2.1076,-2.1874,-2.231,-2.1748,-2.1463,-2.0921,-1.9352,-1.8012,-1.6741,-1.5488,-1.4473,-1.4109,-1.5101,-1.5041,-1.588,-1.9109,0.0,0.0,0.0,0.0,0.0,0.0,0.0,0.0,0.0,0.0,0.0,0.0,0.0,0.0,-3.7577,-3.7577,-3.7577,-3.7577,-3.7577,-3.7577,-3.7577,-3.7577,-3.7577,-3.7577,-3.7577,-3.7577,-3.7577,-3.7577,-3.7577,0.0,0.0,0.0,0.0,-3.7577,-3.7577,-3.7577,-3.7577,-3.7577,-3.7577,-3.7577,-3.7577,-3.7577,-3.7577,-3.7577,-3.7577,-3.7577,-3.7577,-3.7577,-3.7577,-3.7577,-3.7577,-3.7577,-3.7577,-3.7577,-3.7577,-3.7577,-3.7577,-3.7577,-3.7166,-3.6488,-3.5435,-3.4811,-3.4151,-3.308,-3.2916,-3.2916,-3.2916,-3.2916,-3.2916,-3.2916,-3.2916,-3.2916,-3.2916,-3.2979,-3.2993,-3.2993,-3.3397,-3.3726,-3.3807,-3.3998,-3.4124,-3.4197,-3.4197,-3.4197,-3.4197,-3.4197,-3.4197,-3.4197,-3.4197,-3.4221,-3.4269,-3.4269,-3.4269,-3.4269,-3.4293,-3.4316,0.0,-1.9131,-1.9415,-1.9052,-1.8876,-1.8552,-1.7569,-1.6711,-1.5856,-1.4933,-1.4189,-1.3929,-1.4604,-1.4855,-1.5773,-1.8235,0.0,0.0,0.0,0.0,0.0,0.0,0.0,0.0,0.0,0.0,0.0,0.0,0.0,0.0,-3.7577,-3.7577,-3.7577,-3.7577,-3.7577,-3.7577,-3.7577,-3.7577,-3.7577,-3.7577,-3.7577,-3.7577,-3.7577,-3.7577,-3.7577,0.0,0.0,0.0,0.0,-3.7577,-3.7577,-3.7577,-3.7577,-3.7577,-3.7577,-3.7577,-3.7577,-3.7577,-3.7577,-3.7577,-3.7577,-3.7577,-3.7577,-3.7577,-3.7577,-3.7577,-3.7577,-3.7577,-3.7577,-3.7577,-3.7577,-3.7577,-3.7505,-3.7202,-3.6988,-3.647,-3.5096,-3.465,-3.4187,-3.3098,-3.2916,-3.2916,-3.2916,-3.2916,-3.2916,-3.2916,-3.2916,-3.2916,-3.2916,-3.2961,-3.3024,-3.3024,-3.3426,-3.378,-3.3895,-3.4074,-3.4197,-3.4197,-3.4197,-3.4197,-3.4197,-3.4197,-3.4197,-3.4197,-3.4197,-3.4197,-3.4197,-3.4197,-3.4197,-3.4197,-3.4197,-3.4197,0.0,-1.72,-1.7319,-1.7507,-1.7406,-1.7182,-1.6878,-1.5973,0.0,-1.4779,-1.4123,-1.3686,-1.3929,-1.5256,-1.6433,-1.6772,0.0,0.0,0.0,0.0,0.0,0.0,0.0,0.0,0.0,0.0,0.0,0.0,0.0,0.0,-3.7577,-3.7577,-3.7577,-3.7577,-3.7577,-3.7577,-3.7577,-3.7577,-3.7577,-3.7577,-3.7577,-3.7577,-3.7577,-3.7577,-3.7577,0.0,0.0,0.0,0.0,-3.7577,-3.7577,-3.7577,-3.7577,-3.7577,-3.7577,-3.7577,-3.7577,-3.7577,-3.7577,-3.7577,-3.7577,-3.7577,-3.7577,-3.7577,-3.7577,-3.7577,-3.7577,-3.7577,-3.7577,-3.7577,-3.7577,-3.7577,-3.738,-3.6577,-3.6916,-3.6809,-3.4579,-3.4597,-3.4615,-3.3169,-3.2916,-3.2916,-3.2916,-3.2916,-3.2916,-3.2916,-3.2916,-3.2916,-3.2916,-3.3055,-3.319,-3.319,-3.3578,-3.3842,-3.3842,-3.4074,-3.4197,-3.4197,-3.4197,-3.4197,-3.4197,-3.4197,-3.4197,-3.4197,-3.4197,-3.4197,-3.4197,-3.4197,-3.4197,-3.4197,-3.4197,-3.4197,-1.2953,0.0,-1.4861,-1.4357,-1.4602,-1.4795,0.0,-1.4257,0.0,0.0,0.0,-1.4031,-1.5395,-1.5575,-1.6719,0.0,0.0,0.0,0.0,0.0,0.0,0.0,0.0,0.0,0.0,0.0,0.0,0.0,0.0,-3.7577,-3.7577,-3.7577,-3.7577,-3.7577,-3.7577,-3.7577,-3.7577,-3.7577,-3.7577,-3.7577,-3.7577,-3.7577,-3.7577,-3.7577,-3.7577,0.0,0.0,0.0,-3.7577,-3.7577,-3.7577,-3.7577,-3.7577,-3.7577,-3.7577,-3.7577,-3.7577,-3.7577,-3.7577,-3.7577,-3.7577,-3.7577,-3.7577,-3.7577,-3.7577,-3.7577,-3.7577,-3.7577,-3.7577,-3.7577,-3.7577,-3.7577,-3.738,-3.6577,-3.6078,-3.5471,-3.4347,-3.374,-3.3312,-3.2987,-3.2916,-3.2916,-3.2916,-3.2916,-3.2916,-3.2916,-3.2916,-3.2916,-3.2916,-3.293,-3.2961,-3.2961,-3.322,-3.335,-3.335,-3.3876,-3.4197,-3.4197,-3.4197,-3.4197,-3.4197,-3.4197,-3.4197,-3.4197,-3.4197,-3.4197,-3.4197,-3.4197,-3.4197,-3.4197,-3.4197,-3.4197,-1.1296,-1.282,-1.4195,-1.4112,-1.441,-1.4592,-1.4195,0.0,0.0,0.0,0.0,0.0,-1.5366,0.0,0.0,0.0,0.0,0.0,0.0,0.0,0.0,0.0,0.0,0.0,0.0,0.0,0.0,0.0,0.0,-3.7577,-3.7577,-3.7577,-3.7577,-3.7577,-3.7577,-3.7577,-3.7577,-3.7577,-3.7577,-3.7577,-3.7577,-3.7577,-3.7577,-3.7577,-3.7577,0.0,0.0,0.0,-3.7577,-3.7577,-3.7577,-3.7577,-3.7577,-3.7577,-3.7577,-3.7577,-3.7577,-3.7577,-3.7577,-3.7577,-3.7577,-3.7577,-3.7577,-3.7577,-3.7577,-3.7577,-3.7577,-3.7577,-3.7577,-3.7577,-3.7577,-3.7577,-3.7291,-3.6131,-3.581,-3.5346,-3.3865,-3.3491,-3.333,-3.2955,-3.2916,-3.2916,-3.2916,-3.2916,-3.2916,-3.2916,-3.2916,-3.2916,-3.2916,-3.2916,-3.2916,-3.2916,-3.3086,-3.325,-3.3368,-3.3815,-3.4074,-3.4074,-3.4148,-3.4197,-3.4197,-3.4197,-3.4197,-3.4197,-3.4197,-3.4197,-3.4197,-3.4197,-3.4197,-3.4197,-3.4197,-3.4197,-1.0932,-1.277,-1.4493,-1.501,-1.5292,-1.5442,0.0,0.0,0.0,0.0,0.0,0.0,0.0,0.0,0.0,0.0,0.0,0.0,0.0,0.0,0.0,0.0,0.0,0.0,0.0,0.0,0.0,0.0,0.0,-3.722,-3.722,-3.722,-3.722,-3.722,-3.7345,-3.7398,-3.7398,-3.7523,-3.7577,-3.7577,-3.7577,-3.7577,-3.7577,-3.7577,-3.7577,-3.7577,0.0,0.0,-3.7577,-3.7577,-3.7577,-3.7577,-3.7577,-3.7577,-3.7577,-3.7577,-3.7577,-3.7577,-3.7577,-3.7577,-3.7577,-3.7577,-3.7577,-3.7577,-3.7577,-3.7577,-3.7577,-3.7577,-3.7487,-3.7398,-3.7398,-3.7327,-3.6845,-3.5382,-3.556,-3.5471,-3.3348,-3.3437,-3.3723,-3.3009,-3.2916,-3.2916,-3.2916,-3.2916,-3.2916,-3.2916,-3.2916,-3.2916,-3.2916,-3.2916,-3.2916,-3.2916,-3.3055,-3.325,-3.3502,-3.3734,-3.3868,-3.3895,-3.4099,-3.4197,-3.4197,-3.4197,-3.4197,-3.4197,-3.4197,-3.4197,-3.4197,-3.4197,-3.4197,-3.4197,-3.4197,-3.4197,-1.2042,-1.3913,-1.501,-1.4493,-1.5305,-1.6072,0.0,0.0,0.0,0.0,0.0,0.0,0.0,0.0,0.0,0.0,0.0,0.0,0.0,0.0,0.0,0.0,0.0,0.0,0.0,0.0,0.0,0.0,0.0,-3.5578,-3.5578,-3.5578,-3.5578,-3.5578,-3.6238,-3.6577,-3.6577,-3.7255,-3.7577,-3.7577,-3.7577,-3.7577,-3.7577,-3.7577,-3.7577,-3.7577,0.0,-3.7577,-3.7577,-3.7577,-3.7577,-3.7577,-3.7577,-3.7577,-3.7577,-3.7577,-3.7577,-3.7577,-3.7577,-3.7577,-3.7577,-3.7577,-3.7577,-3.7577,-3.7577,-3.7577,-3.7577,-3.7577,-3.7095,-3.6577,-3.6577,-3.6078,-3.5364,-3.449,-3.4365,-3.4169,-3.3098,-3.2991,-3.3059,-3.2934,-3.2916,-3.2916,-3.2916,-3.2916,-3.2916,-3.2916,-3.2916,-3.2916,-3.2916,-3.2916,-3.2916,-3.2916,-3.2948,-3.3024,-3.325,-3.3502,-3.3726,-3.3895,-3.4099,-3.4197,-3.4197,-3.4197,-3.4197,-3.4197,-3.4197,-3.4197,-3.4197,-3.4197,-3.4197,-3.4197,-3.4197,-3.4197,-1.0849,-1.2671,-1.4211,-1.4675,-1.6481,-1.8038,0.0,0.0,0.0,0.0,0.0,0.0,0.0,0.0,0.0,0.0,0.0,0.0,0.0,0.0,0.0,0.0,0.0,0.0,0.0,0.0,0.0,0.0,0.0,0.0,-3.5204,-3.5204,-3.5204,-3.5204,-3.556,-3.5757,-3.5757,-3.6114,-3.6524,-3.6952,-3.738,-3.7362,-3.697,-3.738,-3.7577,-3.7577,0.0,-3.7577,-3.7577,-3.7577,-3.7577,-3.7577,-3.7577,-3.7577,-3.7577,-3.7577,-3.7577,-3.7577,-3.7577,-3.7577,-3.7577,-3.7577,-3.7577,-3.7577,-3.7577,-3.7577,-3.7487,-3.7059,-3.6684,-3.6488,-3.6934,-3.6453,-3.5757,-3.5418,-3.5346,-3.5007,-3.3812,-3.3544,-3.3419,-3.2987,-3.2916,-3.2916,-3.2916,-3.2916,-3.2916,-3.2916,-3.2916,-3.2916,-3.2916,-3.2916,-3.2916,-3.2916,-3.2916,-3.3024,-3.3386,-3.353,-3.3726,-3.4049,-3.4148,-3.4197,-3.4197,-3.4197,-3.4197,-3.4197,-3.4197,-3.4197,-3.4197,-3.4197,-3.4197,-3.4197,-3.4197,-3.4197,-1.0021,-1.1677,-1.3499,-1.5143,0.0,0.0,0.0,0.0,0.0,0.0,0.0,0.0,0.0,0.0,0.0,0.0,0.0,0.0,0.0,0.0,0.0,0.0,0.0,0.0,0.0,0.0,0.0,0.0,0.0,0.0,-3.4668,-3.4668,-3.4668,-3.4668,-3.4847,-3.4954,-3.4954,-3.5114,-3.5525,-3.6131,-3.6738,-3.672,-3.6131,-3.6756,-3.7023,-3.7023,-3.7023,-3.7023,-3.7041,-3.722,-3.7309,-3.7327,-3.7523,-3.7577,-3.7577,-3.7577,-3.7577,-3.7577,-3.7577,-3.7577,-3.7577,-3.7577,-3.7577,-3.7577,-3.7577,-3.7452,-3.7184,-3.656,-3.6131,-3.6042,-3.6827,-3.631,-3.5632,-3.581,-3.5721,-3.5257,-3.4062,-3.383,-3.3633,-3.3009,-3.2916,-3.2916,-3.2916,-3.2916,-3.2916,-3.2916,-3.2916,-3.2916,-3.2916,-3.2916,-3.2916,-3.2916,-3.293,-3.3178,-3.3615,-3.3726,-3.3868,-3.4173,-3.4197,-3.4197,-3.4197,-3.4197,-3.4197,-3.4197,-3.4197,-3.4197,-3.4197,-3.4197,-3.4197,-3.4197,-3.4197,-3.4197,-1.128,-1.2456,-1.3615,-1.579,0.0,0.0,0.0,0.0,0.0,0.0,0.0,0.0,0.0,0.0,0.0,0.0,0.0,0.0,0.0,0.0,0.0,0.0,0.0,0.0,0.0,0.0,0.0,0.0,0.0,0.0,-3.3094,-3.3094,-3.3094,-3.3094,-3.3794,-3.4187,-3.4187,-3.4865,-3.5239,-3.5293,-3.5364,-3.5346,-3.5293,-3.5364,-3.5382,-3.5382,-3.5382,-3.5382,-3.5435,-3.6185,-3.6488,-3.656,-3.7291,-3.7577,-3.7577,-3.7577,-3.7577,-3.7577,-3.7577,-3.7577,-3.7577,-3.7577,-3.7577,-3.7577,-3.7577,-3.7077,-3.647,-3.6417,-3.5364,-3.4454,-3.5186,-3.4276,-3.333,-3.4097,-3.3687,-3.313,-3.3023,-3.3005,-3.2987,-3.2902,-3.2916,-3.2916,-3.2916,-3.2916,-3.2916,-3.2916,-3.2916,-3.2916,-3.2916,-3.2916,-3.2916,-3.2916,-3.3086,-3.3368,-3.3842,-3.4049,-3.4173,-3.4197,-3.4197,-3.4197,-3.4197,-3.4197,-3.4197,-3.4197,-3.4197,-3.4197,-3.4197,-3.4197,-3.4197,-3.4197,-3.4197,-3.4197,-0.9713,-1.1464,-1.3477,-1.5255,0.0,0.0,0.0,0.0,0.0,0.0,0.0,0.0,0.0,0.0,0.0,0.0,0.0,0.0,0.0,0.0,0.0,0.0,0.0,0.0,0.0,0.0,0.0,0.0,0.0,0.0,-3.2916,-3.2916,-3.2916,-3.2916,-3.3187,-3.3348,-3.3348,-3.3616,-3.3758,-3.3776,-3.474,-3.4972,-3.4543,-3.4989,-3.5204,-3.5204,-3.5204,-3.5204,-3.5239,-3.5543,-3.565,-3.5685,-3.5989,-3.6114,-3.6167,-3.6667,-3.6845,-3.6916,-3.7416,-3.7577,-3.7577,-3.7577,-3.7577,-3.7487,-3.7006,-3.6631,-3.6203,-3.5239,-3.4561,-3.4276,-3.5025,-3.4436,-3.383,-3.4615,-3.4561,-3.4204,-3.374,-3.3651,-3.3491,-3.2991,-3.2916,-3.2916,-3.2916,-3.2916,-3.2916,-3.2916,-3.2916,-3.2916,-3.2916,-3.2916,-3.2916,-3.2916,-3.3086,-3.328,-3.3437,-3.3797,-3.4023,-3.4023,-3.4124,-3.4197,-3.4197,-3.4197,-3.4197,-3.4197,-3.4197,-3.4197,-3.4197,-3.4197,-3.4197,-3.4197,-3.4197,-3.4197,-0.9373,-1.1317,-1.3653,0.0,0.0,0.0,0.0,0.0,0.0,0.0,0.0,0.0,0.0,0.0,0.0,0.0,0.0,0.0,0.0,0.0,0.0,0.0,0.0,0.0,0.0,0.0,0.0,0.0,0.0,0.0,0.0,-3.2916,-3.2916,-3.2916,-3.2916,-3.2916,-3.2916,-3.2916,-3.2916,-3.2902,-3.3972,-3.4204,-3.374,-3.424,-3.4472,-3.4472,-3.4472,-3.4472,-3.449,-3.4757,-3.4989,-3.5204,-3.5204,-3.5204,-3.5275,-3.5828,-3.6024,-3.6096,-3.6649,-3.6827,-3.6827,-3.6827,-3.6827,-3.6738,-3.6185,-3.5864,-3.5453,-3.4401,-3.3919,-3.383,-3.4347,-3.4097,-3.3919,-3.4686,-3.4668,-3.4347,-3.383,-3.3723,-3.3562,-3.3023,-3.2916,-3.2916,-3.2916,-3.2916,-3.2916,-3.2916,-3.2916,-3.2916,-3.2916,-3.2916,-3.2916,-3.2993,-3.3129,-3.3262,-3.3397,-3.3578,-3.377,-3.3972,-3.4074,-3.4124,-3.4197,-3.4197,-3.4197,-3.4197,-3.4197,-3.4197,-3.4197,-3.4197,-3.4197,-3.4197,-3.4197,-3.4197,-1.0795,-1.2418,0.0,0.0,0.0,0.0,0.0,0.0,0.0,0.0,0.0,0.0,0.0,0.0,0.0,0.0,0.0,0.0,0.0,0.0,0.0,0.0,0.0,0.0,0.0,0.0,0.0,0.0,0.0,0.0,0.0,-3.2916,-3.2916,-3.2916,-3.2916,-3.2916,-3.2916,-3.2916,-3.2916,-3.2916,-3.2916,-3.2916,-3.2916,-3.2916,-3.2916,-3.2916,-3.2916,-3.2916,-3.2969,-3.3758,-3.4526,-3.5186,-3.5186,-3.5186,-3.5186,-3.5204,-3.5204,-3.5204,-3.5204,-3.5204,-3.5204,-3.5204,-3.5204,-3.5204,-3.5204,-3.4686,-3.4115,-3.4097,-3.3508,-3.2916,-3.2916,-3.2916,-3.308,-3.3901,-3.3473,-3.2916,-3.2916,-3.2916,-3.2916,-3.2916,-3.2916,-3.2916,-3.2916,-3.2916,-3.2916,-3.2916,-3.2916,-3.2916,-3.2916,-3.2916,-3.2979,-3.319,-3.3262,-3.3437,-3.3762,-3.3494,-3.356,-3.4148,-3.3998,-3.3998,-3.4197,-3.4197,-3.4197,-3.4197,-3.4197,-3.4197,-3.4197,-3.4197,-3.4197,-3.4197,-3.4197,-3.4197,-1.1018,0.0,0.0,0.0,0.0,0.0,0.0,0.0,0.0,0.0,0.0,0.0,0.0,0.0,0.0,0.0,0.0,0.0,0.0,0.0,0.0,0.0,0.0,0.0,0.0,0.0,0.0,0.0,0.0,0.0,0.0,-3.2916,-3.2916,-3.2916,-3.2916,-3.2916,-3.2916,-3.2916,-3.2916,-3.2916,-3.2916,-3.2916,-3.2916,-3.2916,-3.2916,-3.2916,-3.2916,-3.2916,-3.2934,-3.3152,-3.3366,-3.358,-3.358,-3.358,-3.3633,-3.4222,-3.4436,-3.4508,-3.5025,-3.5204,-3.5204,-3.5204,-3.5204,-3.5114,-3.4597,-3.4276,-3.399,-3.3419,-3.3062,-3.2916,-3.2916,-3.2916,-3.2969,-3.3187,-3.3062,-3.2916,-3.2916,-3.2916,-3.2916,-3.2916,-3.2916,-3.2916,-3.2916,-3.2916,-3.2916,-3.2916,-3.2916,-3.2916,-3.2916,-3.2916,-3.2916,-3.2993,-3.3024,-3.3055,-3.3178,-3.3086,-3.3099,-3.3262,-3.3778,-3.4148,-3.4197,-3.4197,-3.4197,-3.4197,-3.4197,-3.4197,-3.4197,-3.4197,-3.4197,-3.4197,-3.4197,-3.4197,-1.2811,0.0,0.0,0.0,0.0,0.0,0.0,0.0,0.0,0.0,0.0,0.0,0.0,0.0,0.0,0.0,0.0,0.0,0.0,0.0,0.0,0.0,0.0,0.0,0.0,0.0,0.0,0.0,0.0,0.0,0.0,-3.1938,-3.1938,-3.1938,-3.2242,-3.2259,-3.1938,-3.2499,-3.261,-3.2307,-3.2563,-3.2672,-3.2672,-3.282,-3.2802,-3.2672,-3.2672,-3.2672,-3.2672,-3.2672,-3.2672,-3.2672,-3.2672,-3.2705,-3.2841,-3.3339,-3.355,-3.3687,-3.4133,-3.4294,-3.4294,-3.4294,-3.4294,-3.4204,-3.3758,-3.3616,-3.3508,-3.3027,-3.2916,-3.2916,-3.2916,-3.2916,-3.2916,-3.2916,-3.2916,-3.2916,-3.2916,-3.2916,-3.2916,-3.2916,-3.2916,-3.2916,-3.2916,-3.2916,-3.2916,-3.2916,-3.2916,-3.2916,-3.2916,-3.2916,-3.2916,-3.2916,-3.2916,-3.2916,-3.2916,-3.2916,-3.3055,-3.3408,-3.3743,-3.4023,-3.4197,-3.4197,-3.4197,-3.4197,-3.4197,-3.4197,-3.4197,-3.4197,-3.4197,-3.4197,-3.4197,-3.4197,0.0,0.0,0.0,0.0,0.0,0.0,0.0,0.0,0.0,0.0,0.0,0.0,0.0,0.0,0.0,0.0,0.0,0.0,0.0,0.0,0.0,0.0,0.0,0.0,0.0,0.0,0.0,0.0,0.0,0.0,0.0,-3.0481,-3.0481,-3.0481,-3.1176,-3.1212,-3.0451,-3.1749,-3.2007,-3.1299,-3.1841,-3.2073,-3.2073,-3.2601,-3.2639,-3.2283,-3.2283,-3.2283,-3.2283,-3.2283,-3.2283,-3.2283,-3.2283,-3.242,-3.2555,-3.2588,-3.2705,-3.2884,-3.2884,-3.2916,-3.2916,-3.2916,-3.2916,-3.2916,-3.2916,-3.2916,-3.2916,-3.2916,-3.2916,-3.2916,-3.2916,-3.2916,-3.2916,-3.2916,-3.2916,-3.2916,-3.2916,-3.2916,-3.2916,-3.2916,-3.2916,-3.2916,-3.2916,-3.2916,-3.2916,-3.2916,-3.2916,-3.2916,-3.2916,-3.2916,-3.2916,-3.2916,-3.2916,-3.2916,-3.2916,-3.2916,-3.325,-3.403,-3.3734,-3.3753,-3.4173,-3.4197,-3.4197,-3.4197,-3.4197,-3.4197,-3.4197,-3.4197,-3.4197,-3.4197,-3.4197,-3.4197,0.0,0.0,0.0,0.0,0.0,0.0,0.0,0.0,0.0,0.0,0.0,0.0,0.0,0.0,0.0,0.0,0.0,0.0,0.0,0.0,0.0,0.0,0.0,0.0,0.0,0.0,0.0,0.0,0.0,0.0,-3.0511,-3.0287,-3.0225,-3.0348,-3.0402,-3.0356,-3.018,-3.0483,-3.0571,0.0,-3.0507,-3.048,-3.0398,-3.1807,-3.2386,-3.2283,-3.2283,-3.2283,-3.2283,-3.2283,-3.2283,-3.2283,-3.2283,-3.2318,-3.2386,-3.2521,-3.2639,-3.2672,-3.2852,-3.2916,-3.2916,-3.2916,-3.2916,-3.2916,-3.2916,-3.2916,-3.2916,-3.2916,-3.2916,-3.2916,-3.2916,-3.2916,-3.2916,-3.2916,-3.2916,-3.2916,-3.2916,-3.2916,-3.2916,-3.2916,-3.2916,-3.2916,-3.2916,-3.2916,-3.2916,-3.2916,-3.2916,-3.2916,-3.2916,-3.2916,-3.2916,-3.2916,-3.2916,-3.2916,-3.2916,-3.2916,-3.2993,-3.316,-3.3117,-3.3379,-3.4173,-3.4197,-3.4197,-3.4197,-3.4197,-3.4197,-3.4197,-3.4197,-3.4197,-3.4197,-3.4197,-3.4197,0.0,0.0,0.0,0.0,0.0,0.0,0.0,0.0,0.0,0.0,0.0,0.0,0.0,0.0,0.0,0.0,0.0,0.0,0.0,0.0,0.0,0.0,0.0,0.0,0.0,0.0,0.0,0.0,0.0,-2.9017,-2.8969,-2.8833,-2.8739,-2.869,-2.9106,-2.9173,-2.8757,-2.954,-2.9764,-2.9397,-2.9667,-2.9742,-2.971,-3.0959,-3.1586,-3.1637,-3.1934,-3.2055,-3.2055,-3.2055,-3.2055,-3.2055,-3.2055,-3.2126,-3.2232,-3.2335,-3.2472,-3.2588,-3.2705,-3.2802,-3.2916,-3.2916,-3.2916,-3.2916,-3.2916,-3.2916,-3.2916,-3.2916,-3.2916,-3.2916,-3.2916,-3.2916,-3.2916,-3.2916,-3.2916,-3.2916,-3.2916,-3.2916,-3.2916,-3.2916,-3.2916,-3.2916,-3.2916,-3.2916,-3.2916,-3.2916,-3.2916,-3.2916,-3.2916,-3.2916,-3.2916,-3.2916,-3.2916,-3.2916,-3.2916,-3.2916,-3.2916,-3.2916,-3.2916,-3.3291,-3.4173,-3.4197,-3.4197,-3.4197,-3.4197,-3.4197,-3.4197,-3.4197,-3.4197,-3.4197,-3.4197,-3.4197,0.0,0.0,0.0,0.0,0.0,0.0,0.0,0.0,0.0,0.0,0.0,0.0,0.0,0.0,0.0,0.0,0.0,0.0,0.0,0.0,0.0,0.0,0.0,0.0,0.0,0.0,0.0,0.0,0.0,-2.7444,-2.7224,-2.7178,-2.7066,-2.6872,-2.7749,-2.7881,-2.721,-2.8667,-2.903,-2.8372,-2.8883,-2.9127,-2.9161,-2.9937,-3.0525,-3.089,-3.1389,-3.1679,-3.18,-3.18,-3.18,-3.18,-3.18,-3.191,-3.2037,-3.209,-3.2266,-3.2555,-3.2606,-3.2737,-3.2916,-3.2916,-3.2916,-3.2916,-3.2916,-3.2916,-3.2916,-3.2916,-3.2916,-3.2916,-3.2916,-3.2916,-3.2916,-3.2916,-3.2916,-3.2916,-3.2916,-3.2916,-3.2916,-3.2916,-3.2916,-3.2916,-3.2916,-3.2916,-3.2916,-3.2916,-3.2916,-3.2916,-3.2916,-3.2916,-3.2916,-3.2916,-3.2916,-3.2916,-3.2916,-3.2916,-3.2961,-3.3099,-3.3129,-3.3465,-3.4173,-3.4197,-3.4197,-3.4197,-3.4197,-3.4197,-3.4197,-3.4197,-3.4197,-3.4197,-3.4197,-3.4197,0.0,0.0,0.0,0.0,0.0,0.0,0.0,0.0,0.0,0.0,0.0,0.0,0.0,0.0,0.0,0.0,0.0,0.0,0.0,0.0,0.0,0.0,0.0,0.0,0.0,0.0,0.0,0.0,-2.6808,-2.6873,-2.697,-2.6691,-2.6573,-2.6708,-2.691,-2.6976,-2.6873,-2.739,-2.7572,-2.7469,-2.7572,-2.7592,-2.7609,-2.8368,-2.9471,-3.0714,-3.0818,-3.1196,-3.18,-3.18,-3.18,-3.18,-3.18,-3.1837,-3.1873,-3.2054,-3.2197,-3.2352,-3.2521,-3.2737,-3.2916,-3.2916,-3.2916,-3.2916,-3.2916,-3.2916,-3.2916,-3.2916,-3.2916,-3.2916,-3.2916,-3.2916,-3.2916,-3.2916,-3.2916,-3.2916,-3.2916,-3.2916,-3.2916,-3.2916,-3.2916,-3.2916,-3.2916,-3.2916,-3.2916,-3.2916,-3.2916,-3.2916,-3.2916,-3.2916,-3.2916,-3.2916,-3.2916,-3.2916,-3.2916,-3.2916,-3.3202,-3.3979,-3.403,-3.408,-3.4197,-3.4197,-3.4197,-3.4197,-3.4197,-3.4197,-3.4197,-3.4197,-3.4197,-3.4197,-3.4197,-3.4197,0.0,0.0,0.0,0.0,0.0,0.0,0.0,0.0,0.0,0.0,0.0,0.0,0.0,0.0,0.0,0.0,0.0,0.0,0.0,0.0,0.0,0.0,0.0,0.0,0.0,0.0,0.0,0.0,-2.6453,-2.647,-2.6401,-2.6279,-2.6225,-2.6279,-2.6487,-2.6657,-2.6808,-2.7137,-2.7299,-2.7299,-2.7299,-2.7299,-2.7299,-2.7627,-2.8368,-2.942,-2.9851,-3.0472,-3.1179,-3.1179,-3.142,-3.18,-3.18,-3.18,-3.18,-3.191,-3.2037,-3.2197,-3.2404,-3.2555,-3.2737,-3.2866,-3.2916,-3.2916,-3.2916,-3.2916,-3.2916,-3.2916,-3.2916,-3.2916,-3.2916,-3.2916,-3.2916,-3.2916,-3.2916,-3.2916,-3.2916,-3.2916,-3.2916,-3.2916,-3.2916,-3.2916,-3.2916,-3.2916,-3.2916,-3.2916,-3.2916,-3.2916,-3.2916,-3.2916,-3.2916,-3.2916,-3.2916,-3.2916,-3.2916,-3.2916,-3.3068,-3.3465,-3.3465,-3.3465,-3.3465,-3.3954,-3.4197,-3.4197,-3.4197,-3.4197,-3.4197,-3.4197,-3.4197,-3.4197,-3.4197,-3.4197,0.0,0.0,0.0,0.0,0.0,0.0,0.0,0.0,0.0,0.0,0.0,0.0,0.0,0.0,0.0,0.0,0.0,0.0,0.0,0.0,0.0,0.0,0.0,0.0,0.0,0.0,0.0,0.0,-2.6082,-2.6118,-2.5917,-2.5881,-2.5917,-2.601,-2.6243,-2.6521,-2.6808,-2.7137,-2.7299,-2.7299,-2.7299,-2.7299,-2.7299,-2.7299,-2.7592,-2.8161,-2.8903,-2.9679,-3.0386,-3.0386,-3.0834,-3.1524,-3.1524,-3.1627,-3.18,-3.18,-3.1946,-3.2108,-3.2232,-3.2352,-3.2573,-3.277,-3.2802,-3.2834,-3.2884,-3.2916,-3.2916,-3.2916,-3.2916,-3.2916,-3.2916,-3.2916,-3.2916,-3.2916,-3.2916,-3.2916,-3.2916,-3.2916,-3.2916,-3.2916,-3.2916,-3.2916,-3.2916,-3.2916,-3.2916,-3.2916,-3.2916,-3.2916,-3.2916,-3.2916,-3.2916,-3.2916,-3.2916,-3.2916,-3.2916,-3.2916,-3.2916,-3.2916,-3.2916,-3.2916,-3.2916,-3.3504,-3.3876,-3.3876,-3.3998,-3.4099,-3.4197,-3.4197,-3.4197,-3.4197,-3.4197,-3.4197,0.0,0.0,0.0,0.0,0.0,0.0,0.0,0.0,0.0,0.0,0.0,0.0,0.0,0.0,0.0,0.0,0.0,0.0,0.0,0.0,0.0,0.0,0.0,0.0,0.0,0.0,0.0,0.0,-2.5654,-2.5654,-2.5616,-2.5616,-2.5749,-2.5974,-2.6243,-2.6521,-2.6808,-2.7137,-2.7299,-2.7299,-2.7299,-2.7299,-2.7299,-2.7299,-2.7316,-2.7385,-2.8144,-2.8885,-2.9558,-2.9558,-3.0024,-3.0748,-3.0748,-3.1179,-3.18,-3.18,-3.1946,-3.2108,-3.2108,-3.2197,-3.2352,-3.2555,-3.2606,-3.2639,-3.2852,-3.2916,-3.2916,-3.2916,-3.2916,-3.2916,-3.2916,-3.2916,-3.2916,-3.2916,-3.2916,-3.2916,-3.2916,-3.2916,-3.2916,-3.2916,-3.2916,-3.2916,-3.2916,-3.2916,-3.2916,-3.2916,-3.2916,-3.2916,-3.2916,-3.2916,-3.2916,-3.2916,-3.2916,-3.2916,-3.2916,-3.2916,-3.2916,-3.2916,-3.2916,-3.2916,-3.2916,-3.293,-3.2961,-3.2961,-3.3415,-3.3815,-3.4197,-3.4197,-3.4197,-3.4197,-3.4197,-3.4197,0.0,0.0,0.0,0.0,0.0,0.0,0.0,0.0,0.0,0.0,0.0,0.0,0.0,0.0,0.0,0.0,0.0,0.0,0.0,0.0,0.0,0.0,0.0,0.0,0.0,0.0,0.0,0.0,0.0,-2.424,-2.424,-2.424,-2.4365,-2.466,-2.4746,-2.5246,-2.616,-2.6702,-2.7105,-2.7299,-2.7299,-2.7299,-2.7299,-2.7299,-2.7299,-2.7299,-2.7575,-2.8109,-2.8799,-2.8799,-2.9248,-2.992,-2.992,-3.0093,-3.0386,-3.0903,-3.1147,-3.1288,-3.1881,-3.2144,-3.2197,-3.237,-3.2472,-3.2555,-3.2639,-3.277,-3.2916,-3.2916,-3.2916,-3.2916,-3.2916,-3.2916,-3.2916,-3.2916,-3.2916,-3.2916,-3.2916,-3.2916,-3.2916,-3.2916,-3.2916,-3.2916,-3.2916,-3.2916,-3.2916,-3.2916,-3.2916,-3.2916,-3.2916,-3.2916,-3.2916,-3.2916,-3.2916,-3.2916,-3.2916,-3.2916,-3.2916,-3.2916,-3.2916,-3.2916,-3.2916,-3.2916,-3.2916,-3.2916,-3.3073,-3.3386,-3.3834,-3.3947,-3.3998,-3.3998,-3.4148,-3.4197,0.0,0.0,0.0,0.0,0.0,0.0,0.0,0.0,0.0,0.0,0.0,0.0,0.0,0.0,0.0,0.0,0.0,0.0,0.0,0.0,0.0,0.0,0.0,0.0,0.0,0.0,0.0,0.0,0.0,0.0,-2.3513,-2.3513,-2.3634,-2.3869,-2.4,-2.4427,-2.53,-2.5807,-2.6309,-2.6808,-2.6854,-2.704,-2.7299,-2.7299,-2.7299,-2.7299,-2.7299,-2.7575,-2.8023,-2.8023,-2.8472,-2.9127,-2.9127,-2.9282,-2.9558,-3.0093,-3.03,-3.0438,-3.1341,-3.1636,-3.1707,-3.2109,-3.2301,-3.2404,-3.2438,-3.2639,-3.2916,-3.2916,-3.2916,-3.2916,-3.2916,-3.2916,-3.2916,-3.2916,-3.2916,-3.2916,-3.2916,-3.2916,-3.2916,-3.2916,-3.2916,-3.2916,-3.2916,-3.2916,-3.2916,-3.2916,-3.2916,-3.2916,-3.2916,-3.2916,-3.2916,-3.2916,-3.2916,-3.2916,-3.2916,-3.2916,-3.2916,-3.2916,-3.2916,-3.2916,-3.2916,-3.2916,-3.2916,-3.2916,-3.2916,-3.3086,-3.3502,-3.368,-3.3807,-3.3788,-3.3972,-3.4124,0.0,0.0,0.0,0.0,0.0,0.0,0.0,0.0,0.0,0.0,0.0,0.0,0.0,0.0,0.0,0.0,0.0,0.0,0.0,0.0,0.0,0.0,0.0,0.0,0.0,0.0,0.0,0.0,-2.3448,-2.3448,-2.3448,-2.3448,-2.3568,-2.3819,-2.4111,-2.4238,-2.4238,-2.4489,-2.5002,-2.5751,-2.5953,-2.6488,-2.723,-2.7247,-2.7247,-2.7264,-2.7282,-2.7299,-2.7299,-2.7299,-2.7713,-2.8368,-2.8368,-2.8799,-2.9455,-2.9472,-2.9472,-2.9592,-3.0386,-3.0644,-3.0801,-3.1741,-3.2091,-3.2214,-3.2266,-3.2573,-3.2884,-3.2884,-3.2884,-3.2916,-3.2916,-3.2916,-3.2916,-3.2916,-3.2916,-3.2916,-3.2916,-3.2916,-3.2916,-3.2916,-3.2916,-3.2916,-3.2916,-3.2916,-3.2916,-3.2916,-3.2916,-3.2916,-3.2916,-3.2916,-3.2916,-3.2916,-3.2916,-3.2916,-3.2916,-3.2916,-3.2916,-3.2916,-3.2916,-3.2916,-3.2916,-3.2916,-3.2916,-3.2916,-3.2916,-3.3024,-3.3291,-3.3502,-3.3605,-3.3605,-3.3753,-3.3947,-0.8653,0.0,0.0,0.0,0.0,0.0,0.0,0.0,0.0,0.0,0.0,0.0,0.0,0.0,0.0,0.0,0.0,0.0,0.0,0.0,0.0,0.0,0.0,0.0,0.0,0.0,0.0,0.0,-2.1908,-2.1908,-2.1908,-2.1908,-2.194,-2.2036,-2.2765,-2.3156,-2.3187,-2.413,-2.4717,-2.4934,-2.518,-2.5419,-2.5643,-2.6195,-2.6437,-2.6471,-2.704,-2.7299,-2.7299,-2.7299,-2.742,-2.7592,-2.7592,-2.773,-2.7971,-2.8506,-2.8696,-2.8816,-2.9575,-2.9834,-2.9868,-3.0145,-3.101,-3.191,-3.1929,-3.2037,-3.2091,-3.2091,-3.2472,-3.2916,-3.2916,-3.2916,-3.2916,-3.2916,-3.2916,-3.2916,-3.2916,-3.2916,-3.2916,-3.2916,-3.2916,-3.2916,-3.2916,-3.2916,-3.2916,-3.2916,-3.2916,-3.2916,-3.2916,-3.2916,-3.2916,-3.2916,-3.2916,-3.2916,-3.2916,-3.2916,-3.2916,-3.2916,-3.2916,-3.2916,-3.2916,-3.2916,-3.2916,-3.2916,-3.2916,-3.2948,-3.3024,-3.325,-3.3512,-3.3753,-3.3972,-3.4124,0.0,0.0,0.0,0.0,0.0,0.0,0.0,0.0,0.0,0.0,0.0,0.0,0.0,0.0,0.0,0.0,0.0,0.0,0.0,0.0,0.0,0.0,0.0,0.0,0.0,-2.1309,-2.1309,-2.1309,-2.1309,-2.1309,-2.1309,-2.1309,-2.1309,-2.1309,-2.1824,-2.2131,-2.2179,-2.2981,-2.3594,-2.4019,-2.4274,-2.4591,-2.5023,-2.5454,-2.5643,-2.5678,-2.6471,-2.6799,-2.6833,-2.7161,-2.7299,-2.7299,-2.7299,-2.7299,-2.7351,-2.7782,-2.7937,-2.804,-2.8799,-2.9041,-2.9092,-2.9403,-2.9972,-3.0627,-3.1041,-3.1024,-3.0972,-3.1627,-3.2335,-3.2916,-3.2916,-3.2916,-3.2916,-3.2916,-3.2916,-3.2916,-3.2916,-3.2916,-3.2916,-3.2916,-3.2916,-3.2916,-3.2916,-3.2916,-3.2916,-3.2916,-3.2916,-3.2916,-3.2916,-3.2916,-3.2916,-3.2916,-3.2916,-3.2916,-3.2916,-3.2916,-3.2916,-3.2916,-3.2916,-3.2916,-3.2916,-3.2916,-3.2916,-3.2916,-3.2916,-3.2916,-3.2916,-3.325,-3.3426,-3.3426,-3.3578,-3.3831,0.0,0.0,0.0,0.0,0.0,0.0,-1.3775,-1.352,0.0,0.0,0.0,0.0,0.0,0.0,0.0,0.0,0.0,0.0,0.0,0.0,0.0,0.0,0.0,0.0,-2.1309,-2.1309,-2.1309,-2.1309,-2.1309,-2.1309,-2.1309,-2.1309,-2.1309,-2.1309,-2.1325,-2.134,-2.1309,-2.1587,-2.2159,-2.305,-2.3257,-2.3847,-2.4718,-2.4833,-2.4867,-2.4919,-2.5661,-2.6023,-2.6161,-2.6868,-2.7213,-2.7299,-2.7299,-2.7299,-2.7299,-2.7299,-2.7299,-2.7385,-2.804,-2.8282,-2.8385,-2.9041,-2.9023,-2.8903,-2.9713,-2.9713,-2.9679,-3.0955,-3.1881,-3.2588,-3.283,-3.2852,-3.2787,-3.2787,-3.2852,-3.2916,-3.2916,-3.2852,-3.2802,-3.2884,-3.2916,-3.2916,-3.2916,-3.2916,-3.2916,-3.2916,-3.2916,-3.2916,-3.2916,-3.2916,-3.2916,-3.2916,-3.2916,-3.2916,-3.2916,-3.2916,-3.2916,-3.2916,-3.2916,-3.2916,-3.2916,-3.2916,-3.2916,-3.2916,-3.2916,-3.2916,-3.2916,-3.3415,-3.3444,-3.3037,-3.3037,-3.3465,-1.2671,-1.3213,-1.3727,-1.229,0.0,0.0,-1.1885,-1.1723,0.0,0.0,0.0,0.0,0.0,0.0,0.0,0.0,0.0,0.0,0.0,0.0,0.0,0.0,0.0,0.0,-2.1309,-2.1309,-2.1309,-2.1309,-2.1309,-2.1309,-2.1309,-2.1309,-2.1309,-2.1309,-2.1511,-2.1526,-2.1309,-2.1721,-2.1965,-2.1983,-2.2411,-2.2739,-2.292,-2.3698,-2.4012,-2.4063,-2.4885,-2.5557,-2.6126,-2.6281,-2.6713,-2.7299,-2.7299,-2.7299,-2.7299,-2.7299,-2.7299,-2.7316,-2.7454,-2.7506,-2.754,-2.7678,-2.8075,-2.8403,-2.8006,-2.8368,-2.8834,-2.8316,-2.9124,-3.059,-3.2417,-3.2472,-3.2001,-3.2001,-3.2472,-3.2916,-3.2916,-3.2438,-3.2197,-3.277,-3.2916,-3.2916,-3.2916,-3.2916,-3.2916,-3.2916,-3.2916,-3.2916,-3.2916,-3.2916,-3.2916,-3.2916,-3.2916,-3.2916,-3.2916,-3.2916,-3.2916,-3.2916,-3.2916,-3.2916,-3.2916,-3.2916,-3.2916,-3.2916,-3.2916,-3.2916,-3.2916,-3.3689,-3.4049,-3.3954,-3.3954,-3.403,-1.3961,-1.4256,-1.4729,-1.4022,0.0,0.0,0.0,0.0,-1.2015,0.0,0.0,0.0,0.0,0.0,0.0,0.0,0.0,0.0,0.0,0.0,0.0,0.0,0.0,0.0,-2.0807,-2.1115,-2.1309,-2.1309,-2.1309,-2.1309,-2.1309,-2.1309,-2.1309,-2.1309,-2.1433,-2.145,-2.1309,-2.154,-2.1661,-2.1708,-2.2032,-2.2276,-2.2422,-2.3,-2.3237,-2.3271,-2.4091,-2.4597,-2.4959,-2.5402,-2.6023,-2.6747,-2.7144,-2.7299,-2.7299,-2.7299,-2.7299,-2.7299,-2.7299,-2.7299,-2.7299,-2.7299,-2.754,-2.7782,-2.7402,-2.7644,-2.7937,-2.7437,-2.7833,-2.8674,-2.9828,-2.9826,-2.9937,-3.1438,-3.2073,-3.2335,-3.2335,-3.2073,-3.1893,-3.2266,-3.2335,-3.2472,-3.2852,-3.2916,-3.2916,-3.2916,-3.2573,-3.2335,-3.2335,-3.2335,-3.2335,-3.2335,-3.2672,-3.2916,-3.2916,-3.2916,-3.2916,-3.2916,-3.2916,-3.2916,-3.2916,-3.2916,-3.2916,-3.2916,-3.2916,-3.2916,-3.2916,-3.2983,-3.3421,-3.4197,-3.4197,-3.4197,0.0,0.0,0.0,0.0,0.0,-1.3971,0.0,0.0,0.0,-1.3808,0.0,0.0,0.0,0.0,0.0,0.0,0.0,0.0,0.0,0.0,0.0,0.0,0.0,0.0,0.0,-2.0256,-2.0726,-2.1276,-2.0936,-2.0872,-2.1293,-2.1309,-2.1309,-2.1309,-2.1309,-2.1309,-2.1309,-2.1309,-2.1419,-2.1634,-2.1882,-2.2101,-2.2332,-2.2579,-2.2712,-2.272,-2.3323,-2.3667,-2.3839,-2.4505,-2.5212,-2.5971,-2.6764,-2.7161,-2.7299,-2.7299,-2.7299,-2.7299,-2.7299,-2.7299,-2.7299,-2.7299,-2.7299,-2.7299,-2.7299,-2.7299,-2.7299,-2.7299,-2.7299,-2.7299,-2.7299,-2.7299,-2.7902,-3.0351,-3.092,-3.092,-3.092,-3.1386,-3.18,-3.18,-3.18,-3.2001,-3.2573,-3.2672,-3.2672,-3.2672,-3.2161,-3.18,-3.18,-3.18,-3.18,-3.18,-3.2335,-3.2672,-3.2672,-3.2672,-3.2672,-3.2672,-3.2672,-3.2672,-3.2672,-3.2672,-3.2672,-3.2672,-3.2672,-3.2755,-3.2916,-3.2179,-3.2648,-3.4197,-3.4148,-3.4124,0.0,0.0,0.0,0.0,-1.6593,0.0,0.0,0.0,-1.3167,-1.1529,0.0,0.0,0.0,0.0,0.0,0.0,0.0,0.0,0.0,0.0,0.0,0.0,0.0,0.0,0.0,-1.7876,-1.8605,-2.1131,-1.9544,-1.9301,-2.1212,-2.1309,-2.1309,-2.1309,-2.1309,-2.1309,-2.1309,-2.1309,-2.1325,-2.134,-2.1794,-2.2027,-2.2056,-2.2508,-2.2712,-2.2712,-2.2771,-2.3185,-2.3805,-2.3891,-2.4419,-2.5212,-2.5954,-2.6678,-2.7299,-2.7299,-2.7299,-2.7299,-2.7299,-2.7299,-2.7299,-2.7299,-2.7299,-2.7299,-2.7299,-2.7299,-2.7299,-2.7299,-2.7299,-2.7299,-2.7299,-2.7299,-2.7385,-2.773,-2.7799,-2.7799,-2.7799,-2.9903,-3.18,-3.18,-3.18,-3.1837,-3.1893,-3.1929,-3.1929,-3.1929,-3.1856,-3.18,-3.18,-3.18,-3.18,-3.18,-3.1856,-3.1929,-3.1929,-3.1929,-3.1929,-3.1929,-3.1929,-3.1929,-3.1929,-3.1929,-3.1929,-3.1929,-3.1929,-3.2249,-3.2916,-3.2179,-3.2648,-3.4197,-3.3947,-3.386,0.0,0.0,0.0,0.0,0.0,0.0,-1.3924,0.0,-1.3248,0.0,0.0,0.0,0.0,0.0,0.0,0.0,0.0,0.0,0.0,0.0,0.0,0.0,0.0,0.0,0.0,0.0,0.0,0.0,-1.8475,-1.8459,-2.0613,-2.0726,-2.0904,-2.1309,-2.1309,-2.1309,-2.1309,-2.1309,-2.1371,-2.1526,-2.1853,-2.2084,-2.2231,-2.2552,-2.2712,-2.2712,-2.2712,-2.2875,-2.315,-2.315,-2.3598,-2.435,-2.4632,-2.5523,-2.6609,-2.6609,-2.6902,-2.7299,-2.7299,-2.7299,-2.7299,-2.7299,-2.7299,-2.7299,-2.7299,-2.7299,-2.7299,-2.7299,-2.7299,-2.7299,-2.7299,-2.7299,-2.7299,-2.7299,-2.7299,-2.7299,-2.7299,-2.8282,-2.9696,-3.1455,-3.18,-3.18,-3.18,-3.18,-3.18,-3.18,-3.18,-3.18,-3.18,-3.18,-3.18,-3.18,-3.18,-3.18,-3.18,-3.18,-3.18,-3.18,-3.18,-3.18,-3.18,-3.18,-3.18,-3.18,-3.18,-3.1965,-3.2266,-3.1965,-3.2162,-3.2822,-3.2681,-3.3045,-1.7824,0.0,0.0,0.0,0.0,0.0,0.0,0.0,0.0,0.0,0.0,0.0,0.0,0.0,0.0,0.0,0.0,0.0,0.0,0.0,0.0,0.0,0.0,0.0,0.0,0.0,0.0,0.0,0.0,-1.6977,-1.956,-1.9855,-2.0291,-2.1017,-2.1212,-2.1309,-2.1309,-2.1309,-2.1402,-2.1587,-2.1811,-2.2044,-2.2304,-2.2525,-2.2659,-2.2712,-2.2712,-2.2712,-2.2712,-2.2712,-2.3039,-2.3495,-2.3495,-2.4287,-2.5505,-2.573,-2.6299,-2.6971,-2.6971,-2.7109,-2.7299,-2.7299,-2.7299,-2.7299,-2.7299,-2.7299,-2.7299,-2.7299,-2.7299,-2.7299,-2.7299,-2.7299,-2.7299,-2.7299,-2.7299,-2.7299,-2.7299,-2.7299,-2.7937,-3.0144,-3.1231,-3.18,-3.18,-3.18,-3.18,-3.18,-3.18,-3.18,-3.18,-3.18,-3.18,-3.18,-3.18,-3.18,-3.18,-3.18,-3.18,-3.18,-3.18,-3.18,-3.18,-3.18,-3.18,-3.18,-3.18,-3.18,-3.18,-3.18,-3.18,-3.18,-3.18,-3.2335,0.0,0.0,0.0,-1.5687,0.0,0.0,0.0,0.0,-1.4428,0.0,0.0,0.0,0.0,0.0,0.0,0.0,0.0,0.0,0.0,0.0,0.0,0.0,0.0,0.0,0.0,0.0,0.0,0.0,0.0,0.0,-1.7973,-1.872,-1.9444,-2.0305,-2.0969,-2.1309,-2.1309,-2.1309,-2.1309,-2.1325,-2.1587,-2.1827,-2.2027,-2.2304,-2.2515,-2.2712,-2.2712,-2.2712,-2.2712,-2.2712,-2.2703,-2.2746,-2.2746,-2.3185,-2.396,-2.4764,-2.5505,-2.6143,-2.6143,-2.6644,-2.7299,-2.7299,-2.7299,-2.7299,-2.7299,-2.7299,-2.7299,-2.7299,-2.7299,-2.7299,-2.7299,-2.7299,-2.7299,-2.7299,-2.7299,-2.7299,-2.7299,-2.7299,-2.7333,-2.742,-2.9799,-3.18,-3.18,-3.18,-3.18,-3.18,-3.18,-3.18,-3.18,-3.18,-3.18,-3.18,-3.18,-3.18,-3.18,-3.18,-3.18,-3.18,-3.18,-3.18,-3.18,-3.18,-3.18,-3.18,-3.18,-3.18,-3.18,-3.18,-3.18,-3.18,-3.18,-3.1837,0.0,0.0,-1.8262,-1.6766,0.0,0.0,0.0,0.0,0.0,0.0,0.0,0.0,0.0,0.0,0.0,0.0,0.0,0.0,0.0,0.0,0.0,0.0,0.0,0.0,0.0,0.0,0.0,0.0,-1.3839,0.0,0.0,-1.819,-1.922,-2.009,-2.0781,-2.1214,-2.1309,-2.1309,-2.1388,-2.1573,-2.1664,-2.1827,-2.1998,-2.2084,-2.226,-2.2515,-2.2515,-2.2596,-2.2712,-2.2712,-2.2712,-2.2712,-2.2712,-2.2867,-2.315,-2.3936,-2.5023,-2.6195,-2.6713,-2.7075,-2.7299,-2.7299,-2.7299,-2.7299,-2.7299,-2.7299,-2.7299,-2.7299,-2.7299,-2.7299,-2.7299,-2.7299,-2.7299,-2.7299,-2.7299,-2.7299,-2.7299,-2.7299,-2.7299,-2.7299,-2.973,-3.18,-3.18,-3.18,-3.18,-3.18,-3.18,-3.18,-3.18,-3.18,-3.18,-3.18,-3.18,-3.18,-3.18,-3.18,-3.18,-3.18,-3.18,-3.18,-3.18,-3.18,-3.18,-3.18,-3.18,-3.18,-3.18,-3.18,-3.18,-3.18,-3.18,-3.18,-1.8517,-1.8517,0.0,-1.722,-1.6346,0.0,-1.4254,0.0,0.0,0.0,0.0,0.0,0.0,0.0,0.0,0.0,0.0,0.0,0.0,0.0,0.0,0.0,0.0,0.0,0.0,0.0,-1.2018,-1.3215,0.0,0.0,0.0,0.0,-1.8661,-1.9509,-2.0496,-2.1055,-2.123,-2.123,-2.134,-2.1556,-2.1556,-2.1678,-2.1882,-2.1882,-2.2015,-2.2276,-2.2276,-2.2388,-2.2579,-2.2579,-2.2632,-2.2712,-2.2712,-2.2712,-2.2763,-2.3219,-2.4373,-2.5833,-2.6609,-2.7057,-2.7299,-2.7299,-2.7299,-2.7299,-2.7299,-2.7299,-2.7299,-2.7299,-2.7299,-2.7299,-2.7299,-2.7299,-2.7299,-2.7299,-2.7299,-2.7299,-2.7299,-2.7299,-2.7299,-2.7299,-2.8868,-3.0368,-3.0886,-3.1438,-3.18,-3.18,-3.18,-3.18,-3.18,-3.18,-3.18,-3.18,-3.18,-3.18,-3.18,-3.18,-3.18,-3.18,-3.18,-3.18,-3.18,-3.18,-3.18,-3.18,-3.18,-3.18,-3.18,-3.18,-3.18,-3.18,-3.18,-3.18]}]]